<?xml version="1.0" encoding="utf-8"?>
<gpx xmlns:xsi="http://www.w3.org/2001/XMLSchema-instance" xmlns:xsd="http://www.w3.org/2001/XMLSchema" version="1.1" creator="Shapelink.com" xmlns="http://www.topografix.com/GPX/1/1" xmlns:gpxtpx="http://www.garmin.com/xmlschemas/TrackPointExtension/v1">
  <metadata>
    <name>Løping 5.31 km, 2013-04-10</name>
    <desc></desc>
    <author><name>Mikael Blom</name></author> 
    <time>2013-04-10T18:09:35Z</time>
  </metadata>
  <trk>
    <name>Løping 5.31 km, 2013-04-10</name>
    <trkseg>
      <trkpt lat="59.9922453" lon="17.7375005">
        <ele>57.8165</ele>
        <time>2013-04-10T18:09:35Z</time>
      </trkpt>
      <trkpt lat="59.9922355" lon="17.7375233">
        <ele>58.2971</ele>
        <time>2013-04-10T18:09:36Z</time>
      </trkpt>
      <trkpt lat="59.9922226" lon="17.7375336">
        <ele>58.2971</ele>
        <time>2013-04-10T18:09:37Z</time>
      </trkpt>
      <trkpt lat="59.9922048" lon="17.7375377">
        <ele>58.2971</ele>
        <time>2013-04-10T18:09:38Z</time>
      </trkpt>
      <trkpt lat="59.9921845" lon="17.7375439">
        <ele>57.8165</ele>
        <time>2013-04-10T18:09:39Z</time>
      </trkpt>
      <trkpt lat="59.9921623" lon="17.7375516">
        <ele>57.3358</ele>
        <time>2013-04-10T18:09:40Z</time>
      </trkpt>
      <trkpt lat="59.9921377" lon="17.7375511">
        <ele>57.3358</ele>
        <time>2013-04-10T18:09:41Z</time>
      </trkpt>
      <trkpt lat="59.9921091" lon="17.7375542">
        <ele>57.8165</ele>
        <time>2013-04-10T18:09:42Z</time>
      </trkpt>
      <trkpt lat="59.9920826" lon="17.7375523">
        <ele>57.3358</ele>
        <time>2013-04-10T18:09:43Z</time>
      </trkpt>
      <trkpt lat="59.9920588" lon="17.737546">
        <ele>57.3358</ele>
        <time>2013-04-10T18:09:44Z</time>
      </trkpt>
      <trkpt lat="59.9920366" lon="17.7375339">
        <ele>57.3358</ele>
        <time>2013-04-10T18:09:45Z</time>
      </trkpt>
      <trkpt lat="59.9920118" lon="17.7375326">
        <ele>57.3358</ele>
        <time>2013-04-10T18:09:46Z</time>
      </trkpt>
      <trkpt lat="59.9919864" lon="17.737532">
        <ele>57.3358</ele>
        <time>2013-04-10T18:09:47Z</time>
      </trkpt>
      <trkpt lat="59.9919621" lon="17.7375343">
        <ele>58.2971</ele>
        <time>2013-04-10T18:09:48Z</time>
      </trkpt>
      <trkpt lat="59.9919349" lon="17.7375382">
        <ele>58.7777</ele>
        <time>2013-04-10T18:09:49Z</time>
      </trkpt>
      <trkpt lat="59.9919084" lon="17.7375392">
        <ele>57.8165</ele>
        <time>2013-04-10T18:09:50Z</time>
      </trkpt>
      <trkpt lat="59.9918794" lon="17.737546">
        <ele>58.2971</ele>
        <time>2013-04-10T18:09:51Z</time>
      </trkpt>
      <trkpt lat="59.9918493" lon="17.7375485">
        <ele>58.7777</ele>
        <time>2013-04-10T18:09:52Z</time>
      </trkpt>
      <trkpt lat="59.9918216" lon="17.7375463">
        <ele>59.2584</ele>
        <time>2013-04-10T18:09:53Z</time>
      </trkpt>
      <trkpt lat="59.9917839" lon="17.7375621">
        <ele>59.7391</ele>
        <time>2013-04-10T18:09:54Z</time>
      </trkpt>
      <trkpt lat="59.9917474" lon="17.7375743">
        <ele>60.7003</ele>
        <time>2013-04-10T18:09:55Z</time>
      </trkpt>
      <trkpt lat="59.9917157" lon="17.7375743">
        <ele>61.6617</ele>
        <time>2013-04-10T18:09:56Z</time>
      </trkpt>
      <trkpt lat="59.9916868" lon="17.737567">
        <ele>63.1036</ele>
        <time>2013-04-10T18:09:57Z</time>
      </trkpt>
      <trkpt lat="59.9916515" lon="17.7375642">
        <ele>63.5844</ele>
        <time>2013-04-10T18:09:58Z</time>
      </trkpt>
      <trkpt lat="59.9916183" lon="17.7375675">
        <ele>65.0264</ele>
        <time>2013-04-10T18:09:59Z</time>
      </trkpt>
      <trkpt lat="59.9915922" lon="17.7375691">
        <ele>65.5071</ele>
        <time>2013-04-10T18:10:00Z</time>
      </trkpt>
      <trkpt lat="59.9915712" lon="17.7375735">
        <ele>65.5071</ele>
        <time>2013-04-10T18:10:01Z</time>
      </trkpt>
      <trkpt lat="59.9915513" lon="17.7375775">
        <ele>65.5071</ele>
        <time>2013-04-10T18:10:02Z</time>
      </trkpt>
      <trkpt lat="59.9915253" lon="17.7375858">
        <ele>64.0651</ele>
        <time>2013-04-10T18:10:03Z</time>
      </trkpt>
      <trkpt lat="59.9914946" lon="17.7375952">
        <ele>63.5844</ele>
        <time>2013-04-10T18:10:04Z</time>
      </trkpt>
      <trkpt lat="59.9914613" lon="17.7375989">
        <ele>62.6229</ele>
        <time>2013-04-10T18:10:05Z</time>
      </trkpt>
      <trkpt lat="59.991427" lon="17.7376051">
        <ele>62.1423</ele>
        <time>2013-04-10T18:10:06Z</time>
      </trkpt>
      <trkpt lat="59.9913981" lon="17.7376128">
        <ele>62.6229</ele>
        <time>2013-04-10T18:10:07Z</time>
      </trkpt>
      <trkpt lat="59.9913691" lon="17.7376154">
        <ele>62.6229</ele>
        <time>2013-04-10T18:10:08Z</time>
      </trkpt>
      <trkpt lat="59.9913434" lon="17.7376124">
        <ele>62.6229</ele>
        <time>2013-04-10T18:10:09Z</time>
      </trkpt>
      <trkpt lat="59.9913185" lon="17.7376128">
        <ele>62.6229</ele>
        <time>2013-04-10T18:10:10Z</time>
      </trkpt>
      <trkpt lat="59.9912906" lon="17.7376152">
        <ele>61.6617</ele>
        <time>2013-04-10T18:10:11Z</time>
      </trkpt>
      <trkpt lat="59.9912575" lon="17.7376291">
        <ele>62.1423</ele>
        <time>2013-04-10T18:10:12Z</time>
      </trkpt>
      <trkpt lat="59.9912274" lon="17.7376475">
        <ele>62.6229</ele>
        <time>2013-04-10T18:10:13Z</time>
      </trkpt>
      <trkpt lat="59.9911994" lon="17.7376593">
        <ele>61.6617</ele>
        <time>2013-04-10T18:10:14Z</time>
      </trkpt>
      <trkpt lat="59.9911711" lon="17.7376716">
        <ele>61.6617</ele>
        <time>2013-04-10T18:10:15Z</time>
      </trkpt>
      <trkpt lat="59.991147" lon="17.7376801">
        <ele>62.1423</ele>
        <time>2013-04-10T18:10:16Z</time>
      </trkpt>
      <trkpt lat="59.9911135" lon="17.7377056">
        <ele>62.6229</ele>
        <time>2013-04-10T18:10:17Z</time>
      </trkpt>
      <trkpt lat="59.991087" lon="17.737723">
        <ele>62.6229</ele>
        <time>2013-04-10T18:10:18Z</time>
      </trkpt>
      <trkpt lat="59.9910654" lon="17.7377361">
        <ele>62.6229</ele>
        <time>2013-04-10T18:10:19Z</time>
      </trkpt>
      <trkpt lat="59.991042" lon="17.7377521">
        <ele>63.5844</ele>
        <time>2013-04-10T18:10:20Z</time>
      </trkpt>
      <trkpt lat="59.9910175" lon="17.7377621">
        <ele>63.5844</ele>
        <time>2013-04-10T18:10:21Z</time>
      </trkpt>
      <trkpt lat="59.990997" lon="17.7377744">
        <ele>63.5844</ele>
        <time>2013-04-10T18:10:22Z</time>
      </trkpt>
      <trkpt lat="59.9909775" lon="17.7377895">
        <ele>63.5844</ele>
        <time>2013-04-10T18:10:23Z</time>
      </trkpt>
      <trkpt lat="59.9909539" lon="17.7378084">
        <ele>63.1036</ele>
        <time>2013-04-10T18:10:24Z</time>
      </trkpt>
      <trkpt lat="59.9909252" lon="17.737832">
        <ele>63.5844</ele>
        <time>2013-04-10T18:10:25Z</time>
      </trkpt>
      <trkpt lat="59.9908986" lon="17.7378447">
        <ele>63.5844</ele>
        <time>2013-04-10T18:10:26Z</time>
      </trkpt>
      <trkpt lat="59.9908794" lon="17.7378556">
        <ele>63.1036</ele>
        <time>2013-04-10T18:10:27Z</time>
      </trkpt>
      <trkpt lat="59.9908548" lon="17.7378769">
        <ele>63.5844</ele>
        <time>2013-04-10T18:10:28Z</time>
      </trkpt>
      <trkpt lat="59.9908296" lon="17.73789">
        <ele>63.1036</ele>
        <time>2013-04-10T18:10:29Z</time>
      </trkpt>
      <trkpt lat="59.9908087" lon="17.7378966">
        <ele>62.6229</ele>
        <time>2013-04-10T18:10:30Z</time>
      </trkpt>
      <trkpt lat="59.9907914" lon="17.7379075">
        <ele>62.1423</ele>
        <time>2013-04-10T18:10:31Z</time>
      </trkpt>
      <trkpt lat="59.9907798" lon="17.737921">
        <ele>62.1423</ele>
        <time>2013-04-10T18:10:32Z</time>
      </trkpt>
      <trkpt lat="59.9907703" lon="17.7379289">
        <ele>61.181</ele>
        <time>2013-04-10T18:10:33Z</time>
      </trkpt>
      <trkpt lat="59.9907586" lon="17.7379327">
        <ele>59.7391</ele>
        <time>2013-04-10T18:10:34Z</time>
      </trkpt>
      <trkpt lat="59.990743" lon="17.737937">
        <ele>58.7777</ele>
        <time>2013-04-10T18:10:35Z</time>
      </trkpt>
      <trkpt lat="59.9907234" lon="17.737952">
        <ele>57.8165</ele>
        <time>2013-04-10T18:10:36Z</time>
      </trkpt>
      <trkpt lat="59.9907045" lon="17.7379674">
        <ele>57.3358</ele>
        <time>2013-04-10T18:10:37Z</time>
      </trkpt>
      <trkpt lat="59.9906856" lon="17.737976">
        <ele>57.3358</ele>
        <time>2013-04-10T18:10:38Z</time>
      </trkpt>
      <trkpt lat="59.9906623" lon="17.7379867">
        <ele>57.3358</ele>
        <time>2013-04-10T18:10:39Z</time>
      </trkpt>
      <trkpt lat="59.9906422" lon="17.737993">
        <ele>56.8551</ele>
        <time>2013-04-10T18:10:40Z</time>
      </trkpt>
      <trkpt lat="59.9906245" lon="17.7380018">
        <ele>56.3745</ele>
        <time>2013-04-10T18:10:41Z</time>
      </trkpt>
      <trkpt lat="59.9906113" lon="17.738011">
        <ele>55.4131</ele>
        <time>2013-04-10T18:10:42Z</time>
      </trkpt>
      <trkpt lat="59.990589" lon="17.7380229">
        <ele>54.9324</ele>
        <time>2013-04-10T18:10:43Z</time>
      </trkpt>
      <trkpt lat="59.9905667" lon="17.7380256">
        <ele>54.4518</ele>
        <time>2013-04-10T18:10:44Z</time>
      </trkpt>
      <trkpt lat="59.9905404" lon="17.7380313">
        <ele>53.9712</ele>
        <time>2013-04-10T18:10:45Z</time>
      </trkpt>
      <trkpt lat="59.9905175" lon="17.7380417">
        <ele>53.4905</ele>
        <time>2013-04-10T18:10:46Z</time>
      </trkpt>
      <trkpt lat="59.9904954" lon="17.7380496">
        <ele>53.4905</ele>
        <time>2013-04-10T18:10:47Z</time>
      </trkpt>
      <trkpt lat="59.9904779" lon="17.7380514">
        <ele>53.9712</ele>
        <time>2013-04-10T18:10:48Z</time>
      </trkpt>
      <trkpt lat="59.9904629" lon="17.7380475">
        <ele>53.4905</ele>
        <time>2013-04-10T18:10:49Z</time>
      </trkpt>
      <trkpt lat="59.9904471" lon="17.7380454">
        <ele>53.4905</ele>
        <time>2013-04-10T18:10:50Z</time>
      </trkpt>
      <trkpt lat="59.9904274" lon="17.7380462">
        <ele>53.0098</ele>
        <time>2013-04-10T18:10:51Z</time>
      </trkpt>
      <trkpt lat="59.9904036" lon="17.7380618">
        <ele>52.5292</ele>
        <time>2013-04-10T18:10:52Z</time>
      </trkpt>
      <trkpt lat="59.9903784" lon="17.7380826">
        <ele>52.5292</ele>
        <time>2013-04-10T18:10:53Z</time>
      </trkpt>
      <trkpt lat="59.990351" lon="17.7381034">
        <ele>52.0486</ele>
        <time>2013-04-10T18:10:54Z</time>
      </trkpt>
      <trkpt lat="59.9903249" lon="17.7381178">
        <ele>52.0486</ele>
        <time>2013-04-10T18:10:55Z</time>
      </trkpt>
      <trkpt lat="59.9902964" lon="17.7381428">
        <ele>52.0486</ele>
        <time>2013-04-10T18:10:56Z</time>
      </trkpt>
      <trkpt lat="59.9902761" lon="17.7381585">
        <ele>51.0872</ele>
        <time>2013-04-10T18:10:57Z</time>
      </trkpt>
      <trkpt lat="59.9902542" lon="17.7381633">
        <ele>51.5679</ele>
        <time>2013-04-10T18:10:58Z</time>
      </trkpt>
      <trkpt lat="59.9902323" lon="17.7381707">
        <ele>51.5679</ele>
        <time>2013-04-10T18:10:59Z</time>
      </trkpt>
      <trkpt lat="59.9902085" lon="17.7381866">
        <ele>52.0486</ele>
        <time>2013-04-10T18:11:00Z</time>
      </trkpt>
      <trkpt lat="59.9901826" lon="17.7382054">
        <ele>53.4905</ele>
        <time>2013-04-10T18:11:01Z</time>
      </trkpt>
      <trkpt lat="59.9901594" lon="17.7382168">
        <ele>53.4905</ele>
        <time>2013-04-10T18:11:02Z</time>
      </trkpt>
      <trkpt lat="59.9901354" lon="17.7382316">
        <ele>53.4905</ele>
        <time>2013-04-10T18:11:03Z</time>
      </trkpt>
      <trkpt lat="59.9901095" lon="17.7382478">
        <ele>53.4905</ele>
        <time>2013-04-10T18:11:04Z</time>
      </trkpt>
      <trkpt lat="59.990084" lon="17.7382644">
        <ele>54.4518</ele>
        <time>2013-04-10T18:11:05Z</time>
      </trkpt>
      <trkpt lat="59.9900587" lon="17.738282">
        <ele>54.9324</ele>
        <time>2013-04-10T18:11:06Z</time>
      </trkpt>
      <trkpt lat="59.990036" lon="17.7382919">
        <ele>54.9324</ele>
        <time>2013-04-10T18:11:07Z</time>
      </trkpt>
      <trkpt lat="59.9900137" lon="17.7383002">
        <ele>54.9324</ele>
        <time>2013-04-10T18:11:08Z</time>
      </trkpt>
      <trkpt lat="59.9899897" lon="17.7383085">
        <ele>55.4131</ele>
        <time>2013-04-10T18:11:09Z</time>
      </trkpt>
      <trkpt lat="59.989967" lon="17.7383208">
        <ele>55.4131</ele>
        <time>2013-04-10T18:11:10Z</time>
      </trkpt>
      <trkpt lat="59.9899394" lon="17.7383264">
        <ele>55.8938</ele>
        <time>2013-04-10T18:11:11Z</time>
      </trkpt>
      <trkpt lat="59.9899136" lon="17.7383296">
        <ele>56.3745</ele>
        <time>2013-04-10T18:11:12Z</time>
      </trkpt>
      <trkpt lat="59.9898909" lon="17.7383424">
        <ele>56.3745</ele>
        <time>2013-04-10T18:11:13Z</time>
      </trkpt>
      <trkpt lat="59.9898676" lon="17.7383515">
        <ele>56.3745</ele>
        <time>2013-04-10T18:11:14Z</time>
      </trkpt>
      <trkpt lat="59.9898462" lon="17.7383534">
        <ele>55.8938</ele>
        <time>2013-04-10T18:11:15Z</time>
      </trkpt>
      <trkpt lat="59.9898245" lon="17.7383647">
        <ele>55.8938</ele>
        <time>2013-04-10T18:11:16Z</time>
      </trkpt>
      <trkpt lat="59.989802" lon="17.7383764">
        <ele>55.4131</ele>
        <time>2013-04-10T18:11:17Z</time>
      </trkpt>
      <trkpt lat="59.9897796" lon="17.738383">
        <ele>54.9324</ele>
        <time>2013-04-10T18:11:18Z</time>
      </trkpt>
      <trkpt lat="59.9897631" lon="17.7383928">
        <ele>54.4518</ele>
        <time>2013-04-10T18:11:19Z</time>
      </trkpt>
      <trkpt lat="59.9897439" lon="17.7384028">
        <ele>53.9712</ele>
        <time>2013-04-10T18:11:20Z</time>
      </trkpt>
      <trkpt lat="59.9897241" lon="17.7384104">
        <ele>53.0098</ele>
        <time>2013-04-10T18:11:21Z</time>
      </trkpt>
      <trkpt lat="59.9897007" lon="17.7384229">
        <ele>52.5292</ele>
        <time>2013-04-10T18:11:22Z</time>
      </trkpt>
      <trkpt lat="59.9896755" lon="17.738432">
        <ele>52.5292</ele>
        <time>2013-04-10T18:11:23Z</time>
      </trkpt>
      <trkpt lat="59.9896547" lon="17.738428">
        <ele>51.5679</ele>
        <time>2013-04-10T18:11:24Z</time>
      </trkpt>
      <trkpt lat="59.9896345" lon="17.738429">
        <ele>50.6066</ele>
        <time>2013-04-10T18:11:25Z</time>
      </trkpt>
      <trkpt lat="59.9896136" lon="17.7384291">
        <ele>50.6066</ele>
        <time>2013-04-10T18:11:26Z</time>
      </trkpt>
      <trkpt lat="59.9895929" lon="17.7384267">
        <ele>50.126</ele>
        <time>2013-04-10T18:11:27Z</time>
      </trkpt>
      <trkpt lat="59.9895753" lon="17.7384327">
        <ele>49.1646</ele>
        <time>2013-04-10T18:11:28Z</time>
      </trkpt>
      <trkpt lat="59.9895573" lon="17.7384424">
        <ele>49.1646</ele>
        <time>2013-04-10T18:11:29Z</time>
      </trkpt>
      <trkpt lat="59.9895356" lon="17.7384492">
        <ele>48.684</ele>
        <time>2013-04-10T18:11:30Z</time>
      </trkpt>
      <trkpt lat="59.9895168" lon="17.7384531">
        <ele>48.2034</ele>
        <time>2013-04-10T18:11:31Z</time>
      </trkpt>
      <trkpt lat="59.9894981" lon="17.7384613">
        <ele>47.2418</ele>
        <time>2013-04-10T18:11:32Z</time>
      </trkpt>
      <trkpt lat="59.9894776" lon="17.738469">
        <ele>46.7612</ele>
        <time>2013-04-10T18:11:33Z</time>
      </trkpt>
      <trkpt lat="59.9894538" lon="17.7384798">
        <ele>46.2806</ele>
        <time>2013-04-10T18:11:34Z</time>
      </trkpt>
      <trkpt lat="59.9894297" lon="17.738493">
        <ele>46.2806</ele>
        <time>2013-04-10T18:11:35Z</time>
      </trkpt>
      <trkpt lat="59.9894035" lon="17.7385075">
        <ele>46.2806</ele>
        <time>2013-04-10T18:11:36Z</time>
      </trkpt>
      <trkpt lat="59.9893811" lon="17.7385171">
        <ele>46.7612</ele>
        <time>2013-04-10T18:11:37Z</time>
      </trkpt>
      <trkpt lat="59.9893547" lon="17.7385285">
        <ele>47.2418</ele>
        <time>2013-04-10T18:11:38Z</time>
      </trkpt>
      <trkpt lat="59.9893293" lon="17.738544">
        <ele>47.7225</ele>
        <time>2013-04-10T18:11:39Z</time>
      </trkpt>
      <trkpt lat="59.9893086" lon="17.7385571">
        <ele>47.7225</ele>
        <time>2013-04-10T18:11:40Z</time>
      </trkpt>
      <trkpt lat="59.9892921" lon="17.7385679">
        <ele>48.684</ele>
        <time>2013-04-10T18:11:41Z</time>
      </trkpt>
      <trkpt lat="59.9892795" lon="17.7385771">
        <ele>49.6453</ele>
        <time>2013-04-10T18:11:42Z</time>
      </trkpt>
      <trkpt lat="59.9892599" lon="17.7385898">
        <ele>50.126</ele>
        <time>2013-04-10T18:11:43Z</time>
      </trkpt>
      <trkpt lat="59.9892361" lon="17.7386089">
        <ele>50.126</ele>
        <time>2013-04-10T18:11:44Z</time>
      </trkpt>
      <trkpt lat="59.9892156" lon="17.7386264">
        <ele>50.6066</ele>
        <time>2013-04-10T18:11:45Z</time>
      </trkpt>
      <trkpt lat="59.9891927" lon="17.7386375">
        <ele>51.0872</ele>
        <time>2013-04-10T18:11:46Z</time>
      </trkpt>
      <trkpt lat="59.9891658" lon="17.738655">
        <ele>52.0486</ele>
        <time>2013-04-10T18:11:47Z</time>
      </trkpt>
      <trkpt lat="59.989145" lon="17.7386753">
        <ele>52.5292</ele>
        <time>2013-04-10T18:11:48Z</time>
      </trkpt>
      <trkpt lat="59.9891301" lon="17.7386944">
        <ele>52.5292</ele>
        <time>2013-04-10T18:11:49Z</time>
      </trkpt>
      <trkpt lat="59.9891104" lon="17.7387066">
        <ele>52.0486</ele>
        <time>2013-04-10T18:11:50Z</time>
      </trkpt>
      <trkpt lat="59.9890906" lon="17.7387219">
        <ele>52.0486</ele>
        <time>2013-04-10T18:11:51Z</time>
      </trkpt>
      <trkpt lat="59.9890709" lon="17.7387398">
        <ele>52.0486</ele>
        <time>2013-04-10T18:11:52Z</time>
      </trkpt>
      <trkpt lat="59.9890476" lon="17.7387549">
        <ele>52.0486</ele>
        <time>2013-04-10T18:11:53Z</time>
      </trkpt>
      <trkpt lat="59.9890211" lon="17.7387726">
        <ele>52.5292</ele>
        <time>2013-04-10T18:11:54Z</time>
      </trkpt>
      <trkpt lat="59.9889984" lon="17.7387973">
        <ele>53.0098</ele>
        <time>2013-04-10T18:11:55Z</time>
      </trkpt>
      <trkpt lat="59.9889791" lon="17.7388114">
        <ele>53.0098</ele>
        <time>2013-04-10T18:11:56Z</time>
      </trkpt>
      <trkpt lat="59.9889585" lon="17.7388228">
        <ele>53.0098</ele>
        <time>2013-04-10T18:11:57Z</time>
      </trkpt>
      <trkpt lat="59.9889374" lon="17.7388416">
        <ele>53.0098</ele>
        <time>2013-04-10T18:11:58Z</time>
      </trkpt>
      <trkpt lat="59.9889176" lon="17.7388656">
        <ele>53.4905</ele>
        <time>2013-04-10T18:11:59Z</time>
      </trkpt>
      <trkpt lat="59.9888964" lon="17.738886">
        <ele>53.4905</ele>
        <time>2013-04-10T18:12:00Z</time>
      </trkpt>
      <trkpt lat="59.9888689" lon="17.7389057">
        <ele>54.4518</ele>
        <time>2013-04-10T18:12:01Z</time>
      </trkpt>
      <trkpt lat="59.9888472" lon="17.7389205">
        <ele>54.4518</ele>
        <time>2013-04-10T18:12:02Z</time>
      </trkpt>
      <trkpt lat="59.9888255" lon="17.738935">
        <ele>53.9712</ele>
        <time>2013-04-10T18:12:03Z</time>
      </trkpt>
      <trkpt lat="59.9887993" lon="17.7389507">
        <ele>54.4518</ele>
        <time>2013-04-10T18:12:04Z</time>
      </trkpt>
      <trkpt lat="59.9887801" lon="17.7389591">
        <ele>54.4518</ele>
        <time>2013-04-10T18:12:05Z</time>
      </trkpt>
      <trkpt lat="59.9887628" lon="17.7389683">
        <ele>54.9324</ele>
        <time>2013-04-10T18:12:06Z</time>
      </trkpt>
      <trkpt lat="59.9887383" lon="17.7389912">
        <ele>54.9324</ele>
        <time>2013-04-10T18:12:07Z</time>
      </trkpt>
      <trkpt lat="59.9887098" lon="17.7390198">
        <ele>55.8938</ele>
        <time>2013-04-10T18:12:08Z</time>
      </trkpt>
      <trkpt lat="59.988682" lon="17.7390421">
        <ele>55.8938</ele>
        <time>2013-04-10T18:12:09Z</time>
      </trkpt>
      <trkpt lat="59.9886569" lon="17.7390539">
        <ele>55.8938</ele>
        <time>2013-04-10T18:12:10Z</time>
      </trkpt>
      <trkpt lat="59.9886317" lon="17.7390661">
        <ele>55.4131</ele>
        <time>2013-04-10T18:12:11Z</time>
      </trkpt>
      <trkpt lat="59.9886109" lon="17.7390715">
        <ele>54.9324</ele>
        <time>2013-04-10T18:12:12Z</time>
      </trkpt>
      <trkpt lat="59.9885867" lon="17.7390814">
        <ele>54.9324</ele>
        <time>2013-04-10T18:12:13Z</time>
      </trkpt>
      <trkpt lat="59.9885598" lon="17.7390953">
        <ele>54.9324</ele>
        <time>2013-04-10T18:12:14Z</time>
      </trkpt>
      <trkpt lat="59.9885312" lon="17.7391088">
        <ele>54.9324</ele>
        <time>2013-04-10T18:12:15Z</time>
      </trkpt>
      <trkpt lat="59.9885036" lon="17.7391279">
        <ele>55.4131</ele>
        <time>2013-04-10T18:12:16Z</time>
      </trkpt>
      <trkpt lat="59.988479" lon="17.7391397">
        <ele>55.4131</ele>
        <time>2013-04-10T18:12:17Z</time>
      </trkpt>
      <trkpt lat="59.9884524" lon="17.7391544">
        <ele>55.4131</ele>
        <time>2013-04-10T18:12:18Z</time>
      </trkpt>
      <trkpt lat="59.9884303" lon="17.7391633">
        <ele>55.4131</ele>
        <time>2013-04-10T18:12:19Z</time>
      </trkpt>
      <trkpt lat="59.9884099" lon="17.7391705">
        <ele>54.9324</ele>
        <time>2013-04-10T18:12:20Z</time>
      </trkpt>
      <trkpt lat="59.9883836" lon="17.7391769">
        <ele>55.4131</ele>
        <time>2013-04-10T18:12:21Z</time>
      </trkpt>
      <trkpt lat="59.9883613" lon="17.7391818">
        <ele>54.9324</ele>
        <time>2013-04-10T18:12:22Z</time>
      </trkpt>
      <trkpt lat="59.9883414" lon="17.7391866">
        <ele>54.9324</ele>
        <time>2013-04-10T18:12:23Z</time>
      </trkpt>
      <trkpt lat="59.9883204" lon="17.7391932">
        <ele>54.9324</ele>
        <time>2013-04-10T18:12:24Z</time>
      </trkpt>
      <trkpt lat="59.9882991" lon="17.7392015">
        <ele>54.9324</ele>
        <time>2013-04-10T18:12:25Z</time>
      </trkpt>
      <trkpt lat="59.9882785" lon="17.7392145">
        <ele>54.4518</ele>
        <time>2013-04-10T18:12:26Z</time>
      </trkpt>
      <trkpt lat="59.9882572" lon="17.7392306">
        <ele>54.4518</ele>
        <time>2013-04-10T18:12:27Z</time>
      </trkpt>
      <trkpt lat="59.9882336" lon="17.7392387">
        <ele>54.4518</ele>
        <time>2013-04-10T18:12:28Z</time>
      </trkpt>
      <trkpt lat="59.9882099" lon="17.7392477">
        <ele>54.4518</ele>
        <time>2013-04-10T18:12:29Z</time>
      </trkpt>
      <trkpt lat="59.9881855" lon="17.7392638">
        <ele>54.4518</ele>
        <time>2013-04-10T18:12:30Z</time>
      </trkpt>
      <trkpt lat="59.9881638" lon="17.7392673">
        <ele>54.4518</ele>
        <time>2013-04-10T18:12:31Z</time>
      </trkpt>
      <trkpt lat="59.9881405" lon="17.7392712">
        <ele>53.4905</ele>
        <time>2013-04-10T18:12:32Z</time>
      </trkpt>
      <trkpt lat="59.9881126" lon="17.7392828">
        <ele>53.9712</ele>
        <time>2013-04-10T18:12:33Z</time>
      </trkpt>
      <trkpt lat="59.9880803" lon="17.7392888">
        <ele>53.4905</ele>
        <time>2013-04-10T18:12:34Z</time>
      </trkpt>
      <trkpt lat="59.9880551" lon="17.7392843">
        <ele>52.5292</ele>
        <time>2013-04-10T18:12:35Z</time>
      </trkpt>
      <trkpt lat="59.9880303" lon="17.7392849">
        <ele>53.0098</ele>
        <time>2013-04-10T18:12:36Z</time>
      </trkpt>
      <trkpt lat="59.988005" lon="17.7392802">
        <ele>53.0098</ele>
        <time>2013-04-10T18:12:37Z</time>
      </trkpt>
      <trkpt lat="59.987979" lon="17.739276">
        <ele>52.5292</ele>
        <time>2013-04-10T18:12:38Z</time>
      </trkpt>
      <trkpt lat="59.9879542" lon="17.7392838">
        <ele>53.0098</ele>
        <time>2013-04-10T18:12:39Z</time>
      </trkpt>
      <trkpt lat="59.9879308" lon="17.7392813">
        <ele>53.0098</ele>
        <time>2013-04-10T18:12:40Z</time>
      </trkpt>
      <trkpt lat="59.9879035" lon="17.7392782">
        <ele>53.0098</ele>
        <time>2013-04-10T18:12:41Z</time>
      </trkpt>
      <trkpt lat="59.9878793" lon="17.7392814">
        <ele>52.5292</ele>
        <time>2013-04-10T18:12:42Z</time>
      </trkpt>
      <trkpt lat="59.9878556" lon="17.7392866">
        <ele>53.0098</ele>
        <time>2013-04-10T18:12:43Z</time>
      </trkpt>
      <trkpt lat="59.9878329" lon="17.7392874">
        <ele>53.0098</ele>
        <time>2013-04-10T18:12:44Z</time>
      </trkpt>
      <trkpt lat="59.9878074" lon="17.7392946">
        <ele>52.5292</ele>
        <time>2013-04-10T18:12:45Z</time>
      </trkpt>
      <trkpt lat="59.9877828" lon="17.7392921">
        <ele>52.5292</ele>
        <time>2013-04-10T18:12:46Z</time>
      </trkpt>
      <trkpt lat="59.9877539" lon="17.7393023">
        <ele>52.5292</ele>
        <time>2013-04-10T18:12:47Z</time>
      </trkpt>
      <trkpt lat="59.9877278" lon="17.7393144">
        <ele>52.5292</ele>
        <time>2013-04-10T18:12:48Z</time>
      </trkpt>
      <trkpt lat="59.9877047" lon="17.7393215">
        <ele>53.0098</ele>
        <time>2013-04-10T18:12:49Z</time>
      </trkpt>
      <trkpt lat="59.9876816" lon="17.7393217">
        <ele>52.5292</ele>
        <time>2013-04-10T18:12:50Z</time>
      </trkpt>
      <trkpt lat="59.9876607" lon="17.7393181">
        <ele>52.0486</ele>
        <time>2013-04-10T18:12:51Z</time>
      </trkpt>
      <trkpt lat="59.9876354" lon="17.7393171">
        <ele>52.0486</ele>
        <time>2013-04-10T18:12:52Z</time>
      </trkpt>
      <trkpt lat="59.9876099" lon="17.7393155">
        <ele>52.5292</ele>
        <time>2013-04-10T18:12:53Z</time>
      </trkpt>
      <trkpt lat="59.9875848" lon="17.7393148">
        <ele>52.0486</ele>
        <time>2013-04-10T18:12:54Z</time>
      </trkpt>
      <trkpt lat="59.9875578" lon="17.7393205">
        <ele>52.0486</ele>
        <time>2013-04-10T18:12:55Z</time>
      </trkpt>
      <trkpt lat="59.9875307" lon="17.7393324">
        <ele>52.0486</ele>
        <time>2013-04-10T18:12:56Z</time>
      </trkpt>
      <trkpt lat="59.9875009" lon="17.7393439">
        <ele>53.0098</ele>
        <time>2013-04-10T18:12:57Z</time>
      </trkpt>
      <trkpt lat="59.9874683" lon="17.7393498">
        <ele>53.9712</ele>
        <time>2013-04-10T18:12:58Z</time>
      </trkpt>
      <trkpt lat="59.9874392" lon="17.7393526">
        <ele>53.9712</ele>
        <time>2013-04-10T18:12:59Z</time>
      </trkpt>
      <trkpt lat="59.9874105" lon="17.7393574">
        <ele>53.9712</ele>
        <time>2013-04-10T18:13:00Z</time>
      </trkpt>
      <trkpt lat="59.9873837" lon="17.7393573">
        <ele>53.4905</ele>
        <time>2013-04-10T18:13:01Z</time>
      </trkpt>
      <trkpt lat="59.9873582" lon="17.7393522">
        <ele>52.5292</ele>
        <time>2013-04-10T18:13:02Z</time>
      </trkpt>
      <trkpt lat="59.9873288" lon="17.7393512">
        <ele>52.5292</ele>
        <time>2013-04-10T18:13:03Z</time>
      </trkpt>
      <trkpt lat="59.9873" lon="17.7393511">
        <ele>52.5292</ele>
        <time>2013-04-10T18:13:04Z</time>
      </trkpt>
      <trkpt lat="59.9872671" lon="17.7393546">
        <ele>53.0098</ele>
        <time>2013-04-10T18:13:05Z</time>
      </trkpt>
      <trkpt lat="59.9872341" lon="17.7393557">
        <ele>53.4905</ele>
        <time>2013-04-10T18:13:06Z</time>
      </trkpt>
      <trkpt lat="59.9872" lon="17.7393541">
        <ele>54.4518</ele>
        <time>2013-04-10T18:13:07Z</time>
      </trkpt>
      <trkpt lat="59.9871704" lon="17.7393472">
        <ele>54.9324</ele>
        <time>2013-04-10T18:13:08Z</time>
      </trkpt>
      <trkpt lat="59.9871485" lon="17.7393392">
        <ele>54.4518</ele>
        <time>2013-04-10T18:13:09Z</time>
      </trkpt>
      <trkpt lat="59.987123" lon="17.7393381">
        <ele>54.9324</ele>
        <time>2013-04-10T18:13:10Z</time>
      </trkpt>
      <trkpt lat="59.9870943" lon="17.7393356">
        <ele>55.8938</ele>
        <time>2013-04-10T18:13:11Z</time>
      </trkpt>
      <trkpt lat="59.9870666" lon="17.7393272">
        <ele>55.4131</ele>
        <time>2013-04-10T18:13:12Z</time>
      </trkpt>
      <trkpt lat="59.9870404" lon="17.7393155">
        <ele>55.4131</ele>
        <time>2013-04-10T18:13:13Z</time>
      </trkpt>
      <trkpt lat="59.9870113" lon="17.7393082">
        <ele>55.8938</ele>
        <time>2013-04-10T18:13:14Z</time>
      </trkpt>
      <trkpt lat="59.9869849" lon="17.7392977">
        <ele>54.9324</ele>
        <time>2013-04-10T18:13:15Z</time>
      </trkpt>
      <trkpt lat="59.9869611" lon="17.7392824">
        <ele>54.4518</ele>
        <time>2013-04-10T18:13:16Z</time>
      </trkpt>
      <trkpt lat="59.9869378" lon="17.7392651">
        <ele>54.4518</ele>
        <time>2013-04-10T18:13:17Z</time>
      </trkpt>
      <trkpt lat="59.9869164" lon="17.7392455">
        <ele>54.4518</ele>
        <time>2013-04-10T18:13:18Z</time>
      </trkpt>
      <trkpt lat="59.9868948" lon="17.7392233">
        <ele>54.4518</ele>
        <time>2013-04-10T18:13:19Z</time>
      </trkpt>
      <trkpt lat="59.9868713" lon="17.7392032">
        <ele>54.4518</ele>
        <time>2013-04-10T18:13:20Z</time>
      </trkpt>
      <trkpt lat="59.9868496" lon="17.7391818">
        <ele>54.4518</ele>
        <time>2013-04-10T18:13:21Z</time>
      </trkpt>
      <trkpt lat="59.9868304" lon="17.7391585">
        <ele>53.9712</ele>
        <time>2013-04-10T18:13:22Z</time>
      </trkpt>
      <trkpt lat="59.9868124" lon="17.7391378">
        <ele>53.0098</ele>
        <time>2013-04-10T18:13:23Z</time>
      </trkpt>
      <trkpt lat="59.9867917" lon="17.7391231">
        <ele>53.0098</ele>
        <time>2013-04-10T18:13:24Z</time>
      </trkpt>
      <trkpt lat="59.9867734" lon="17.7391073">
        <ele>52.5292</ele>
        <time>2013-04-10T18:13:25Z</time>
      </trkpt>
      <trkpt lat="59.9867554" lon="17.7390896">
        <ele>52.0486</ele>
        <time>2013-04-10T18:13:26Z</time>
      </trkpt>
      <trkpt lat="59.9867355" lon="17.7390705">
        <ele>51.0872</ele>
        <time>2013-04-10T18:13:27Z</time>
      </trkpt>
      <trkpt lat="59.9867141" lon="17.7390495">
        <ele>51.0872</ele>
        <time>2013-04-10T18:13:28Z</time>
      </trkpt>
      <trkpt lat="59.9866927" lon="17.7390347">
        <ele>50.6066</ele>
        <time>2013-04-10T18:13:29Z</time>
      </trkpt>
      <trkpt lat="59.9866729" lon="17.7390267">
        <ele>50.6066</ele>
        <time>2013-04-10T18:13:30Z</time>
      </trkpt>
      <trkpt lat="59.9866513" lon="17.7390096">
        <ele>51.0872</ele>
        <time>2013-04-10T18:13:31Z</time>
      </trkpt>
      <trkpt lat="59.9866254" lon="17.7389876">
        <ele>50.6066</ele>
        <time>2013-04-10T18:13:32Z</time>
      </trkpt>
      <trkpt lat="59.9865974" lon="17.7389667">
        <ele>50.6066</ele>
        <time>2013-04-10T18:13:33Z</time>
      </trkpt>
      <trkpt lat="59.986573" lon="17.7389491">
        <ele>51.0872</ele>
        <time>2013-04-10T18:13:34Z</time>
      </trkpt>
      <trkpt lat="59.9865516" lon="17.7389275">
        <ele>51.5679</ele>
        <time>2013-04-10T18:13:35Z</time>
      </trkpt>
      <trkpt lat="59.9865309" lon="17.7389117">
        <ele>51.5679</ele>
        <time>2013-04-10T18:13:36Z</time>
      </trkpt>
      <trkpt lat="59.9865126" lon="17.7388901">
        <ele>51.0872</ele>
        <time>2013-04-10T18:13:37Z</time>
      </trkpt>
      <trkpt lat="59.9864923" lon="17.7388696">
        <ele>51.5679</ele>
        <time>2013-04-10T18:13:38Z</time>
      </trkpt>
      <trkpt lat="59.9864701" lon="17.7388529">
        <ele>51.5679</ele>
        <time>2013-04-10T18:13:39Z</time>
      </trkpt>
      <trkpt lat="59.9864502" lon="17.7388347">
        <ele>52.0486</ele>
        <time>2013-04-10T18:13:40Z</time>
      </trkpt>
      <trkpt lat="59.986427" lon="17.7388139">
        <ele>52.0486</ele>
        <time>2013-04-10T18:13:41Z</time>
      </trkpt>
      <trkpt lat="59.9864011" lon="17.7387963">
        <ele>52.0486</ele>
        <time>2013-04-10T18:13:42Z</time>
      </trkpt>
      <trkpt lat="59.9863778" lon="17.7387736">
        <ele>51.5679</ele>
        <time>2013-04-10T18:13:43Z</time>
      </trkpt>
      <trkpt lat="59.9863536" lon="17.7387454">
        <ele>51.5679</ele>
        <time>2013-04-10T18:13:44Z</time>
      </trkpt>
      <trkpt lat="59.9863312" lon="17.7387172">
        <ele>51.0872</ele>
        <time>2013-04-10T18:13:45Z</time>
      </trkpt>
      <trkpt lat="59.9863068" lon="17.7386933">
        <ele>51.0872</ele>
        <time>2013-04-10T18:13:46Z</time>
      </trkpt>
      <trkpt lat="59.9862809" lon="17.7386736">
        <ele>51.0872</ele>
        <time>2013-04-10T18:13:47Z</time>
      </trkpt>
      <trkpt lat="59.9862553" lon="17.738659">
        <ele>51.0872</ele>
        <time>2013-04-10T18:13:48Z</time>
      </trkpt>
      <trkpt lat="59.9862298" lon="17.7386452">
        <ele>51.5679</ele>
        <time>2013-04-10T18:13:49Z</time>
      </trkpt>
      <trkpt lat="59.986201" lon="17.7386259">
        <ele>51.5679</ele>
        <time>2013-04-10T18:13:50Z</time>
      </trkpt>
      <trkpt lat="59.9861747" lon="17.7386026">
        <ele>51.5679</ele>
        <time>2013-04-10T18:13:51Z</time>
      </trkpt>
      <trkpt lat="59.9861478" lon="17.7385797">
        <ele>51.5679</ele>
        <time>2013-04-10T18:13:52Z</time>
      </trkpt>
      <trkpt lat="59.9861214" lon="17.7385577">
        <ele>51.5679</ele>
        <time>2013-04-10T18:13:53Z</time>
      </trkpt>
      <trkpt lat="59.986096" lon="17.7385427">
        <ele>51.5679</ele>
        <time>2013-04-10T18:13:54Z</time>
      </trkpt>
      <trkpt lat="59.9860675" lon="17.738531">
        <ele>51.0872</ele>
        <time>2013-04-10T18:13:55Z</time>
      </trkpt>
      <trkpt lat="59.9860385" lon="17.7385196">
        <ele>51.0872</ele>
        <time>2013-04-10T18:13:56Z</time>
      </trkpt>
      <trkpt lat="59.9860126" lon="17.7385095">
        <ele>50.6066</ele>
        <time>2013-04-10T18:13:57Z</time>
      </trkpt>
      <trkpt lat="59.985987" lon="17.7385006">
        <ele>50.6066</ele>
        <time>2013-04-10T18:13:58Z</time>
      </trkpt>
      <trkpt lat="59.9859599" lon="17.7384963">
        <ele>50.6066</ele>
        <time>2013-04-10T18:13:59Z</time>
      </trkpt>
      <trkpt lat="59.9859349" lon="17.7384885">
        <ele>51.0872</ele>
        <time>2013-04-10T18:14:00Z</time>
      </trkpt>
      <trkpt lat="59.9859085" lon="17.7384797">
        <ele>51.0872</ele>
        <time>2013-04-10T18:14:01Z</time>
      </trkpt>
      <trkpt lat="59.9858801" lon="17.7384741">
        <ele>51.0872</ele>
        <time>2013-04-10T18:14:02Z</time>
      </trkpt>
      <trkpt lat="59.985856" lon="17.7384702">
        <ele>51.0872</ele>
        <time>2013-04-10T18:14:03Z</time>
      </trkpt>
      <trkpt lat="59.9858261" lon="17.7384663">
        <ele>51.5679</ele>
        <time>2013-04-10T18:14:04Z</time>
      </trkpt>
      <trkpt lat="59.9857996" lon="17.7384464">
        <ele>52.0486</ele>
        <time>2013-04-10T18:14:05Z</time>
      </trkpt>
      <trkpt lat="59.9857762" lon="17.7384255">
        <ele>52.0486</ele>
        <time>2013-04-10T18:14:06Z</time>
      </trkpt>
      <trkpt lat="59.9857503" lon="17.7384084">
        <ele>52.0486</ele>
        <time>2013-04-10T18:14:07Z</time>
      </trkpt>
      <trkpt lat="59.9857287" lon="17.7384002">
        <ele>52.5292</ele>
        <time>2013-04-10T18:14:08Z</time>
      </trkpt>
      <trkpt lat="59.9857092" lon="17.7383944">
        <ele>53.4905</ele>
        <time>2013-04-10T18:14:09Z</time>
      </trkpt>
      <trkpt lat="59.9856848" lon="17.7383866">
        <ele>53.0098</ele>
        <time>2013-04-10T18:14:10Z</time>
      </trkpt>
      <trkpt lat="59.9856573" lon="17.7383787">
        <ele>53.0098</ele>
        <time>2013-04-10T18:14:11Z</time>
      </trkpt>
      <trkpt lat="59.985628" lon="17.7383686">
        <ele>53.4905</ele>
        <time>2013-04-10T18:14:12Z</time>
      </trkpt>
      <trkpt lat="59.9856008" lon="17.7383513">
        <ele>53.0098</ele>
        <time>2013-04-10T18:14:13Z</time>
      </trkpt>
      <trkpt lat="59.9855764" lon="17.7383329">
        <ele>53.0098</ele>
        <time>2013-04-10T18:14:14Z</time>
      </trkpt>
      <trkpt lat="59.9855517" lon="17.7383105">
        <ele>53.9712</ele>
        <time>2013-04-10T18:14:15Z</time>
      </trkpt>
      <trkpt lat="59.9855298" lon="17.7382915">
        <ele>53.9712</ele>
        <time>2013-04-10T18:14:16Z</time>
      </trkpt>
      <trkpt lat="59.9855051" lon="17.7382778">
        <ele>54.9324</ele>
        <time>2013-04-10T18:14:17Z</time>
      </trkpt>
      <trkpt lat="59.9854804" lon="17.7382655">
        <ele>55.4131</ele>
        <time>2013-04-10T18:14:18Z</time>
      </trkpt>
      <trkpt lat="59.9854527" lon="17.7382599">
        <ele>56.3745</ele>
        <time>2013-04-10T18:14:19Z</time>
      </trkpt>
      <trkpt lat="59.985423" lon="17.7382554">
        <ele>56.3745</ele>
        <time>2013-04-10T18:14:20Z</time>
      </trkpt>
      <trkpt lat="59.9853936" lon="17.738245">
        <ele>56.3745</ele>
        <time>2013-04-10T18:14:21Z</time>
      </trkpt>
      <trkpt lat="59.9853664" lon="17.7382355">
        <ele>56.3745</ele>
        <time>2013-04-10T18:14:22Z</time>
      </trkpt>
      <trkpt lat="59.9853375" lon="17.7382297">
        <ele>56.3745</ele>
        <time>2013-04-10T18:14:23Z</time>
      </trkpt>
      <trkpt lat="59.9853096" lon="17.7382157">
        <ele>56.8551</ele>
        <time>2013-04-10T18:14:24Z</time>
      </trkpt>
      <trkpt lat="59.9852816" lon="17.7382057">
        <ele>57.3358</ele>
        <time>2013-04-10T18:14:25Z</time>
      </trkpt>
      <trkpt lat="59.9852536" lon="17.7381998">
        <ele>57.3358</ele>
        <time>2013-04-10T18:14:26Z</time>
      </trkpt>
      <trkpt lat="59.9852272" lon="17.7381932">
        <ele>57.8165</ele>
        <time>2013-04-10T18:14:27Z</time>
      </trkpt>
      <trkpt lat="59.9852022" lon="17.7381913">
        <ele>58.2971</ele>
        <time>2013-04-10T18:14:28Z</time>
      </trkpt>
      <trkpt lat="59.9851738" lon="17.7381889">
        <ele>58.2971</ele>
        <time>2013-04-10T18:14:29Z</time>
      </trkpt>
      <trkpt lat="59.9851507" lon="17.7381763">
        <ele>58.7777</ele>
        <time>2013-04-10T18:14:30Z</time>
      </trkpt>
      <trkpt lat="59.9851278" lon="17.7381671">
        <ele>58.7777</ele>
        <time>2013-04-10T18:14:31Z</time>
      </trkpt>
      <trkpt lat="59.9851045" lon="17.7381588">
        <ele>58.2971</ele>
        <time>2013-04-10T18:14:32Z</time>
      </trkpt>
      <trkpt lat="59.985075" lon="17.7381556">
        <ele>58.2971</ele>
        <time>2013-04-10T18:14:33Z</time>
      </trkpt>
      <trkpt lat="59.985046" lon="17.7381502">
        <ele>58.7777</ele>
        <time>2013-04-10T18:14:34Z</time>
      </trkpt>
      <trkpt lat="59.9850165" lon="17.7381479">
        <ele>59.2584</ele>
        <time>2013-04-10T18:14:35Z</time>
      </trkpt>
      <trkpt lat="59.9849914" lon="17.7381466">
        <ele>59.2584</ele>
        <time>2013-04-10T18:14:36Z</time>
      </trkpt>
      <trkpt lat="59.984965" lon="17.7381406">
        <ele>58.7777</ele>
        <time>2013-04-10T18:14:37Z</time>
      </trkpt>
      <trkpt lat="59.9849365" lon="17.7381386">
        <ele>58.2971</ele>
        <time>2013-04-10T18:14:38Z</time>
      </trkpt>
      <trkpt lat="59.9849124" lon="17.7381287">
        <ele>58.2971</ele>
        <time>2013-04-10T18:14:39Z</time>
      </trkpt>
      <trkpt lat="59.9848896" lon="17.7381132">
        <ele>57.8165</ele>
        <time>2013-04-10T18:14:40Z</time>
      </trkpt>
      <trkpt lat="59.9848688" lon="17.7381037">
        <ele>57.8165</ele>
        <time>2013-04-10T18:14:41Z</time>
      </trkpt>
      <trkpt lat="59.9848466" lon="17.7380959">
        <ele>57.8165</ele>
        <time>2013-04-10T18:14:42Z</time>
      </trkpt>
      <trkpt lat="59.9848226" lon="17.7380889">
        <ele>57.8165</ele>
        <time>2013-04-10T18:14:43Z</time>
      </trkpt>
      <trkpt lat="59.9847999" lon="17.7380814">
        <ele>57.3358</ele>
        <time>2013-04-10T18:14:44Z</time>
      </trkpt>
      <trkpt lat="59.9847663" lon="17.73807">
        <ele>57.8165</ele>
        <time>2013-04-10T18:14:45Z</time>
      </trkpt>
      <trkpt lat="59.9847392" lon="17.738056">
        <ele>57.3358</ele>
        <time>2013-04-10T18:14:46Z</time>
      </trkpt>
      <trkpt lat="59.9847072" lon="17.7380503">
        <ele>59.2584</ele>
        <time>2013-04-10T18:14:47Z</time>
      </trkpt>
      <trkpt lat="59.9846802" lon="17.7380381">
        <ele>59.2584</ele>
        <time>2013-04-10T18:14:48Z</time>
      </trkpt>
      <trkpt lat="59.9846528" lon="17.7380286">
        <ele>58.2971</ele>
        <time>2013-04-10T18:14:49Z</time>
      </trkpt>
      <trkpt lat="59.9846156" lon="17.7380339">
        <ele>59.7391</ele>
        <time>2013-04-10T18:14:50Z</time>
      </trkpt>
      <trkpt lat="59.9845864" lon="17.7380348">
        <ele>60.2197</ele>
        <time>2013-04-10T18:14:51Z</time>
      </trkpt>
      <trkpt lat="59.9845568" lon="17.7380293">
        <ele>60.2197</ele>
        <time>2013-04-10T18:14:52Z</time>
      </trkpt>
      <trkpt lat="59.9845278" lon="17.7380272">
        <ele>60.2197</ele>
        <time>2013-04-10T18:14:53Z</time>
      </trkpt>
      <trkpt lat="59.9844947" lon="17.7380252">
        <ele>59.7391</ele>
        <time>2013-04-10T18:14:54Z</time>
      </trkpt>
      <trkpt lat="59.9844605" lon="17.7380235">
        <ele>60.2197</ele>
        <time>2013-04-10T18:14:55Z</time>
      </trkpt>
      <trkpt lat="59.9844332" lon="17.7380195">
        <ele>60.2197</ele>
        <time>2013-04-10T18:14:56Z</time>
      </trkpt>
      <trkpt lat="59.9844092" lon="17.7380111">
        <ele>59.2584</ele>
        <time>2013-04-10T18:14:57Z</time>
      </trkpt>
      <trkpt lat="59.9843805" lon="17.7380085">
        <ele>59.2584</ele>
        <time>2013-04-10T18:14:58Z</time>
      </trkpt>
      <trkpt lat="59.9843513" lon="17.7380151">
        <ele>59.2584</ele>
        <time>2013-04-10T18:14:59Z</time>
      </trkpt>
      <trkpt lat="59.9843211" lon="17.7380194">
        <ele>60.2197</ele>
        <time>2013-04-10T18:15:00Z</time>
      </trkpt>
      <trkpt lat="59.9842933" lon="17.7380104">
        <ele>60.7003</ele>
        <time>2013-04-10T18:15:01Z</time>
      </trkpt>
      <trkpt lat="59.9842695" lon="17.7379998">
        <ele>61.181</ele>
        <time>2013-04-10T18:15:02Z</time>
      </trkpt>
      <trkpt lat="59.9842432" lon="17.7379945">
        <ele>61.6617</ele>
        <time>2013-04-10T18:15:03Z</time>
      </trkpt>
      <trkpt lat="59.9842114" lon="17.7379941">
        <ele>62.1423</ele>
        <time>2013-04-10T18:15:04Z</time>
      </trkpt>
      <trkpt lat="59.9841849" lon="17.7379837">
        <ele>62.1423</ele>
        <time>2013-04-10T18:15:05Z</time>
      </trkpt>
      <trkpt lat="59.9841512" lon="17.7379806">
        <ele>63.5844</ele>
        <time>2013-04-10T18:15:06Z</time>
      </trkpt>
      <trkpt lat="59.984126" lon="17.7379738">
        <ele>63.1036</ele>
        <time>2013-04-10T18:15:07Z</time>
      </trkpt>
      <trkpt lat="59.9841017" lon="17.7379651">
        <ele>63.1036</ele>
        <time>2013-04-10T18:15:08Z</time>
      </trkpt>
      <trkpt lat="59.9840679" lon="17.7379701">
        <ele>64.5457</ele>
        <time>2013-04-10T18:15:09Z</time>
      </trkpt>
      <trkpt lat="59.9840368" lon="17.7379716">
        <ele>65.5071</ele>
        <time>2013-04-10T18:15:10Z</time>
      </trkpt>
      <trkpt lat="59.9840064" lon="17.7379738">
        <ele>66.949</ele>
        <time>2013-04-10T18:15:11Z</time>
      </trkpt>
      <trkpt lat="59.983982" lon="17.7379696">
        <ele>66.4683</ele>
        <time>2013-04-10T18:15:12Z</time>
      </trkpt>
      <trkpt lat="59.9839545" lon="17.7379671">
        <ele>65.5071</ele>
        <time>2013-04-10T18:15:13Z</time>
      </trkpt>
      <trkpt lat="59.9839271" lon="17.737964">
        <ele>65.0264</ele>
        <time>2013-04-10T18:15:14Z</time>
      </trkpt>
      <trkpt lat="59.9839015" lon="17.7379666">
        <ele>64.0651</ele>
        <time>2013-04-10T18:15:15Z</time>
      </trkpt>
      <trkpt lat="59.9838767" lon="17.737971">
        <ele>63.1036</ele>
        <time>2013-04-10T18:15:16Z</time>
      </trkpt>
      <trkpt lat="59.9838546" lon="17.7379749">
        <ele>61.6617</ele>
        <time>2013-04-10T18:15:17Z</time>
      </trkpt>
      <trkpt lat="59.9838331" lon="17.73798">
        <ele>60.7003</ele>
        <time>2013-04-10T18:15:18Z</time>
      </trkpt>
      <trkpt lat="59.9838134" lon="17.7379838">
        <ele>59.2584</ele>
        <time>2013-04-10T18:15:19Z</time>
      </trkpt>
      <trkpt lat="59.9837855" lon="17.7379881">
        <ele>59.7391</ele>
        <time>2013-04-10T18:15:20Z</time>
      </trkpt>
      <trkpt lat="59.9837587" lon="17.7379946">
        <ele>59.7391</ele>
        <time>2013-04-10T18:15:21Z</time>
      </trkpt>
      <trkpt lat="59.9837354" lon="17.7379981">
        <ele>60.2197</ele>
        <time>2013-04-10T18:15:22Z</time>
      </trkpt>
      <trkpt lat="59.9837106" lon="17.7379971">
        <ele>59.7391</ele>
        <time>2013-04-10T18:15:23Z</time>
      </trkpt>
      <trkpt lat="59.9836899" lon="17.7379944">
        <ele>59.2584</ele>
        <time>2013-04-10T18:15:24Z</time>
      </trkpt>
      <trkpt lat="59.9836685" lon="17.7380018">
        <ele>59.7391</ele>
        <time>2013-04-10T18:15:25Z</time>
      </trkpt>
      <trkpt lat="59.9836438" lon="17.7380044">
        <ele>59.7391</ele>
        <time>2013-04-10T18:15:26Z</time>
      </trkpt>
      <trkpt lat="59.9836277" lon="17.737997">
        <ele>59.7391</ele>
        <time>2013-04-10T18:15:27Z</time>
      </trkpt>
      <trkpt lat="59.9836109" lon="17.738">
        <ele>59.2584</ele>
        <time>2013-04-10T18:15:28Z</time>
      </trkpt>
      <trkpt lat="59.9835899" lon="17.7380042">
        <ele>59.2584</ele>
        <time>2013-04-10T18:15:29Z</time>
      </trkpt>
      <trkpt lat="59.9835738" lon="17.738015">
        <ele>58.7777</ele>
        <time>2013-04-10T18:15:30Z</time>
      </trkpt>
      <trkpt lat="59.9835515" lon="17.7380303">
        <ele>58.7777</ele>
        <time>2013-04-10T18:15:31Z</time>
      </trkpt>
      <trkpt lat="59.9835319" lon="17.7380355">
        <ele>58.2971</ele>
        <time>2013-04-10T18:15:32Z</time>
      </trkpt>
      <trkpt lat="59.9835084" lon="17.7380389">
        <ele>58.2971</ele>
        <time>2013-04-10T18:15:33Z</time>
      </trkpt>
      <trkpt lat="59.9834828" lon="17.7380325">
        <ele>58.7777</ele>
        <time>2013-04-10T18:15:34Z</time>
      </trkpt>
      <trkpt lat="59.983464" lon="17.7380302">
        <ele>58.2971</ele>
        <time>2013-04-10T18:15:35Z</time>
      </trkpt>
      <trkpt lat="59.9834422" lon="17.7380355">
        <ele>58.7777</ele>
        <time>2013-04-10T18:15:36Z</time>
      </trkpt>
      <trkpt lat="59.9834194" lon="17.738035">
        <ele>57.8165</ele>
        <time>2013-04-10T18:15:37Z</time>
      </trkpt>
      <trkpt lat="59.983399" lon="17.7380389">
        <ele>57.3358</ele>
        <time>2013-04-10T18:15:38Z</time>
      </trkpt>
      <trkpt lat="59.9833812" lon="17.7380396">
        <ele>56.8551</ele>
        <time>2013-04-10T18:15:39Z</time>
      </trkpt>
      <trkpt lat="59.9833682" lon="17.7380359">
        <ele>54.9324</ele>
        <time>2013-04-10T18:15:40Z</time>
      </trkpt>
      <trkpt lat="59.9833484" lon="17.7380349">
        <ele>54.4518</ele>
        <time>2013-04-10T18:15:41Z</time>
      </trkpt>
      <trkpt lat="59.9833252" lon="17.7380323">
        <ele>53.4905</ele>
        <time>2013-04-10T18:15:42Z</time>
      </trkpt>
      <trkpt lat="59.9832986" lon="17.7380355">
        <ele>53.4905</ele>
        <time>2013-04-10T18:15:43Z</time>
      </trkpt>
      <trkpt lat="59.983269" lon="17.7380487">
        <ele>52.5292</ele>
        <time>2013-04-10T18:15:44Z</time>
      </trkpt>
      <trkpt lat="59.9832393" lon="17.7380572">
        <ele>51.0872</ele>
        <time>2013-04-10T18:15:45Z</time>
      </trkpt>
      <trkpt lat="59.9832123" lon="17.7380663">
        <ele>50.6066</ele>
        <time>2013-04-10T18:15:46Z</time>
      </trkpt>
      <trkpt lat="59.9831905" lon="17.7380717">
        <ele>50.126</ele>
        <time>2013-04-10T18:15:47Z</time>
      </trkpt>
      <trkpt lat="59.9831749" lon="17.7380677">
        <ele>49.1646</ele>
        <time>2013-04-10T18:15:48Z</time>
      </trkpt>
      <trkpt lat="59.9831545" lon="17.7380634">
        <ele>49.1646</ele>
        <time>2013-04-10T18:15:49Z</time>
      </trkpt>
      <trkpt lat="59.9831339" lon="17.7380592">
        <ele>48.2034</ele>
        <time>2013-04-10T18:15:50Z</time>
      </trkpt>
      <trkpt lat="59.9831088" lon="17.7380639">
        <ele>47.7225</ele>
        <time>2013-04-10T18:15:51Z</time>
      </trkpt>
      <trkpt lat="59.9830761" lon="17.7380784">
        <ele>48.2034</ele>
        <time>2013-04-10T18:15:52Z</time>
      </trkpt>
      <trkpt lat="59.9830403" lon="17.738096">
        <ele>48.684</ele>
        <time>2013-04-10T18:15:53Z</time>
      </trkpt>
      <trkpt lat="59.9830076" lon="17.7381136">
        <ele>48.2034</ele>
        <time>2013-04-10T18:15:54Z</time>
      </trkpt>
      <trkpt lat="59.9829779" lon="17.7381271">
        <ele>48.2034</ele>
        <time>2013-04-10T18:15:55Z</time>
      </trkpt>
      <trkpt lat="59.9829492" lon="17.7381287">
        <ele>48.684</ele>
        <time>2013-04-10T18:15:56Z</time>
      </trkpt>
      <trkpt lat="59.9829232" lon="17.7381251">
        <ele>49.1646</ele>
        <time>2013-04-10T18:15:57Z</time>
      </trkpt>
      <trkpt lat="59.9828977" lon="17.7381157">
        <ele>48.2034</ele>
        <time>2013-04-10T18:15:58Z</time>
      </trkpt>
      <trkpt lat="59.9828719" lon="17.738106">
        <ele>48.2034</ele>
        <time>2013-04-10T18:15:59Z</time>
      </trkpt>
      <trkpt lat="59.9828496" lon="17.7381023">
        <ele>47.7225</ele>
        <time>2013-04-10T18:16:00Z</time>
      </trkpt>
      <trkpt lat="59.9828288" lon="17.738093">
        <ele>47.2418</ele>
        <time>2013-04-10T18:16:01Z</time>
      </trkpt>
      <trkpt lat="59.9828056" lon="17.7380803">
        <ele>46.7612</ele>
        <time>2013-04-10T18:16:02Z</time>
      </trkpt>
      <trkpt lat="59.9827792" lon="17.7380762">
        <ele>47.2418</ele>
        <time>2013-04-10T18:16:03Z</time>
      </trkpt>
      <trkpt lat="59.9827507" lon="17.738072">
        <ele>48.684</ele>
        <time>2013-04-10T18:16:04Z</time>
      </trkpt>
      <trkpt lat="59.9827207" lon="17.7380712">
        <ele>50.126</ele>
        <time>2013-04-10T18:16:05Z</time>
      </trkpt>
      <trkpt lat="59.9826952" lon="17.73807">
        <ele>50.6066</ele>
        <time>2013-04-10T18:16:06Z</time>
      </trkpt>
      <trkpt lat="59.9826707" lon="17.7380677">
        <ele>50.6066</ele>
        <time>2013-04-10T18:16:07Z</time>
      </trkpt>
      <trkpt lat="59.9826484" lon="17.7380603">
        <ele>50.126</ele>
        <time>2013-04-10T18:16:08Z</time>
      </trkpt>
      <trkpt lat="59.9826267" lon="17.7380546">
        <ele>49.6453</ele>
        <time>2013-04-10T18:16:09Z</time>
      </trkpt>
      <trkpt lat="59.982606" lon="17.7380472">
        <ele>49.1646</ele>
        <time>2013-04-10T18:16:10Z</time>
      </trkpt>
      <trkpt lat="59.9825823" lon="17.7380401">
        <ele>49.1646</ele>
        <time>2013-04-10T18:16:11Z</time>
      </trkpt>
      <trkpt lat="59.9825552" lon="17.7380354">
        <ele>49.1646</ele>
        <time>2013-04-10T18:16:12Z</time>
      </trkpt>
      <trkpt lat="59.9825314" lon="17.7380333">
        <ele>49.1646</ele>
        <time>2013-04-10T18:16:13Z</time>
      </trkpt>
      <trkpt lat="59.9825077" lon="17.7380328">
        <ele>49.1646</ele>
        <time>2013-04-10T18:16:14Z</time>
      </trkpt>
      <trkpt lat="59.9824844" lon="17.7380282">
        <ele>48.684</ele>
        <time>2013-04-10T18:16:15Z</time>
      </trkpt>
      <trkpt lat="59.9824615" lon="17.7380257">
        <ele>48.684</ele>
        <time>2013-04-10T18:16:16Z</time>
      </trkpt>
      <trkpt lat="59.9824376" lon="17.7380317">
        <ele>48.684</ele>
        <time>2013-04-10T18:16:17Z</time>
      </trkpt>
      <trkpt lat="59.9824138" lon="17.7380349">
        <ele>48.684</ele>
        <time>2013-04-10T18:16:18Z</time>
      </trkpt>
      <trkpt lat="59.9823918" lon="17.7380355">
        <ele>48.684</ele>
        <time>2013-04-10T18:16:19Z</time>
      </trkpt>
      <trkpt lat="59.9823637" lon="17.7380379">
        <ele>48.684</ele>
        <time>2013-04-10T18:16:20Z</time>
      </trkpt>
      <trkpt lat="59.9823337" lon="17.7380463">
        <ele>48.684</ele>
        <time>2013-04-10T18:16:21Z</time>
      </trkpt>
      <trkpt lat="59.9823069" lon="17.7380536">
        <ele>48.2034</ele>
        <time>2013-04-10T18:16:22Z</time>
      </trkpt>
      <trkpt lat="59.9822809" lon="17.7380581">
        <ele>48.2034</ele>
        <time>2013-04-10T18:16:23Z</time>
      </trkpt>
      <trkpt lat="59.9822565" lon="17.7380697">
        <ele>47.7225</ele>
        <time>2013-04-10T18:16:24Z</time>
      </trkpt>
      <trkpt lat="59.9822322" lon="17.7380851">
        <ele>48.2034</ele>
        <time>2013-04-10T18:16:25Z</time>
      </trkpt>
      <trkpt lat="59.9822124" lon="17.7381006">
        <ele>48.684</ele>
        <time>2013-04-10T18:16:26Z</time>
      </trkpt>
      <trkpt lat="59.9821921" lon="17.7381112">
        <ele>48.684</ele>
        <time>2013-04-10T18:16:27Z</time>
      </trkpt>
      <trkpt lat="59.9821638" lon="17.7381208">
        <ele>48.684</ele>
        <time>2013-04-10T18:16:28Z</time>
      </trkpt>
      <trkpt lat="59.9821356" lon="17.7381303">
        <ele>49.6453</ele>
        <time>2013-04-10T18:16:29Z</time>
      </trkpt>
      <trkpt lat="59.9821129" lon="17.7381373">
        <ele>49.1646</ele>
        <time>2013-04-10T18:16:30Z</time>
      </trkpt>
      <trkpt lat="59.9820891" lon="17.7381414">
        <ele>49.6453</ele>
        <time>2013-04-10T18:16:31Z</time>
      </trkpt>
      <trkpt lat="59.9820669" lon="17.738151">
        <ele>49.6453</ele>
        <time>2013-04-10T18:16:32Z</time>
      </trkpt>
      <trkpt lat="59.9820411" lon="17.7381691">
        <ele>49.6453</ele>
        <time>2013-04-10T18:16:33Z</time>
      </trkpt>
      <trkpt lat="59.9820181" lon="17.7381789">
        <ele>48.684</ele>
        <time>2013-04-10T18:16:34Z</time>
      </trkpt>
      <trkpt lat="59.9819949" lon="17.7381892">
        <ele>48.684</ele>
        <time>2013-04-10T18:16:35Z</time>
      </trkpt>
      <trkpt lat="59.981975" lon="17.7381954">
        <ele>48.2034</ele>
        <time>2013-04-10T18:16:36Z</time>
      </trkpt>
      <trkpt lat="59.9819569" lon="17.7381981">
        <ele>48.2034</ele>
        <time>2013-04-10T18:16:37Z</time>
      </trkpt>
      <trkpt lat="59.9819373" lon="17.7382116">
        <ele>47.7225</ele>
        <time>2013-04-10T18:16:38Z</time>
      </trkpt>
      <trkpt lat="59.9819172" lon="17.7382219">
        <ele>47.7225</ele>
        <time>2013-04-10T18:16:39Z</time>
      </trkpt>
      <trkpt lat="59.9818965" lon="17.7382252">
        <ele>47.2418</ele>
        <time>2013-04-10T18:16:40Z</time>
      </trkpt>
      <trkpt lat="59.9818753" lon="17.7382426">
        <ele>46.7612</ele>
        <time>2013-04-10T18:16:41Z</time>
      </trkpt>
      <trkpt lat="59.9818561" lon="17.7382603">
        <ele>46.2806</ele>
        <time>2013-04-10T18:16:42Z</time>
      </trkpt>
      <trkpt lat="59.9818354" lon="17.7382681">
        <ele>45.3192</ele>
        <time>2013-04-10T18:16:43Z</time>
      </trkpt>
      <trkpt lat="59.9818148" lon="17.7382766">
        <ele>45.3192</ele>
        <time>2013-04-10T18:16:44Z</time>
      </trkpt>
      <trkpt lat="59.981793" lon="17.7382927">
        <ele>45.3192</ele>
        <time>2013-04-10T18:16:45Z</time>
      </trkpt>
      <trkpt lat="59.9817695" lon="17.7383067">
        <ele>45.3192</ele>
        <time>2013-04-10T18:16:46Z</time>
      </trkpt>
      <trkpt lat="59.9817428" lon="17.7383199">
        <ele>45.7999</ele>
        <time>2013-04-10T18:16:47Z</time>
      </trkpt>
      <trkpt lat="59.9817141" lon="17.738338">
        <ele>45.7999</ele>
        <time>2013-04-10T18:16:48Z</time>
      </trkpt>
      <trkpt lat="59.9816888" lon="17.7383499">
        <ele>45.7999</ele>
        <time>2013-04-10T18:16:49Z</time>
      </trkpt>
      <trkpt lat="59.9816627" lon="17.7383555">
        <ele>45.3192</ele>
        <time>2013-04-10T18:16:50Z</time>
      </trkpt>
      <trkpt lat="59.9816339" lon="17.7383665">
        <ele>45.3192</ele>
        <time>2013-04-10T18:16:51Z</time>
      </trkpt>
      <trkpt lat="59.9816054" lon="17.7383819">
        <ele>46.2806</ele>
        <time>2013-04-10T18:16:52Z</time>
      </trkpt>
      <trkpt lat="59.9815783" lon="17.7383893">
        <ele>46.2806</ele>
        <time>2013-04-10T18:16:53Z</time>
      </trkpt>
      <trkpt lat="59.9815526" lon="17.7383991">
        <ele>45.7999</ele>
        <time>2013-04-10T18:16:54Z</time>
      </trkpt>
      <trkpt lat="59.9815255" lon="17.7384129">
        <ele>46.2806</ele>
        <time>2013-04-10T18:16:55Z</time>
      </trkpt>
      <trkpt lat="59.9814986" lon="17.7384197">
        <ele>46.2806</ele>
        <time>2013-04-10T18:16:56Z</time>
      </trkpt>
      <trkpt lat="59.9814729" lon="17.7384295">
        <ele>46.7612</ele>
        <time>2013-04-10T18:16:57Z</time>
      </trkpt>
      <trkpt lat="59.9814501" lon="17.7384383">
        <ele>47.2418</ele>
        <time>2013-04-10T18:16:58Z</time>
      </trkpt>
      <trkpt lat="59.981428" lon="17.738445">
        <ele>47.2418</ele>
        <time>2013-04-10T18:16:59Z</time>
      </trkpt>
      <trkpt lat="59.9814016" lon="17.7384606">
        <ele>48.2034</ele>
        <time>2013-04-10T18:17:00Z</time>
      </trkpt>
      <trkpt lat="59.9813772" lon="17.7384719">
        <ele>48.2034</ele>
        <time>2013-04-10T18:17:01Z</time>
      </trkpt>
      <trkpt lat="59.981349" lon="17.7384831">
        <ele>48.2034</ele>
        <time>2013-04-10T18:17:02Z</time>
      </trkpt>
      <trkpt lat="59.9813177" lon="17.7384934">
        <ele>48.2034</ele>
        <time>2013-04-10T18:17:03Z</time>
      </trkpt>
      <trkpt lat="59.9812926" lon="17.7385015">
        <ele>47.7225</ele>
        <time>2013-04-10T18:17:04Z</time>
      </trkpt>
      <trkpt lat="59.9812651" lon="17.7385196">
        <ele>47.7225</ele>
        <time>2013-04-10T18:17:05Z</time>
      </trkpt>
      <trkpt lat="59.9812363" lon="17.7385389">
        <ele>47.7225</ele>
        <time>2013-04-10T18:17:06Z</time>
      </trkpt>
      <trkpt lat="59.9812112" lon="17.7385523">
        <ele>48.2034</ele>
        <time>2013-04-10T18:17:07Z</time>
      </trkpt>
      <trkpt lat="59.9811909" lon="17.7385618">
        <ele>48.2034</ele>
        <time>2013-04-10T18:17:08Z</time>
      </trkpt>
      <trkpt lat="59.9811727" lon="17.7385686">
        <ele>48.2034</ele>
        <time>2013-04-10T18:17:09Z</time>
      </trkpt>
      <trkpt lat="59.9811516" lon="17.738572">
        <ele>48.2034</ele>
        <time>2013-04-10T18:17:10Z</time>
      </trkpt>
      <trkpt lat="59.9811293" lon="17.7385752">
        <ele>47.7225</ele>
        <time>2013-04-10T18:17:11Z</time>
      </trkpt>
      <trkpt lat="59.9811008" lon="17.738584">
        <ele>48.2034</ele>
        <time>2013-04-10T18:17:12Z</time>
      </trkpt>
      <trkpt lat="59.9810722" lon="17.7385968">
        <ele>48.2034</ele>
        <time>2013-04-10T18:17:13Z</time>
      </trkpt>
      <trkpt lat="59.9810464" lon="17.7386074">
        <ele>48.2034</ele>
        <time>2013-04-10T18:17:14Z</time>
      </trkpt>
      <trkpt lat="59.9810234" lon="17.7386092">
        <ele>47.7225</ele>
        <time>2013-04-10T18:17:15Z</time>
      </trkpt>
      <trkpt lat="59.9809993" lon="17.7386123">
        <ele>47.7225</ele>
        <time>2013-04-10T18:17:16Z</time>
      </trkpt>
      <trkpt lat="59.9809743" lon="17.7386206">
        <ele>47.7225</ele>
        <time>2013-04-10T18:17:17Z</time>
      </trkpt>
      <trkpt lat="59.980948" lon="17.7386294">
        <ele>47.2418</ele>
        <time>2013-04-10T18:17:18Z</time>
      </trkpt>
      <trkpt lat="59.980924" lon="17.7386334">
        <ele>47.2418</ele>
        <time>2013-04-10T18:17:19Z</time>
      </trkpt>
      <trkpt lat="59.9809034" lon="17.7386379">
        <ele>46.7612</ele>
        <time>2013-04-10T18:17:20Z</time>
      </trkpt>
      <trkpt lat="59.9808817" lon="17.7386422">
        <ele>46.2806</ele>
        <time>2013-04-10T18:17:21Z</time>
      </trkpt>
      <trkpt lat="59.9808589" lon="17.7386431">
        <ele>46.7612</ele>
        <time>2013-04-10T18:17:22Z</time>
      </trkpt>
      <trkpt lat="59.9808386" lon="17.7386497">
        <ele>46.7612</ele>
        <time>2013-04-10T18:17:23Z</time>
      </trkpt>
      <trkpt lat="59.9808166" lon="17.7386637">
        <ele>47.2418</ele>
        <time>2013-04-10T18:17:24Z</time>
      </trkpt>
      <trkpt lat="59.9807953" lon="17.7386677">
        <ele>47.2418</ele>
        <time>2013-04-10T18:17:25Z</time>
      </trkpt>
      <trkpt lat="59.9807703" lon="17.7386717">
        <ele>47.2418</ele>
        <time>2013-04-10T18:17:26Z</time>
      </trkpt>
      <trkpt lat="59.9807391" lon="17.7386776">
        <ele>47.2418</ele>
        <time>2013-04-10T18:17:27Z</time>
      </trkpt>
      <trkpt lat="59.980713" lon="17.7386793">
        <ele>46.7612</ele>
        <time>2013-04-10T18:17:28Z</time>
      </trkpt>
      <trkpt lat="59.9806911" lon="17.7386869">
        <ele>46.2806</ele>
        <time>2013-04-10T18:17:29Z</time>
      </trkpt>
      <trkpt lat="59.9806671" lon="17.738695">
        <ele>46.2806</ele>
        <time>2013-04-10T18:17:30Z</time>
      </trkpt>
      <trkpt lat="59.9806448" lon="17.7387001">
        <ele>46.2806</ele>
        <time>2013-04-10T18:17:31Z</time>
      </trkpt>
      <trkpt lat="59.9806243" lon="17.7387074">
        <ele>46.2806</ele>
        <time>2013-04-10T18:17:32Z</time>
      </trkpt>
      <trkpt lat="59.9806005" lon="17.7387135">
        <ele>46.2806</ele>
        <time>2013-04-10T18:17:33Z</time>
      </trkpt>
      <trkpt lat="59.9805751" lon="17.7387142">
        <ele>46.2806</ele>
        <time>2013-04-10T18:17:34Z</time>
      </trkpt>
      <trkpt lat="59.9805474" lon="17.7387191">
        <ele>45.7999</ele>
        <time>2013-04-10T18:17:35Z</time>
      </trkpt>
      <trkpt lat="59.9805216" lon="17.73873">
        <ele>45.3192</ele>
        <time>2013-04-10T18:17:36Z</time>
      </trkpt>
      <trkpt lat="59.9804979" lon="17.7387352">
        <ele>44.8386</ele>
        <time>2013-04-10T18:17:37Z</time>
      </trkpt>
      <trkpt lat="59.980476" lon="17.7387321">
        <ele>44.358</ele>
        <time>2013-04-10T18:17:38Z</time>
      </trkpt>
      <trkpt lat="59.9804553" lon="17.7387229">
        <ele>43.8773</ele>
        <time>2013-04-10T18:17:39Z</time>
      </trkpt>
      <trkpt lat="59.980434" lon="17.7387183">
        <ele>43.3966</ele>
        <time>2013-04-10T18:17:40Z</time>
      </trkpt>
      <trkpt lat="59.9804112" lon="17.7387146">
        <ele>42.916</ele>
        <time>2013-04-10T18:17:41Z</time>
      </trkpt>
      <trkpt lat="59.9803906" lon="17.7387126">
        <ele>42.916</ele>
        <time>2013-04-10T18:17:42Z</time>
      </trkpt>
      <trkpt lat="59.9803684" lon="17.7387079">
        <ele>42.916</ele>
        <time>2013-04-10T18:17:43Z</time>
      </trkpt>
      <trkpt lat="59.9803446" lon="17.7387012">
        <ele>43.3966</ele>
        <time>2013-04-10T18:17:44Z</time>
      </trkpt>
      <trkpt lat="59.9803221" lon="17.738695">
        <ele>43.3966</ele>
        <time>2013-04-10T18:17:45Z</time>
      </trkpt>
      <trkpt lat="59.9802978" lon="17.7386952">
        <ele>43.8773</ele>
        <time>2013-04-10T18:17:46Z</time>
      </trkpt>
      <trkpt lat="59.9802741" lon="17.7386944">
        <ele>43.3966</ele>
        <time>2013-04-10T18:17:47Z</time>
      </trkpt>
      <trkpt lat="59.9802503" lon="17.7386958">
        <ele>42.916</ele>
        <time>2013-04-10T18:17:48Z</time>
      </trkpt>
      <trkpt lat="59.9802238" lon="17.7387015">
        <ele>43.3966</ele>
        <time>2013-04-10T18:17:49Z</time>
      </trkpt>
      <trkpt lat="59.9801941" lon="17.7387054">
        <ele>43.8773</ele>
        <time>2013-04-10T18:17:50Z</time>
      </trkpt>
      <trkpt lat="59.9801576" lon="17.738716">
        <ele>45.3192</ele>
        <time>2013-04-10T18:17:51Z</time>
      </trkpt>
      <trkpt lat="59.9801341" lon="17.7387084">
        <ele>44.8386</ele>
        <time>2013-04-10T18:17:52Z</time>
      </trkpt>
      <trkpt lat="59.9801063" lon="17.7387104">
        <ele>45.3192</ele>
        <time>2013-04-10T18:17:53Z</time>
      </trkpt>
      <trkpt lat="59.9800817" lon="17.7387135">
        <ele>44.8386</ele>
        <time>2013-04-10T18:17:54Z</time>
      </trkpt>
      <trkpt lat="59.9800572" lon="17.7387154">
        <ele>44.8386</ele>
        <time>2013-04-10T18:17:55Z</time>
      </trkpt>
      <trkpt lat="59.9800304" lon="17.7387197">
        <ele>44.358</ele>
        <time>2013-04-10T18:17:56Z</time>
      </trkpt>
      <trkpt lat="59.9800037" lon="17.738726">
        <ele>43.8773</ele>
        <time>2013-04-10T18:17:57Z</time>
      </trkpt>
      <trkpt lat="59.9799779" lon="17.7387266">
        <ele>43.8773</ele>
        <time>2013-04-10T18:17:58Z</time>
      </trkpt>
      <trkpt lat="59.9799545" lon="17.738725">
        <ele>43.8773</ele>
        <time>2013-04-10T18:17:59Z</time>
      </trkpt>
      <trkpt lat="59.9799289" lon="17.7387342">
        <ele>44.358</ele>
        <time>2013-04-10T18:18:00Z</time>
      </trkpt>
      <trkpt lat="59.9798978" lon="17.7387441">
        <ele>44.8386</ele>
        <time>2013-04-10T18:18:01Z</time>
      </trkpt>
      <trkpt lat="59.9798603" lon="17.7387511">
        <ele>46.2806</ele>
        <time>2013-04-10T18:18:02Z</time>
      </trkpt>
      <trkpt lat="59.9798306" lon="17.7387451">
        <ele>45.7999</ele>
        <time>2013-04-10T18:18:03Z</time>
      </trkpt>
      <trkpt lat="59.9798097" lon="17.7387352">
        <ele>44.8386</ele>
        <time>2013-04-10T18:18:04Z</time>
      </trkpt>
      <trkpt lat="59.9797902" lon="17.738731">
        <ele>43.8773</ele>
        <time>2013-04-10T18:18:05Z</time>
      </trkpt>
      <trkpt lat="59.9797431" lon="17.7387457">
        <ele>44.358</ele>
        <time>2013-04-10T18:18:07Z</time>
      </trkpt>
      <trkpt lat="59.9797188" lon="17.7387607">
        <ele>43.8773</ele>
        <time>2013-04-10T18:18:08Z</time>
      </trkpt>
      <trkpt lat="59.979697" lon="17.7387726">
        <ele>42.916</ele>
        <time>2013-04-10T18:18:09Z</time>
      </trkpt>
      <trkpt lat="59.9796761" lon="17.7387856">
        <ele>42.4354</ele>
        <time>2013-04-10T18:18:10Z</time>
      </trkpt>
      <trkpt lat="59.979652" lon="17.7388099">
        <ele>41.9547</ele>
        <time>2013-04-10T18:18:11Z</time>
      </trkpt>
      <trkpt lat="59.9796272" lon="17.7388325">
        <ele>41.474</ele>
        <time>2013-04-10T18:18:12Z</time>
      </trkpt>
      <trkpt lat="59.9796018" lon="17.7388524">
        <ele>41.474</ele>
        <time>2013-04-10T18:18:13Z</time>
      </trkpt>
      <trkpt lat="59.9795803" lon="17.7388669">
        <ele>40.5128</ele>
        <time>2013-04-10T18:18:14Z</time>
      </trkpt>
      <trkpt lat="59.9795603" lon="17.7388739">
        <ele>40.0321</ele>
        <time>2013-04-10T18:18:15Z</time>
      </trkpt>
      <trkpt lat="59.9795402" lon="17.7388792">
        <ele>39.5513</ele>
        <time>2013-04-10T18:18:16Z</time>
      </trkpt>
      <trkpt lat="59.9795168" lon="17.7388943">
        <ele>38.5901</ele>
        <time>2013-04-10T18:18:17Z</time>
      </trkpt>
      <trkpt lat="59.9794946" lon="17.7389105">
        <ele>38.5901</ele>
        <time>2013-04-10T18:18:18Z</time>
      </trkpt>
      <trkpt lat="59.9794721" lon="17.7389233">
        <ele>38.1094</ele>
        <time>2013-04-10T18:18:19Z</time>
      </trkpt>
      <trkpt lat="59.9794497" lon="17.7389381">
        <ele>37.6287</ele>
        <time>2013-04-10T18:18:20Z</time>
      </trkpt>
      <trkpt lat="59.9794275" lon="17.7389611">
        <ele>37.6287</ele>
        <time>2013-04-10T18:18:21Z</time>
      </trkpt>
      <trkpt lat="59.9794032" lon="17.7389902">
        <ele>37.6287</ele>
        <time>2013-04-10T18:18:22Z</time>
      </trkpt>
      <trkpt lat="59.9793777" lon="17.7390161">
        <ele>37.1481</ele>
        <time>2013-04-10T18:18:23Z</time>
      </trkpt>
      <trkpt lat="59.9793524" lon="17.7390378">
        <ele>37.1481</ele>
        <time>2013-04-10T18:18:24Z</time>
      </trkpt>
      <trkpt lat="59.9793282" lon="17.7390562">
        <ele>37.1481</ele>
        <time>2013-04-10T18:18:25Z</time>
      </trkpt>
      <trkpt lat="59.9793016" lon="17.7390737">
        <ele>37.6287</ele>
        <time>2013-04-10T18:18:26Z</time>
      </trkpt>
      <trkpt lat="59.9792747" lon="17.7390879">
        <ele>37.1481</ele>
        <time>2013-04-10T18:18:27Z</time>
      </trkpt>
      <trkpt lat="59.9792491" lon="17.7391021">
        <ele>37.1481</ele>
        <time>2013-04-10T18:18:28Z</time>
      </trkpt>
      <trkpt lat="59.9792265" lon="17.7391153">
        <ele>37.6287</ele>
        <time>2013-04-10T18:18:29Z</time>
      </trkpt>
      <trkpt lat="59.9792012" lon="17.7391316">
        <ele>37.6287</ele>
        <time>2013-04-10T18:18:30Z</time>
      </trkpt>
      <trkpt lat="59.9791755" lon="17.7391486">
        <ele>37.6287</ele>
        <time>2013-04-10T18:18:31Z</time>
      </trkpt>
      <trkpt lat="59.9791499" lon="17.7391647">
        <ele>37.6287</ele>
        <time>2013-04-10T18:18:32Z</time>
      </trkpt>
      <trkpt lat="59.979122" lon="17.7391828">
        <ele>37.6287</ele>
        <time>2013-04-10T18:18:33Z</time>
      </trkpt>
      <trkpt lat="59.9790954" lon="17.739202">
        <ele>37.6287</ele>
        <time>2013-04-10T18:18:34Z</time>
      </trkpt>
      <trkpt lat="59.9790719" lon="17.739216">
        <ele>38.1094</ele>
        <time>2013-04-10T18:18:35Z</time>
      </trkpt>
      <trkpt lat="59.9790493" lon="17.7392278">
        <ele>38.1094</ele>
        <time>2013-04-10T18:18:36Z</time>
      </trkpt>
      <trkpt lat="59.979024" lon="17.7392377">
        <ele>38.1094</ele>
        <time>2013-04-10T18:18:37Z</time>
      </trkpt>
      <trkpt lat="59.9789956" lon="17.7392486">
        <ele>38.1094</ele>
        <time>2013-04-10T18:18:38Z</time>
      </trkpt>
      <trkpt lat="59.9789671" lon="17.739259">
        <ele>38.1094</ele>
        <time>2013-04-10T18:18:39Z</time>
      </trkpt>
      <trkpt lat="59.9789401" lon="17.7392704">
        <ele>38.1094</ele>
        <time>2013-04-10T18:18:40Z</time>
      </trkpt>
      <trkpt lat="59.9789158" lon="17.7392859">
        <ele>38.1094</ele>
        <time>2013-04-10T18:18:41Z</time>
      </trkpt>
      <trkpt lat="59.9788915" lon="17.7392963">
        <ele>38.1094</ele>
        <time>2013-04-10T18:18:42Z</time>
      </trkpt>
      <trkpt lat="59.9788681" lon="17.7393015">
        <ele>37.6287</ele>
        <time>2013-04-10T18:18:43Z</time>
      </trkpt>
      <trkpt lat="59.9788458" lon="17.7393096">
        <ele>37.6287</ele>
        <time>2013-04-10T18:18:44Z</time>
      </trkpt>
      <trkpt lat="59.9788217" lon="17.7393144">
        <ele>37.6287</ele>
        <time>2013-04-10T18:18:45Z</time>
      </trkpt>
      <trkpt lat="59.9787968" lon="17.7393184">
        <ele>37.6287</ele>
        <time>2013-04-10T18:18:46Z</time>
      </trkpt>
      <trkpt lat="59.9787738" lon="17.7393173">
        <ele>37.1481</ele>
        <time>2013-04-10T18:18:47Z</time>
      </trkpt>
      <trkpt lat="59.9787465" lon="17.739318">
        <ele>37.6287</ele>
        <time>2013-04-10T18:18:48Z</time>
      </trkpt>
      <trkpt lat="59.9787222" lon="17.7393116">
        <ele>37.6287</ele>
        <time>2013-04-10T18:18:49Z</time>
      </trkpt>
      <trkpt lat="59.9787008" lon="17.7393061">
        <ele>37.6287</ele>
        <time>2013-04-10T18:18:50Z</time>
      </trkpt>
      <trkpt lat="59.9786729" lon="17.7393085">
        <ele>38.1094</ele>
        <time>2013-04-10T18:18:51Z</time>
      </trkpt>
      <trkpt lat="59.9786484" lon="17.7393086">
        <ele>37.6287</ele>
        <time>2013-04-10T18:18:52Z</time>
      </trkpt>
      <trkpt lat="59.9786284" lon="17.7393046">
        <ele>37.6287</ele>
        <time>2013-04-10T18:18:53Z</time>
      </trkpt>
      <trkpt lat="59.9786046" lon="17.7393">
        <ele>38.1094</ele>
        <time>2013-04-10T18:18:54Z</time>
      </trkpt>
      <trkpt lat="59.978581" lon="17.7392937">
        <ele>38.1094</ele>
        <time>2013-04-10T18:18:55Z</time>
      </trkpt>
      <trkpt lat="59.978558" lon="17.73929">
        <ele>38.5901</ele>
        <time>2013-04-10T18:18:56Z</time>
      </trkpt>
      <trkpt lat="59.9785372" lon="17.7392842">
        <ele>38.5901</ele>
        <time>2013-04-10T18:18:57Z</time>
      </trkpt>
      <trkpt lat="59.978516" lon="17.7392795">
        <ele>38.1094</ele>
        <time>2013-04-10T18:18:58Z</time>
      </trkpt>
      <trkpt lat="59.9784927" lon="17.739278">
        <ele>38.5901</ele>
        <time>2013-04-10T18:18:59Z</time>
      </trkpt>
      <trkpt lat="59.9784689" lon="17.7392754">
        <ele>38.1094</ele>
        <time>2013-04-10T18:19:00Z</time>
      </trkpt>
      <trkpt lat="59.9784471" lon="17.7392707">
        <ele>38.1094</ele>
        <time>2013-04-10T18:19:01Z</time>
      </trkpt>
      <trkpt lat="59.9784232" lon="17.7392698">
        <ele>37.6287</ele>
        <time>2013-04-10T18:19:02Z</time>
      </trkpt>
      <trkpt lat="59.9783953" lon="17.7392731">
        <ele>38.1094</ele>
        <time>2013-04-10T18:19:03Z</time>
      </trkpt>
      <trkpt lat="59.9783702" lon="17.7392743">
        <ele>38.5901</ele>
        <time>2013-04-10T18:19:04Z</time>
      </trkpt>
      <trkpt lat="59.9783486" lon="17.7392671">
        <ele>38.1094</ele>
        <time>2013-04-10T18:19:05Z</time>
      </trkpt>
      <trkpt lat="59.9783243" lon="17.7392585">
        <ele>38.1094</ele>
        <time>2013-04-10T18:19:06Z</time>
      </trkpt>
      <trkpt lat="59.9783003" lon="17.7392533">
        <ele>38.1094</ele>
        <time>2013-04-10T18:19:07Z</time>
      </trkpt>
      <trkpt lat="59.9782795" lon="17.739247">
        <ele>38.1094</ele>
        <time>2013-04-10T18:19:08Z</time>
      </trkpt>
      <trkpt lat="59.97826" lon="17.7392372">
        <ele>37.6287</ele>
        <time>2013-04-10T18:19:09Z</time>
      </trkpt>
      <trkpt lat="59.9782363" lon="17.739226">
        <ele>38.1094</ele>
        <time>2013-04-10T18:19:10Z</time>
      </trkpt>
      <trkpt lat="59.9782114" lon="17.7392283">
        <ele>38.1094</ele>
        <time>2013-04-10T18:19:11Z</time>
      </trkpt>
      <trkpt lat="59.9781874" lon="17.7392284">
        <ele>38.1094</ele>
        <time>2013-04-10T18:19:12Z</time>
      </trkpt>
      <trkpt lat="59.9781637" lon="17.7392177">
        <ele>38.1094</ele>
        <time>2013-04-10T18:19:13Z</time>
      </trkpt>
      <trkpt lat="59.9781393" lon="17.7392101">
        <ele>38.1094</ele>
        <time>2013-04-10T18:19:14Z</time>
      </trkpt>
      <trkpt lat="59.9781138" lon="17.7392028">
        <ele>38.1094</ele>
        <time>2013-04-10T18:19:15Z</time>
      </trkpt>
      <trkpt lat="59.97809" lon="17.7391906">
        <ele>38.5901</ele>
        <time>2013-04-10T18:19:16Z</time>
      </trkpt>
      <trkpt lat="59.978068" lon="17.7391809">
        <ele>38.5901</ele>
        <time>2013-04-10T18:19:17Z</time>
      </trkpt>
      <trkpt lat="59.9780434" lon="17.7391769">
        <ele>38.5901</ele>
        <time>2013-04-10T18:19:18Z</time>
      </trkpt>
      <trkpt lat="59.9780136" lon="17.739173">
        <ele>40.0321</ele>
        <time>2013-04-10T18:19:19Z</time>
      </trkpt>
      <trkpt lat="59.9779871" lon="17.7391653">
        <ele>40.9934</ele>
        <time>2013-04-10T18:19:20Z</time>
      </trkpt>
      <trkpt lat="59.9779648" lon="17.7391569">
        <ele>40.9934</ele>
        <time>2013-04-10T18:19:21Z</time>
      </trkpt>
      <trkpt lat="59.977941" lon="17.7391445">
        <ele>41.474</ele>
        <time>2013-04-10T18:19:22Z</time>
      </trkpt>
      <trkpt lat="59.9779192" lon="17.7391284">
        <ele>40.9934</ele>
        <time>2013-04-10T18:19:23Z</time>
      </trkpt>
      <trkpt lat="59.9778959" lon="17.7391176">
        <ele>41.474</ele>
        <time>2013-04-10T18:19:24Z</time>
      </trkpt>
      <trkpt lat="59.977871" lon="17.7391057">
        <ele>41.474</ele>
        <time>2013-04-10T18:19:25Z</time>
      </trkpt>
      <trkpt lat="59.9778462" lon="17.7390917">
        <ele>41.474</ele>
        <time>2013-04-10T18:19:26Z</time>
      </trkpt>
      <trkpt lat="59.9778239" lon="17.7390798">
        <ele>41.9547</ele>
        <time>2013-04-10T18:19:27Z</time>
      </trkpt>
      <trkpt lat="59.9778016" lon="17.739071">
        <ele>41.9547</ele>
        <time>2013-04-10T18:19:28Z</time>
      </trkpt>
      <trkpt lat="59.9777794" lon="17.7390594">
        <ele>41.9547</ele>
        <time>2013-04-10T18:19:29Z</time>
      </trkpt>
      <trkpt lat="59.9777562" lon="17.7390491">
        <ele>41.9547</ele>
        <time>2013-04-10T18:19:30Z</time>
      </trkpt>
      <trkpt lat="59.9777322" lon="17.7390425">
        <ele>41.9547</ele>
        <time>2013-04-10T18:19:31Z</time>
      </trkpt>
      <trkpt lat="59.9777068" lon="17.7390357">
        <ele>42.4354</ele>
        <time>2013-04-10T18:19:32Z</time>
      </trkpt>
      <trkpt lat="59.977681" lon="17.7390286">
        <ele>42.916</ele>
        <time>2013-04-10T18:19:33Z</time>
      </trkpt>
      <trkpt lat="59.977659" lon="17.7390247">
        <ele>42.916</ele>
        <time>2013-04-10T18:19:34Z</time>
      </trkpt>
      <trkpt lat="59.9776377" lon="17.7390224">
        <ele>42.4354</ele>
        <time>2013-04-10T18:19:35Z</time>
      </trkpt>
      <trkpt lat="59.9776134" lon="17.7390206">
        <ele>42.916</ele>
        <time>2013-04-10T18:19:36Z</time>
      </trkpt>
      <trkpt lat="59.9775886" lon="17.7390181">
        <ele>42.916</ele>
        <time>2013-04-10T18:19:37Z</time>
      </trkpt>
      <trkpt lat="59.9775663" lon="17.7390186">
        <ele>42.916</ele>
        <time>2013-04-10T18:19:38Z</time>
      </trkpt>
      <trkpt lat="59.9775426" lon="17.7390242">
        <ele>43.3966</ele>
        <time>2013-04-10T18:19:39Z</time>
      </trkpt>
      <trkpt lat="59.9775157" lon="17.7390319">
        <ele>43.3966</ele>
        <time>2013-04-10T18:19:40Z</time>
      </trkpt>
      <trkpt lat="59.9774888" lon="17.7390403">
        <ele>43.3966</ele>
        <time>2013-04-10T18:19:41Z</time>
      </trkpt>
      <trkpt lat="59.977466" lon="17.7390482">
        <ele>43.3966</ele>
        <time>2013-04-10T18:19:42Z</time>
      </trkpt>
      <trkpt lat="59.977443" lon="17.7390569">
        <ele>43.3966</ele>
        <time>2013-04-10T18:19:43Z</time>
      </trkpt>
      <trkpt lat="59.9774183" lon="17.7390646">
        <ele>42.916</ele>
        <time>2013-04-10T18:19:44Z</time>
      </trkpt>
      <trkpt lat="59.9773959" lon="17.7390731">
        <ele>42.916</ele>
        <time>2013-04-10T18:19:45Z</time>
      </trkpt>
      <trkpt lat="59.9773738" lon="17.7390845">
        <ele>42.916</ele>
        <time>2013-04-10T18:19:46Z</time>
      </trkpt>
      <trkpt lat="59.9773489" lon="17.7390953">
        <ele>42.916</ele>
        <time>2013-04-10T18:19:47Z</time>
      </trkpt>
      <trkpt lat="59.9773257" lon="17.7391052">
        <ele>41.9547</ele>
        <time>2013-04-10T18:19:48Z</time>
      </trkpt>
      <trkpt lat="59.9773042" lon="17.7391169">
        <ele>41.474</ele>
        <time>2013-04-10T18:19:49Z</time>
      </trkpt>
      <trkpt lat="59.9772822" lon="17.7391277">
        <ele>40.9934</ele>
        <time>2013-04-10T18:19:50Z</time>
      </trkpt>
      <trkpt lat="59.9772629" lon="17.7391342">
        <ele>40.5128</ele>
        <time>2013-04-10T18:19:51Z</time>
      </trkpt>
      <trkpt lat="59.9772463" lon="17.7391402">
        <ele>40.0321</ele>
        <time>2013-04-10T18:19:52Z</time>
      </trkpt>
      <trkpt lat="59.9772276" lon="17.7391483">
        <ele>39.5513</ele>
        <time>2013-04-10T18:19:53Z</time>
      </trkpt>
      <trkpt lat="59.9772064" lon="17.7391569">
        <ele>39.0707</ele>
        <time>2013-04-10T18:19:54Z</time>
      </trkpt>
      <trkpt lat="59.9771838" lon="17.7391694">
        <ele>38.5901</ele>
        <time>2013-04-10T18:19:55Z</time>
      </trkpt>
      <trkpt lat="59.9771565" lon="17.7391885">
        <ele>39.0707</ele>
        <time>2013-04-10T18:19:56Z</time>
      </trkpt>
      <trkpt lat="59.9771347" lon="17.7391993">
        <ele>39.0707</ele>
        <time>2013-04-10T18:19:57Z</time>
      </trkpt>
      <trkpt lat="59.977108" lon="17.7392196">
        <ele>39.5513</ele>
        <time>2013-04-10T18:19:58Z</time>
      </trkpt>
      <trkpt lat="59.9770795" lon="17.7392403">
        <ele>40.0321</ele>
        <time>2013-04-10T18:19:59Z</time>
      </trkpt>
      <trkpt lat="59.9770552" lon="17.7392518">
        <ele>40.0321</ele>
        <time>2013-04-10T18:20:00Z</time>
      </trkpt>
      <trkpt lat="59.9770302" lon="17.7392663">
        <ele>40.5128</ele>
        <time>2013-04-10T18:20:01Z</time>
      </trkpt>
      <trkpt lat="59.977007" lon="17.7392831">
        <ele>40.5128</ele>
        <time>2013-04-10T18:20:02Z</time>
      </trkpt>
      <trkpt lat="59.9769809" lon="17.7392967">
        <ele>40.9934</ele>
        <time>2013-04-10T18:20:03Z</time>
      </trkpt>
      <trkpt lat="59.9769547" lon="17.7393123">
        <ele>40.9934</ele>
        <time>2013-04-10T18:20:04Z</time>
      </trkpt>
      <trkpt lat="59.9769292" lon="17.7393326">
        <ele>41.474</ele>
        <time>2013-04-10T18:20:05Z</time>
      </trkpt>
      <trkpt lat="59.9769035" lon="17.73935">
        <ele>40.9934</ele>
        <time>2013-04-10T18:20:06Z</time>
      </trkpt>
      <trkpt lat="59.9768773" lon="17.7393604">
        <ele>40.9934</ele>
        <time>2013-04-10T18:20:07Z</time>
      </trkpt>
      <trkpt lat="59.9768511" lon="17.7393729">
        <ele>41.474</ele>
        <time>2013-04-10T18:20:08Z</time>
      </trkpt>
      <trkpt lat="59.976825" lon="17.7393826">
        <ele>41.474</ele>
        <time>2013-04-10T18:20:09Z</time>
      </trkpt>
      <trkpt lat="59.9768024" lon="17.7393844">
        <ele>40.5128</ele>
        <time>2013-04-10T18:20:10Z</time>
      </trkpt>
      <trkpt lat="59.9767807" lon="17.7393827">
        <ele>40.0321</ele>
        <time>2013-04-10T18:20:11Z</time>
      </trkpt>
      <trkpt lat="59.9767604" lon="17.7393881">
        <ele>40.0321</ele>
        <time>2013-04-10T18:20:12Z</time>
      </trkpt>
      <trkpt lat="59.9767382" lon="17.7393953">
        <ele>39.5513</ele>
        <time>2013-04-10T18:20:13Z</time>
      </trkpt>
      <trkpt lat="59.9767162" lon="17.7393969">
        <ele>39.0707</ele>
        <time>2013-04-10T18:20:14Z</time>
      </trkpt>
      <trkpt lat="59.9766947" lon="17.7394046">
        <ele>38.1094</ele>
        <time>2013-04-10T18:20:15Z</time>
      </trkpt>
      <trkpt lat="59.9766713" lon="17.7394206">
        <ele>37.6287</ele>
        <time>2013-04-10T18:20:16Z</time>
      </trkpt>
      <trkpt lat="59.9766487" lon="17.7394357">
        <ele>37.6287</ele>
        <time>2013-04-10T18:20:17Z</time>
      </trkpt>
      <trkpt lat="59.9766303" lon="17.7394512">
        <ele>37.1481</ele>
        <time>2013-04-10T18:20:18Z</time>
      </trkpt>
      <trkpt lat="59.9766124" lon="17.739466">
        <ele>36.6675</ele>
        <time>2013-04-10T18:20:19Z</time>
      </trkpt>
      <trkpt lat="59.9765916" lon="17.7394813">
        <ele>36.1868</ele>
        <time>2013-04-10T18:20:20Z</time>
      </trkpt>
      <trkpt lat="59.9765718" lon="17.7395035">
        <ele>35.7061</ele>
        <time>2013-04-10T18:20:21Z</time>
      </trkpt>
      <trkpt lat="59.9765517" lon="17.7395309">
        <ele>35.7061</ele>
        <time>2013-04-10T18:20:22Z</time>
      </trkpt>
      <trkpt lat="59.9765309" lon="17.7395539">
        <ele>35.2255</ele>
        <time>2013-04-10T18:20:23Z</time>
      </trkpt>
      <trkpt lat="59.9765111" lon="17.7395771">
        <ele>34.2642</ele>
        <time>2013-04-10T18:20:24Z</time>
      </trkpt>
      <trkpt lat="59.976488" lon="17.7396097">
        <ele>34.2642</ele>
        <time>2013-04-10T18:20:25Z</time>
      </trkpt>
      <trkpt lat="59.9764648" lon="17.739644">
        <ele>33.7834</ele>
        <time>2013-04-10T18:20:26Z</time>
      </trkpt>
      <trkpt lat="59.9764429" lon="17.7396781">
        <ele>33.3029</ele>
        <time>2013-04-10T18:20:27Z</time>
      </trkpt>
      <trkpt lat="59.976424" lon="17.7397133">
        <ele>33.3029</ele>
        <time>2013-04-10T18:20:28Z</time>
      </trkpt>
      <trkpt lat="59.9764073" lon="17.7397479">
        <ele>32.8223</ele>
        <time>2013-04-10T18:20:29Z</time>
      </trkpt>
      <trkpt lat="59.9763869" lon="17.7397677">
        <ele>32.3416</ele>
        <time>2013-04-10T18:20:30Z</time>
      </trkpt>
      <trkpt lat="59.976359" lon="17.7397802">
        <ele>32.3416</ele>
        <time>2013-04-10T18:20:31Z</time>
      </trkpt>
      <trkpt lat="59.97633" lon="17.7397866">
        <ele>32.8223</ele>
        <time>2013-04-10T18:20:32Z</time>
      </trkpt>
      <trkpt lat="59.9763066" lon="17.739782">
        <ele>32.8223</ele>
        <time>2013-04-10T18:20:33Z</time>
      </trkpt>
      <trkpt lat="59.9762811" lon="17.7397744">
        <ele>33.3029</ele>
        <time>2013-04-10T18:20:34Z</time>
      </trkpt>
      <trkpt lat="59.9762521" lon="17.739762">
        <ele>33.3029</ele>
        <time>2013-04-10T18:20:35Z</time>
      </trkpt>
      <trkpt lat="59.9762247" lon="17.7397436">
        <ele>33.3029</ele>
        <time>2013-04-10T18:20:36Z</time>
      </trkpt>
      <trkpt lat="59.9762024" lon="17.7397247">
        <ele>33.3029</ele>
        <time>2013-04-10T18:20:37Z</time>
      </trkpt>
      <trkpt lat="59.9761809" lon="17.7397064">
        <ele>32.8223</ele>
        <time>2013-04-10T18:20:38Z</time>
      </trkpt>
      <trkpt lat="59.9761571" lon="17.7396811">
        <ele>32.8223</ele>
        <time>2013-04-10T18:20:39Z</time>
      </trkpt>
      <trkpt lat="59.9761332" lon="17.73965">
        <ele>32.3416</ele>
        <time>2013-04-10T18:20:40Z</time>
      </trkpt>
      <trkpt lat="59.9761103" lon="17.7396194">
        <ele>32.3416</ele>
        <time>2013-04-10T18:20:41Z</time>
      </trkpt>
      <trkpt lat="59.976087" lon="17.7395875">
        <ele>31.8607</ele>
        <time>2013-04-10T18:20:42Z</time>
      </trkpt>
      <trkpt lat="59.9760638" lon="17.7395537">
        <ele>31.8607</ele>
        <time>2013-04-10T18:20:43Z</time>
      </trkpt>
      <trkpt lat="59.9760421" lon="17.7395225">
        <ele>32.3416</ele>
        <time>2013-04-10T18:20:44Z</time>
      </trkpt>
      <trkpt lat="59.9760232" lon="17.7394932">
        <ele>32.3416</ele>
        <time>2013-04-10T18:20:45Z</time>
      </trkpt>
      <trkpt lat="59.9760052" lon="17.7394608">
        <ele>32.8223</ele>
        <time>2013-04-10T18:20:46Z</time>
      </trkpt>
      <trkpt lat="59.9759869" lon="17.7394261">
        <ele>32.8223</ele>
        <time>2013-04-10T18:20:47Z</time>
      </trkpt>
      <trkpt lat="59.9759678" lon="17.7393921">
        <ele>32.3416</ele>
        <time>2013-04-10T18:20:48Z</time>
      </trkpt>
      <trkpt lat="59.9759501" lon="17.7393527">
        <ele>32.3416</ele>
        <time>2013-04-10T18:20:49Z</time>
      </trkpt>
      <trkpt lat="59.9759306" lon="17.7393135">
        <ele>32.3416</ele>
        <time>2013-04-10T18:20:50Z</time>
      </trkpt>
      <trkpt lat="59.9759119" lon="17.7392738">
        <ele>32.3416</ele>
        <time>2013-04-10T18:20:51Z</time>
      </trkpt>
      <trkpt lat="59.975896" lon="17.7392351">
        <ele>32.3416</ele>
        <time>2013-04-10T18:20:52Z</time>
      </trkpt>
      <trkpt lat="59.9758807" lon="17.7391951">
        <ele>32.3416</ele>
        <time>2013-04-10T18:20:53Z</time>
      </trkpt>
      <trkpt lat="59.9758596" lon="17.7391602">
        <ele>32.8223</ele>
        <time>2013-04-10T18:20:54Z</time>
      </trkpt>
      <trkpt lat="59.9758393" lon="17.7391309">
        <ele>34.2642</ele>
        <time>2013-04-10T18:20:55Z</time>
      </trkpt>
      <trkpt lat="59.9758212" lon="17.7390963">
        <ele>34.2642</ele>
        <time>2013-04-10T18:20:56Z</time>
      </trkpt>
      <trkpt lat="59.9758038" lon="17.73906">
        <ele>33.7834</ele>
        <time>2013-04-10T18:20:57Z</time>
      </trkpt>
      <trkpt lat="59.9757862" lon="17.7390306">
        <ele>34.2642</ele>
        <time>2013-04-10T18:20:58Z</time>
      </trkpt>
      <trkpt lat="59.9757694" lon="17.7390008">
        <ele>34.7449</ele>
        <time>2013-04-10T18:20:59Z</time>
      </trkpt>
      <trkpt lat="59.9757515" lon="17.7389675">
        <ele>34.7449</ele>
        <time>2013-04-10T18:21:00Z</time>
      </trkpt>
      <trkpt lat="59.9757322" lon="17.7389342">
        <ele>34.2642</ele>
        <time>2013-04-10T18:21:01Z</time>
      </trkpt>
      <trkpt lat="59.9757125" lon="17.7389012">
        <ele>35.2255</ele>
        <time>2013-04-10T18:21:02Z</time>
      </trkpt>
      <trkpt lat="59.9756944" lon="17.7388684">
        <ele>35.7061</ele>
        <time>2013-04-10T18:21:03Z</time>
      </trkpt>
      <trkpt lat="59.9756769" lon="17.7388377">
        <ele>35.2255</ele>
        <time>2013-04-10T18:21:04Z</time>
      </trkpt>
      <trkpt lat="59.9756564" lon="17.7388048">
        <ele>35.7061</ele>
        <time>2013-04-10T18:21:05Z</time>
      </trkpt>
      <trkpt lat="59.9756356" lon="17.7387694">
        <ele>36.1868</ele>
        <time>2013-04-10T18:21:06Z</time>
      </trkpt>
      <trkpt lat="59.9756144" lon="17.738739">
        <ele>36.1868</ele>
        <time>2013-04-10T18:21:07Z</time>
      </trkpt>
      <trkpt lat="59.9755939" lon="17.7387092">
        <ele>36.6675</ele>
        <time>2013-04-10T18:21:08Z</time>
      </trkpt>
      <trkpt lat="59.9755752" lon="17.7386771">
        <ele>36.6675</ele>
        <time>2013-04-10T18:21:09Z</time>
      </trkpt>
      <trkpt lat="59.9755577" lon="17.7386463">
        <ele>36.6675</ele>
        <time>2013-04-10T18:21:10Z</time>
      </trkpt>
      <trkpt lat="59.9755385" lon="17.738614">
        <ele>37.1481</ele>
        <time>2013-04-10T18:21:11Z</time>
      </trkpt>
      <trkpt lat="59.9755177" lon="17.7385792">
        <ele>37.1481</ele>
        <time>2013-04-10T18:21:12Z</time>
      </trkpt>
      <trkpt lat="59.975497" lon="17.738547">
        <ele>37.6287</ele>
        <time>2013-04-10T18:21:13Z</time>
      </trkpt>
      <trkpt lat="59.9754758" lon="17.7385156">
        <ele>37.6287</ele>
        <time>2013-04-10T18:21:14Z</time>
      </trkpt>
      <trkpt lat="59.9754579" lon="17.7384815">
        <ele>37.6287</ele>
        <time>2013-04-10T18:21:15Z</time>
      </trkpt>
      <trkpt lat="59.9754409" lon="17.7384489">
        <ele>38.1094</ele>
        <time>2013-04-10T18:21:16Z</time>
      </trkpt>
      <trkpt lat="59.9754243" lon="17.7384162">
        <ele>38.5901</ele>
        <time>2013-04-10T18:21:17Z</time>
      </trkpt>
      <trkpt lat="59.9754072" lon="17.7383815">
        <ele>38.5901</ele>
        <time>2013-04-10T18:21:18Z</time>
      </trkpt>
      <trkpt lat="59.9753887" lon="17.7383507">
        <ele>38.5901</ele>
        <time>2013-04-10T18:21:19Z</time>
      </trkpt>
      <trkpt lat="59.975368" lon="17.7383132">
        <ele>38.5901</ele>
        <time>2013-04-10T18:21:20Z</time>
      </trkpt>
      <trkpt lat="59.9753473" lon="17.7382733">
        <ele>38.5901</ele>
        <time>2013-04-10T18:21:21Z</time>
      </trkpt>
      <trkpt lat="59.9753292" lon="17.7382389">
        <ele>39.0707</ele>
        <time>2013-04-10T18:21:22Z</time>
      </trkpt>
      <trkpt lat="59.9753129" lon="17.7382062">
        <ele>39.0707</ele>
        <time>2013-04-10T18:21:23Z</time>
      </trkpt>
      <trkpt lat="59.9752965" lon="17.7381756">
        <ele>39.5513</ele>
        <time>2013-04-10T18:21:24Z</time>
      </trkpt>
      <trkpt lat="59.9752808" lon="17.7381453">
        <ele>39.5513</ele>
        <time>2013-04-10T18:21:25Z</time>
      </trkpt>
      <trkpt lat="59.975263" lon="17.7381099">
        <ele>39.5513</ele>
        <time>2013-04-10T18:21:26Z</time>
      </trkpt>
      <trkpt lat="59.9752456" lon="17.738072">
        <ele>39.5513</ele>
        <time>2013-04-10T18:21:27Z</time>
      </trkpt>
      <trkpt lat="59.9752282" lon="17.7380312">
        <ele>40.0321</ele>
        <time>2013-04-10T18:21:28Z</time>
      </trkpt>
      <trkpt lat="59.9752104" lon="17.7379894">
        <ele>40.0321</ele>
        <time>2013-04-10T18:21:29Z</time>
      </trkpt>
      <trkpt lat="59.9751991" lon="17.7379686">
        <ele>39.5513</ele>
        <time>2013-04-10T18:21:30Z</time>
      </trkpt>
      <trkpt lat="59.9751846" lon="17.7379446">
        <ele>40.0321</ele>
        <time>2013-04-10T18:21:31Z</time>
      </trkpt>
      <trkpt lat="59.9751642" lon="17.737908">
        <ele>40.5128</ele>
        <time>2013-04-10T18:21:32Z</time>
      </trkpt>
      <trkpt lat="59.9751446" lon="17.7378713">
        <ele>40.5128</ele>
        <time>2013-04-10T18:21:33Z</time>
      </trkpt>
      <trkpt lat="59.9751262" lon="17.7378359">
        <ele>40.9934</ele>
        <time>2013-04-10T18:21:34Z</time>
      </trkpt>
      <trkpt lat="59.9751086" lon="17.7378047">
        <ele>40.9934</ele>
        <time>2013-04-10T18:21:35Z</time>
      </trkpt>
      <trkpt lat="59.9750928" lon="17.7377804">
        <ele>41.474</ele>
        <time>2013-04-10T18:21:36Z</time>
      </trkpt>
      <trkpt lat="59.9750774" lon="17.7377582">
        <ele>41.9547</ele>
        <time>2013-04-10T18:21:37Z</time>
      </trkpt>
      <trkpt lat="59.975058" lon="17.7377198">
        <ele>41.9547</ele>
        <time>2013-04-10T18:21:38Z</time>
      </trkpt>
      <trkpt lat="59.9750386" lon="17.7376807">
        <ele>42.4354</ele>
        <time>2013-04-10T18:21:39Z</time>
      </trkpt>
      <trkpt lat="59.9750202" lon="17.73765">
        <ele>42.916</ele>
        <time>2013-04-10T18:21:40Z</time>
      </trkpt>
      <trkpt lat="59.9750008" lon="17.7376229">
        <ele>42.916</ele>
        <time>2013-04-10T18:21:41Z</time>
      </trkpt>
      <trkpt lat="59.9749842" lon="17.7375945">
        <ele>42.916</ele>
        <time>2013-04-10T18:21:42Z</time>
      </trkpt>
      <trkpt lat="59.9749703" lon="17.7375573">
        <ele>42.916</ele>
        <time>2013-04-10T18:21:43Z</time>
      </trkpt>
      <trkpt lat="59.9749553" lon="17.7375238">
        <ele>42.916</ele>
        <time>2013-04-10T18:21:44Z</time>
      </trkpt>
      <trkpt lat="59.9749384" lon="17.737493">
        <ele>42.916</ele>
        <time>2013-04-10T18:21:45Z</time>
      </trkpt>
      <trkpt lat="59.9749184" lon="17.737452">
        <ele>42.916</ele>
        <time>2013-04-10T18:21:46Z</time>
      </trkpt>
      <trkpt lat="59.9749006" lon="17.7374129">
        <ele>42.4354</ele>
        <time>2013-04-10T18:21:47Z</time>
      </trkpt>
      <trkpt lat="59.9748864" lon="17.737373">
        <ele>42.4354</ele>
        <time>2013-04-10T18:21:48Z</time>
      </trkpt>
      <trkpt lat="59.9748738" lon="17.7373328">
        <ele>41.9547</ele>
        <time>2013-04-10T18:21:49Z</time>
      </trkpt>
      <trkpt lat="59.9748584" lon="17.7372945">
        <ele>41.474</ele>
        <time>2013-04-10T18:21:50Z</time>
      </trkpt>
      <trkpt lat="59.9748426" lon="17.737262">
        <ele>41.9547</ele>
        <time>2013-04-10T18:21:51Z</time>
      </trkpt>
      <trkpt lat="59.9748277" lon="17.737231">
        <ele>41.9547</ele>
        <time>2013-04-10T18:21:52Z</time>
      </trkpt>
      <trkpt lat="59.9748096" lon="17.7371963">
        <ele>41.9547</ele>
        <time>2013-04-10T18:21:53Z</time>
      </trkpt>
      <trkpt lat="59.9747929" lon="17.737165">
        <ele>41.9547</ele>
        <time>2013-04-10T18:21:54Z</time>
      </trkpt>
      <trkpt lat="59.9747785" lon="17.7371301">
        <ele>41.9547</ele>
        <time>2013-04-10T18:21:55Z</time>
      </trkpt>
      <trkpt lat="59.974766" lon="17.7370864">
        <ele>41.9547</ele>
        <time>2013-04-10T18:21:56Z</time>
      </trkpt>
      <trkpt lat="59.9747547" lon="17.7370378">
        <ele>41.9547</ele>
        <time>2013-04-10T18:21:57Z</time>
      </trkpt>
      <trkpt lat="59.9747424" lon="17.7369901">
        <ele>41.474</ele>
        <time>2013-04-10T18:21:58Z</time>
      </trkpt>
      <trkpt lat="59.9747314" lon="17.7369476">
        <ele>40.9934</ele>
        <time>2013-04-10T18:21:59Z</time>
      </trkpt>
      <trkpt lat="59.974719" lon="17.7369068">
        <ele>40.9934</ele>
        <time>2013-04-10T18:22:00Z</time>
      </trkpt>
      <trkpt lat="59.9747045" lon="17.7368697">
        <ele>40.9934</ele>
        <time>2013-04-10T18:22:01Z</time>
      </trkpt>
      <trkpt lat="59.9746908" lon="17.7368337">
        <ele>40.9934</ele>
        <time>2013-04-10T18:22:02Z</time>
      </trkpt>
      <trkpt lat="59.9746749" lon="17.7367916">
        <ele>40.9934</ele>
        <time>2013-04-10T18:22:03Z</time>
      </trkpt>
      <trkpt lat="59.9746604" lon="17.7367508">
        <ele>40.9934</ele>
        <time>2013-04-10T18:22:04Z</time>
      </trkpt>
      <trkpt lat="59.9746484" lon="17.7367088">
        <ele>40.5128</ele>
        <time>2013-04-10T18:22:05Z</time>
      </trkpt>
      <trkpt lat="59.9746345" lon="17.7366715">
        <ele>40.9934</ele>
        <time>2013-04-10T18:22:06Z</time>
      </trkpt>
      <trkpt lat="59.9746227" lon="17.7366363">
        <ele>40.9934</ele>
        <time>2013-04-10T18:22:07Z</time>
      </trkpt>
      <trkpt lat="59.974609" lon="17.7365995">
        <ele>40.9934</ele>
        <time>2013-04-10T18:22:08Z</time>
      </trkpt>
      <trkpt lat="59.9745915" lon="17.7365545">
        <ele>40.9934</ele>
        <time>2013-04-10T18:22:09Z</time>
      </trkpt>
      <trkpt lat="59.974577" lon="17.736502">
        <ele>40.9934</ele>
        <time>2013-04-10T18:22:10Z</time>
      </trkpt>
      <trkpt lat="59.9745651" lon="17.7364567">
        <ele>40.5128</ele>
        <time>2013-04-10T18:22:11Z</time>
      </trkpt>
      <trkpt lat="59.9745527" lon="17.7364177">
        <ele>40.5128</ele>
        <time>2013-04-10T18:22:12Z</time>
      </trkpt>
      <trkpt lat="59.9745431" lon="17.7363824">
        <ele>40.5128</ele>
        <time>2013-04-10T18:22:13Z</time>
      </trkpt>
      <trkpt lat="59.9745314" lon="17.7363473">
        <ele>40.0321</ele>
        <time>2013-04-10T18:22:14Z</time>
      </trkpt>
      <trkpt lat="59.97452" lon="17.73631">
        <ele>40.0321</ele>
        <time>2013-04-10T18:22:15Z</time>
      </trkpt>
      <trkpt lat="59.9745102" lon="17.7362696">
        <ele>40.0321</ele>
        <time>2013-04-10T18:22:16Z</time>
      </trkpt>
      <trkpt lat="59.9745004" lon="17.7362333">
        <ele>40.0321</ele>
        <time>2013-04-10T18:22:17Z</time>
      </trkpt>
      <trkpt lat="59.974492" lon="17.7361949">
        <ele>39.5513</ele>
        <time>2013-04-10T18:22:18Z</time>
      </trkpt>
      <trkpt lat="59.9744825" lon="17.736153">
        <ele>39.5513</ele>
        <time>2013-04-10T18:22:19Z</time>
      </trkpt>
      <trkpt lat="59.974474" lon="17.7361202">
        <ele>39.5513</ele>
        <time>2013-04-10T18:22:20Z</time>
      </trkpt>
      <trkpt lat="59.9744675" lon="17.7360877">
        <ele>39.5513</ele>
        <time>2013-04-10T18:22:21Z</time>
      </trkpt>
      <trkpt lat="59.9744619" lon="17.7360458">
        <ele>39.0707</ele>
        <time>2013-04-10T18:22:22Z</time>
      </trkpt>
      <trkpt lat="59.9744546" lon="17.7359991">
        <ele>39.5513</ele>
        <time>2013-04-10T18:22:23Z</time>
      </trkpt>
      <trkpt lat="59.9744466" lon="17.7359526">
        <ele>39.5513</ele>
        <time>2013-04-10T18:22:24Z</time>
      </trkpt>
      <trkpt lat="59.9744407" lon="17.7359028">
        <ele>39.5513</ele>
        <time>2013-04-10T18:22:25Z</time>
      </trkpt>
      <trkpt lat="59.9744323" lon="17.7358572">
        <ele>40.0321</ele>
        <time>2013-04-10T18:22:26Z</time>
      </trkpt>
      <trkpt lat="59.9744217" lon="17.735819">
        <ele>39.0707</ele>
        <time>2013-04-10T18:22:27Z</time>
      </trkpt>
      <trkpt lat="59.9744136" lon="17.7357749">
        <ele>38.5901</ele>
        <time>2013-04-10T18:22:28Z</time>
      </trkpt>
      <trkpt lat="59.9744069" lon="17.7357289">
        <ele>38.1094</ele>
        <time>2013-04-10T18:22:29Z</time>
      </trkpt>
      <trkpt lat="59.9744013" lon="17.7356797">
        <ele>38.1094</ele>
        <time>2013-04-10T18:22:30Z</time>
      </trkpt>
      <trkpt lat="59.9743952" lon="17.7356302">
        <ele>37.6287</ele>
        <time>2013-04-10T18:22:31Z</time>
      </trkpt>
      <trkpt lat="59.9743853" lon="17.7355877">
        <ele>37.1481</ele>
        <time>2013-04-10T18:22:32Z</time>
      </trkpt>
      <trkpt lat="59.9743741" lon="17.7355429">
        <ele>37.1481</ele>
        <time>2013-04-10T18:22:33Z</time>
      </trkpt>
      <trkpt lat="59.9743641" lon="17.7354936">
        <ele>37.6287</ele>
        <time>2013-04-10T18:22:34Z</time>
      </trkpt>
      <trkpt lat="59.9743537" lon="17.735444">
        <ele>38.1094</ele>
        <time>2013-04-10T18:22:35Z</time>
      </trkpt>
      <trkpt lat="59.974345" lon="17.7353982">
        <ele>38.1094</ele>
        <time>2013-04-10T18:22:36Z</time>
      </trkpt>
      <trkpt lat="59.9743355" lon="17.7353516">
        <ele>37.1481</ele>
        <time>2013-04-10T18:22:37Z</time>
      </trkpt>
      <trkpt lat="59.9743266" lon="17.7352978">
        <ele>37.6287</ele>
        <time>2013-04-10T18:22:38Z</time>
      </trkpt>
      <trkpt lat="59.9743246" lon="17.7352512">
        <ele>37.1481</ele>
        <time>2013-04-10T18:22:39Z</time>
      </trkpt>
      <trkpt lat="59.9743232" lon="17.7352082">
        <ele>36.6675</ele>
        <time>2013-04-10T18:22:40Z</time>
      </trkpt>
      <trkpt lat="59.97432" lon="17.7351631">
        <ele>36.1868</ele>
        <time>2013-04-10T18:22:41Z</time>
      </trkpt>
      <trkpt lat="59.9743166" lon="17.7351091">
        <ele>36.1868</ele>
        <time>2013-04-10T18:22:42Z</time>
      </trkpt>
      <trkpt lat="59.9743154" lon="17.735062">
        <ele>36.1868</ele>
        <time>2013-04-10T18:22:43Z</time>
      </trkpt>
      <trkpt lat="59.9743165" lon="17.7350099">
        <ele>35.7061</ele>
        <time>2013-04-10T18:22:44Z</time>
      </trkpt>
      <trkpt lat="59.9743159" lon="17.7349581">
        <ele>35.7061</ele>
        <time>2013-04-10T18:22:45Z</time>
      </trkpt>
      <trkpt lat="59.9743117" lon="17.7349051">
        <ele>35.7061</ele>
        <time>2013-04-10T18:22:46Z</time>
      </trkpt>
      <trkpt lat="59.974309" lon="17.7348511">
        <ele>36.1868</ele>
        <time>2013-04-10T18:22:47Z</time>
      </trkpt>
      <trkpt lat="59.9743015" lon="17.7347894">
        <ele>36.1868</ele>
        <time>2013-04-10T18:22:48Z</time>
      </trkpt>
      <trkpt lat="59.9742921" lon="17.734727">
        <ele>36.1868</ele>
        <time>2013-04-10T18:22:49Z</time>
      </trkpt>
      <trkpt lat="59.9742867" lon="17.7346736">
        <ele>36.1868</ele>
        <time>2013-04-10T18:22:50Z</time>
      </trkpt>
      <trkpt lat="59.9742827" lon="17.7346297">
        <ele>36.1868</ele>
        <time>2013-04-10T18:22:51Z</time>
      </trkpt>
      <trkpt lat="59.9742787" lon="17.7345804">
        <ele>36.6675</ele>
        <time>2013-04-10T18:22:52Z</time>
      </trkpt>
      <trkpt lat="59.9742755" lon="17.7345258">
        <ele>37.1481</ele>
        <time>2013-04-10T18:22:53Z</time>
      </trkpt>
      <trkpt lat="59.9742727" lon="17.734475">
        <ele>37.1481</ele>
        <time>2013-04-10T18:22:54Z</time>
      </trkpt>
      <trkpt lat="59.9742702" lon="17.7344238">
        <ele>37.1481</ele>
        <time>2013-04-10T18:22:55Z</time>
      </trkpt>
      <trkpt lat="59.9742751" lon="17.7343819">
        <ele>36.1868</ele>
        <time>2013-04-10T18:22:56Z</time>
      </trkpt>
      <trkpt lat="59.9742812" lon="17.734344">
        <ele>36.1868</ele>
        <time>2013-04-10T18:22:57Z</time>
      </trkpt>
      <trkpt lat="59.9742833" lon="17.7343015">
        <ele>35.7061</ele>
        <time>2013-04-10T18:22:58Z</time>
      </trkpt>
      <trkpt lat="59.9742863" lon="17.734258">
        <ele>35.2255</ele>
        <time>2013-04-10T18:22:59Z</time>
      </trkpt>
      <trkpt lat="59.9742879" lon="17.7342206">
        <ele>35.2255</ele>
        <time>2013-04-10T18:23:00Z</time>
      </trkpt>
      <trkpt lat="59.9742906" lon="17.7341844">
        <ele>34.7449</ele>
        <time>2013-04-10T18:23:01Z</time>
      </trkpt>
      <trkpt lat="59.9742956" lon="17.7341435">
        <ele>34.7449</ele>
        <time>2013-04-10T18:23:02Z</time>
      </trkpt>
      <trkpt lat="59.9742977" lon="17.7341026">
        <ele>34.7449</ele>
        <time>2013-04-10T18:23:03Z</time>
      </trkpt>
      <trkpt lat="59.9742988" lon="17.7340628">
        <ele>34.7449</ele>
        <time>2013-04-10T18:23:04Z</time>
      </trkpt>
      <trkpt lat="59.9743041" lon="17.7340224">
        <ele>34.2642</ele>
        <time>2013-04-10T18:23:05Z</time>
      </trkpt>
      <trkpt lat="59.9743086" lon="17.7339815">
        <ele>34.2642</ele>
        <time>2013-04-10T18:23:06Z</time>
      </trkpt>
      <trkpt lat="59.9743103" lon="17.733939">
        <ele>34.2642</ele>
        <time>2013-04-10T18:23:07Z</time>
      </trkpt>
      <trkpt lat="59.9743145" lon="17.7338976">
        <ele>34.2642</ele>
        <time>2013-04-10T18:23:08Z</time>
      </trkpt>
      <trkpt lat="59.9743175" lon="17.7338557">
        <ele>33.7834</ele>
        <time>2013-04-10T18:23:09Z</time>
      </trkpt>
      <trkpt lat="59.9743197" lon="17.733814">
        <ele>33.7834</ele>
        <time>2013-04-10T18:23:10Z</time>
      </trkpt>
      <trkpt lat="59.9743253" lon="17.7337746">
        <ele>33.7834</ele>
        <time>2013-04-10T18:23:11Z</time>
      </trkpt>
      <trkpt lat="59.9743303" lon="17.7337368">
        <ele>33.3029</ele>
        <time>2013-04-10T18:23:12Z</time>
      </trkpt>
      <trkpt lat="59.974333" lon="17.7336975">
        <ele>33.7834</ele>
        <time>2013-04-10T18:23:13Z</time>
      </trkpt>
      <trkpt lat="59.9743362" lon="17.7336546">
        <ele>33.7834</ele>
        <time>2013-04-10T18:23:14Z</time>
      </trkpt>
      <trkpt lat="59.974339" lon="17.7336111">
        <ele>33.7834</ele>
        <time>2013-04-10T18:23:15Z</time>
      </trkpt>
      <trkpt lat="59.9743408" lon="17.7335648">
        <ele>33.7834</ele>
        <time>2013-04-10T18:23:16Z</time>
      </trkpt>
      <trkpt lat="59.9743438" lon="17.7335189">
        <ele>33.7834</ele>
        <time>2013-04-10T18:23:17Z</time>
      </trkpt>
      <trkpt lat="59.9743455" lon="17.733475">
        <ele>33.7834</ele>
        <time>2013-04-10T18:23:18Z</time>
      </trkpt>
      <trkpt lat="59.9743476" lon="17.7334293">
        <ele>33.7834</ele>
        <time>2013-04-10T18:23:19Z</time>
      </trkpt>
      <trkpt lat="59.9743504" lon="17.7333791">
        <ele>33.3029</ele>
        <time>2013-04-10T18:23:20Z</time>
      </trkpt>
      <trkpt lat="59.9743518" lon="17.7333277">
        <ele>33.3029</ele>
        <time>2013-04-10T18:23:21Z</time>
      </trkpt>
      <trkpt lat="59.9743538" lon="17.7332852">
        <ele>33.3029</ele>
        <time>2013-04-10T18:23:22Z</time>
      </trkpt>
      <trkpt lat="59.9743587" lon="17.733244">
        <ele>32.8223</ele>
        <time>2013-04-10T18:23:23Z</time>
      </trkpt>
      <trkpt lat="59.9743644" lon="17.7331982">
        <ele>32.8223</ele>
        <time>2013-04-10T18:23:24Z</time>
      </trkpt>
      <trkpt lat="59.9743667" lon="17.7331527">
        <ele>32.3416</ele>
        <time>2013-04-10T18:23:25Z</time>
      </trkpt>
      <trkpt lat="59.9743662" lon="17.7331057">
        <ele>31.8607</ele>
        <time>2013-04-10T18:23:26Z</time>
      </trkpt>
      <trkpt lat="59.9743684" lon="17.7330579">
        <ele>31.8607</ele>
        <time>2013-04-10T18:23:27Z</time>
      </trkpt>
      <trkpt lat="59.9743738" lon="17.7330246">
        <ele>31.8607</ele>
        <time>2013-04-10T18:23:28Z</time>
      </trkpt>
      <trkpt lat="59.9743781" lon="17.7329898">
        <ele>31.8607</ele>
        <time>2013-04-10T18:23:29Z</time>
      </trkpt>
      <trkpt lat="59.9743802" lon="17.7329444">
        <ele>31.8607</ele>
        <time>2013-04-10T18:23:30Z</time>
      </trkpt>
      <trkpt lat="59.9743807" lon="17.7329024">
        <ele>31.3801</ele>
        <time>2013-04-10T18:23:31Z</time>
      </trkpt>
      <trkpt lat="59.9743824" lon="17.7328595">
        <ele>31.3801</ele>
        <time>2013-04-10T18:23:32Z</time>
      </trkpt>
      <trkpt lat="59.9743786" lon="17.732756">
        <ele>31.3801</ele>
        <time>2013-04-10T18:23:34Z</time>
      </trkpt>
      <trkpt lat="59.9743789" lon="17.7327054">
        <ele>31.3801</ele>
        <time>2013-04-10T18:23:35Z</time>
      </trkpt>
      <trkpt lat="59.974379" lon="17.7326578">
        <ele>31.3801</ele>
        <time>2013-04-10T18:23:36Z</time>
      </trkpt>
      <trkpt lat="59.9743766" lon="17.7326112">
        <ele>31.3801</ele>
        <time>2013-04-10T18:23:37Z</time>
      </trkpt>
      <trkpt lat="59.974373" lon="17.732559">
        <ele>31.8607</ele>
        <time>2013-04-10T18:23:38Z</time>
      </trkpt>
      <trkpt lat="59.9743709" lon="17.7325084">
        <ele>31.8607</ele>
        <time>2013-04-10T18:23:39Z</time>
      </trkpt>
      <trkpt lat="59.9743694" lon="17.7324585">
        <ele>31.8607</ele>
        <time>2013-04-10T18:23:40Z</time>
      </trkpt>
      <trkpt lat="59.9743675" lon="17.7324082">
        <ele>31.8607</ele>
        <time>2013-04-10T18:23:41Z</time>
      </trkpt>
      <trkpt lat="59.9743639" lon="17.7323544">
        <ele>31.8607</ele>
        <time>2013-04-10T18:23:42Z</time>
      </trkpt>
      <trkpt lat="59.9743592" lon="17.7323055">
        <ele>32.3416</ele>
        <time>2013-04-10T18:23:43Z</time>
      </trkpt>
      <trkpt lat="59.9743547" lon="17.7322565">
        <ele>32.3416</ele>
        <time>2013-04-10T18:23:44Z</time>
      </trkpt>
      <trkpt lat="59.9743541" lon="17.7322094">
        <ele>32.8223</ele>
        <time>2013-04-10T18:23:45Z</time>
      </trkpt>
      <trkpt lat="59.9743528" lon="17.7321659">
        <ele>32.8223</ele>
        <time>2013-04-10T18:23:46Z</time>
      </trkpt>
      <trkpt lat="59.9743455" lon="17.732112">
        <ele>33.3029</ele>
        <time>2013-04-10T18:23:47Z</time>
      </trkpt>
      <trkpt lat="59.9743393" lon="17.7320593">
        <ele>33.3029</ele>
        <time>2013-04-10T18:23:48Z</time>
      </trkpt>
      <trkpt lat="59.9743366" lon="17.7320136">
        <ele>33.7834</ele>
        <time>2013-04-10T18:23:49Z</time>
      </trkpt>
      <trkpt lat="59.9743351" lon="17.731968">
        <ele>33.7834</ele>
        <time>2013-04-10T18:23:50Z</time>
      </trkpt>
      <trkpt lat="59.9743328" lon="17.7319173">
        <ele>34.2642</ele>
        <time>2013-04-10T18:23:51Z</time>
      </trkpt>
      <trkpt lat="59.9743294" lon="17.731867">
        <ele>34.2642</ele>
        <time>2013-04-10T18:23:52Z</time>
      </trkpt>
      <trkpt lat="59.9743254" lon="17.7318174">
        <ele>34.7449</ele>
        <time>2013-04-10T18:23:53Z</time>
      </trkpt>
      <trkpt lat="59.9743245" lon="17.7317685">
        <ele>34.7449</ele>
        <time>2013-04-10T18:23:54Z</time>
      </trkpt>
      <trkpt lat="59.9743249" lon="17.7317194">
        <ele>34.7449</ele>
        <time>2013-04-10T18:23:55Z</time>
      </trkpt>
      <trkpt lat="59.9743227" lon="17.7316728">
        <ele>34.7449</ele>
        <time>2013-04-10T18:23:56Z</time>
      </trkpt>
      <trkpt lat="59.9743184" lon="17.731623">
        <ele>34.7449</ele>
        <time>2013-04-10T18:23:57Z</time>
      </trkpt>
      <trkpt lat="59.974315" lon="17.7315744">
        <ele>34.7449</ele>
        <time>2013-04-10T18:23:58Z</time>
      </trkpt>
      <trkpt lat="59.9743139" lon="17.7315308">
        <ele>35.2255</ele>
        <time>2013-04-10T18:23:59Z</time>
      </trkpt>
      <trkpt lat="59.9743122" lon="17.7314842">
        <ele>35.2255</ele>
        <time>2013-04-10T18:24:00Z</time>
      </trkpt>
      <trkpt lat="59.9743114" lon="17.7314345">
        <ele>35.2255</ele>
        <time>2013-04-10T18:24:01Z</time>
      </trkpt>
      <trkpt lat="59.9743102" lon="17.7313862">
        <ele>35.2255</ele>
        <time>2013-04-10T18:24:02Z</time>
      </trkpt>
      <trkpt lat="59.9743085" lon="17.7313402">
        <ele>35.2255</ele>
        <time>2013-04-10T18:24:03Z</time>
      </trkpt>
      <trkpt lat="59.9743087" lon="17.7312925">
        <ele>35.2255</ele>
        <time>2013-04-10T18:24:04Z</time>
      </trkpt>
      <trkpt lat="59.974308" lon="17.7312469">
        <ele>35.7061</ele>
        <time>2013-04-10T18:24:05Z</time>
      </trkpt>
      <trkpt lat="59.9743072" lon="17.7312023">
        <ele>35.7061</ele>
        <time>2013-04-10T18:24:06Z</time>
      </trkpt>
      <trkpt lat="59.9743087" lon="17.731155">
        <ele>36.1868</ele>
        <time>2013-04-10T18:24:07Z</time>
      </trkpt>
      <trkpt lat="59.9743096" lon="17.7311091">
        <ele>35.7061</ele>
        <time>2013-04-10T18:24:08Z</time>
      </trkpt>
      <trkpt lat="59.9743111" lon="17.7310659">
        <ele>35.7061</ele>
        <time>2013-04-10T18:24:09Z</time>
      </trkpt>
      <trkpt lat="59.9743145" lon="17.7310222">
        <ele>36.1868</ele>
        <time>2013-04-10T18:24:10Z</time>
      </trkpt>
      <trkpt lat="59.9743195" lon="17.7309784">
        <ele>35.7061</ele>
        <time>2013-04-10T18:24:11Z</time>
      </trkpt>
      <trkpt lat="59.9743222" lon="17.730933">
        <ele>35.7061</ele>
        <time>2013-04-10T18:24:12Z</time>
      </trkpt>
      <trkpt lat="59.9743237" lon="17.7308859">
        <ele>36.1868</ele>
        <time>2013-04-10T18:24:13Z</time>
      </trkpt>
      <trkpt lat="59.9743263" lon="17.7308424">
        <ele>36.1868</ele>
        <time>2013-04-10T18:24:14Z</time>
      </trkpt>
      <trkpt lat="59.9743292" lon="17.7308033">
        <ele>36.6675</ele>
        <time>2013-04-10T18:24:15Z</time>
      </trkpt>
      <trkpt lat="59.9743299" lon="17.7307589">
        <ele>36.6675</ele>
        <time>2013-04-10T18:24:16Z</time>
      </trkpt>
      <trkpt lat="59.9743315" lon="17.7307138">
        <ele>36.6675</ele>
        <time>2013-04-10T18:24:17Z</time>
      </trkpt>
      <trkpt lat="59.9743361" lon="17.7306754">
        <ele>36.6675</ele>
        <time>2013-04-10T18:24:18Z</time>
      </trkpt>
      <trkpt lat="59.9743411" lon="17.7306352">
        <ele>36.6675</ele>
        <time>2013-04-10T18:24:19Z</time>
      </trkpt>
      <trkpt lat="59.9743469" lon="17.7305905">
        <ele>36.6675</ele>
        <time>2013-04-10T18:24:20Z</time>
      </trkpt>
      <trkpt lat="59.9743527" lon="17.7305475">
        <ele>36.1868</ele>
        <time>2013-04-10T18:24:21Z</time>
      </trkpt>
      <trkpt lat="59.9743584" lon="17.7305055">
        <ele>36.1868</ele>
        <time>2013-04-10T18:24:22Z</time>
      </trkpt>
      <trkpt lat="59.974365" lon="17.730463">
        <ele>36.1868</ele>
        <time>2013-04-10T18:24:23Z</time>
      </trkpt>
      <trkpt lat="59.9743703" lon="17.7304192">
        <ele>36.1868</ele>
        <time>2013-04-10T18:24:24Z</time>
      </trkpt>
      <trkpt lat="59.9743745" lon="17.7303783">
        <ele>36.1868</ele>
        <time>2013-04-10T18:24:25Z</time>
      </trkpt>
      <trkpt lat="59.9743794" lon="17.7303383">
        <ele>35.7061</ele>
        <time>2013-04-10T18:24:26Z</time>
      </trkpt>
      <trkpt lat="59.9743848" lon="17.7302933">
        <ele>35.7061</ele>
        <time>2013-04-10T18:24:27Z</time>
      </trkpt>
      <trkpt lat="59.9743895" lon="17.7302482">
        <ele>35.7061</ele>
        <time>2013-04-10T18:24:28Z</time>
      </trkpt>
      <trkpt lat="59.9743945" lon="17.7302007">
        <ele>35.7061</ele>
        <time>2013-04-10T18:24:29Z</time>
      </trkpt>
      <trkpt lat="59.9744026" lon="17.7301581">
        <ele>35.2255</ele>
        <time>2013-04-10T18:24:30Z</time>
      </trkpt>
      <trkpt lat="59.974408" lon="17.7301157">
        <ele>34.7449</ele>
        <time>2013-04-10T18:24:31Z</time>
      </trkpt>
      <trkpt lat="59.9744116" lon="17.730071">
        <ele>34.7449</ele>
        <time>2013-04-10T18:24:32Z</time>
      </trkpt>
      <trkpt lat="59.9744179" lon="17.7300229">
        <ele>34.2642</ele>
        <time>2013-04-10T18:24:33Z</time>
      </trkpt>
      <trkpt lat="59.9744225" lon="17.7299758">
        <ele>34.2642</ele>
        <time>2013-04-10T18:24:34Z</time>
      </trkpt>
      <trkpt lat="59.9744256" lon="17.7299241">
        <ele>33.7834</ele>
        <time>2013-04-10T18:24:35Z</time>
      </trkpt>
      <trkpt lat="59.9744326" lon="17.7298809">
        <ele>33.7834</ele>
        <time>2013-04-10T18:24:36Z</time>
      </trkpt>
      <trkpt lat="59.9744377" lon="17.7298385">
        <ele>33.3029</ele>
        <time>2013-04-10T18:24:37Z</time>
      </trkpt>
      <trkpt lat="59.9744399" lon="17.7297876">
        <ele>33.3029</ele>
        <time>2013-04-10T18:24:38Z</time>
      </trkpt>
      <trkpt lat="59.9744437" lon="17.7297385">
        <ele>32.8223</ele>
        <time>2013-04-10T18:24:39Z</time>
      </trkpt>
      <trkpt lat="59.974447" lon="17.7296918">
        <ele>33.3029</ele>
        <time>2013-04-10T18:24:40Z</time>
      </trkpt>
      <trkpt lat="59.9744507" lon="17.7296458">
        <ele>33.3029</ele>
        <time>2013-04-10T18:24:41Z</time>
      </trkpt>
      <trkpt lat="59.9744558" lon="17.7296">
        <ele>32.8223</ele>
        <time>2013-04-10T18:24:42Z</time>
      </trkpt>
      <trkpt lat="59.9744589" lon="17.7295523">
        <ele>32.8223</ele>
        <time>2013-04-10T18:24:43Z</time>
      </trkpt>
      <trkpt lat="59.9744623" lon="17.7295016">
        <ele>32.3416</ele>
        <time>2013-04-10T18:24:44Z</time>
      </trkpt>
      <trkpt lat="59.9744652" lon="17.729451">
        <ele>31.8607</ele>
        <time>2013-04-10T18:24:45Z</time>
      </trkpt>
      <trkpt lat="59.9744663" lon="17.7294029">
        <ele>31.8607</ele>
        <time>2013-04-10T18:24:46Z</time>
      </trkpt>
      <trkpt lat="59.9744656" lon="17.7293515">
        <ele>31.3801</ele>
        <time>2013-04-10T18:24:47Z</time>
      </trkpt>
      <trkpt lat="59.9744636" lon="17.729299">
        <ele>31.3801</ele>
        <time>2013-04-10T18:24:48Z</time>
      </trkpt>
      <trkpt lat="59.9744618" lon="17.7292552">
        <ele>31.3801</ele>
        <time>2013-04-10T18:24:49Z</time>
      </trkpt>
      <trkpt lat="59.9744601" lon="17.7292091">
        <ele>31.3801</ele>
        <time>2013-04-10T18:24:50Z</time>
      </trkpt>
      <trkpt lat="59.9744605" lon="17.7291615">
        <ele>31.3801</ele>
        <time>2013-04-10T18:24:51Z</time>
      </trkpt>
      <trkpt lat="59.9744603" lon="17.7291148">
        <ele>30.8995</ele>
        <time>2013-04-10T18:24:52Z</time>
      </trkpt>
      <trkpt lat="59.9744595" lon="17.7290664">
        <ele>30.8995</ele>
        <time>2013-04-10T18:24:53Z</time>
      </trkpt>
      <trkpt lat="59.9744598" lon="17.7290179">
        <ele>30.8995</ele>
        <time>2013-04-10T18:24:54Z</time>
      </trkpt>
      <trkpt lat="59.9744594" lon="17.7289733">
        <ele>30.4188</ele>
        <time>2013-04-10T18:24:55Z</time>
      </trkpt>
      <trkpt lat="59.9744587" lon="17.7289236">
        <ele>30.4188</ele>
        <time>2013-04-10T18:24:56Z</time>
      </trkpt>
      <trkpt lat="59.974458" lon="17.7288746">
        <ele>29.9381</ele>
        <time>2013-04-10T18:24:57Z</time>
      </trkpt>
      <trkpt lat="59.9744556" lon="17.7288284">
        <ele>29.4575</ele>
        <time>2013-04-10T18:24:58Z</time>
      </trkpt>
      <trkpt lat="59.974453" lon="17.7287807">
        <ele>29.4575</ele>
        <time>2013-04-10T18:24:59Z</time>
      </trkpt>
      <trkpt lat="59.9744511" lon="17.728732">
        <ele>29.4575</ele>
        <time>2013-04-10T18:25:00Z</time>
      </trkpt>
      <trkpt lat="59.9744491" lon="17.7286852">
        <ele>29.4575</ele>
        <time>2013-04-10T18:25:01Z</time>
      </trkpt>
      <trkpt lat="59.9744449" lon="17.7286336">
        <ele>28.9769</ele>
        <time>2013-04-10T18:25:02Z</time>
      </trkpt>
      <trkpt lat="59.974443" lon="17.7285812">
        <ele>28.9769</ele>
        <time>2013-04-10T18:25:03Z</time>
      </trkpt>
      <trkpt lat="59.9744434" lon="17.7285342">
        <ele>28.9769</ele>
        <time>2013-04-10T18:25:04Z</time>
      </trkpt>
      <trkpt lat="59.9744417" lon="17.7284852">
        <ele>28.9769</ele>
        <time>2013-04-10T18:25:05Z</time>
      </trkpt>
      <trkpt lat="59.9744401" lon="17.7284355">
        <ele>28.4962</ele>
        <time>2013-04-10T18:25:06Z</time>
      </trkpt>
      <trkpt lat="59.9744403" lon="17.7283906">
        <ele>28.4962</ele>
        <time>2013-04-10T18:25:07Z</time>
      </trkpt>
      <trkpt lat="59.9744409" lon="17.7283414">
        <ele>28.4962</ele>
        <time>2013-04-10T18:25:08Z</time>
      </trkpt>
      <trkpt lat="59.9744423" lon="17.728291">
        <ele>28.4962</ele>
        <time>2013-04-10T18:25:09Z</time>
      </trkpt>
      <trkpt lat="59.9744408" lon="17.7282459">
        <ele>28.4962</ele>
        <time>2013-04-10T18:25:10Z</time>
      </trkpt>
      <trkpt lat="59.9744402" lon="17.7281985">
        <ele>28.0155</ele>
        <time>2013-04-10T18:25:11Z</time>
      </trkpt>
      <trkpt lat="59.9744424" lon="17.7281529">
        <ele>28.0155</ele>
        <time>2013-04-10T18:25:12Z</time>
      </trkpt>
      <trkpt lat="59.9744427" lon="17.7281083">
        <ele>27.5349</ele>
        <time>2013-04-10T18:25:13Z</time>
      </trkpt>
      <trkpt lat="59.974443" lon="17.7280607">
        <ele>27.5349</ele>
        <time>2013-04-10T18:25:14Z</time>
      </trkpt>
      <trkpt lat="59.9744448" lon="17.7280166">
        <ele>27.0543</ele>
        <time>2013-04-10T18:25:15Z</time>
      </trkpt>
      <trkpt lat="59.9744459" lon="17.7279786">
        <ele>26.5736</ele>
        <time>2013-04-10T18:25:16Z</time>
      </trkpt>
      <trkpt lat="59.9744458" lon="17.7279325">
        <ele>26.5736</ele>
        <time>2013-04-10T18:25:17Z</time>
      </trkpt>
      <trkpt lat="59.9744465" lon="17.7278909">
        <ele>26.0929</ele>
        <time>2013-04-10T18:25:18Z</time>
      </trkpt>
      <trkpt lat="59.9744444" lon="17.7278455">
        <ele>25.6123</ele>
        <time>2013-04-10T18:25:19Z</time>
      </trkpt>
      <trkpt lat="59.9744447" lon="17.7277985">
        <ele>25.6123</ele>
        <time>2013-04-10T18:25:20Z</time>
      </trkpt>
      <trkpt lat="59.9744463" lon="17.7277603">
        <ele>25.1317</ele>
        <time>2013-04-10T18:25:21Z</time>
      </trkpt>
      <trkpt lat="59.9744465" lon="17.7277162">
        <ele>25.6123</ele>
        <time>2013-04-10T18:25:22Z</time>
      </trkpt>
      <trkpt lat="59.9744464" lon="17.7276671">
        <ele>25.6123</ele>
        <time>2013-04-10T18:25:23Z</time>
      </trkpt>
      <trkpt lat="59.9744427" lon="17.7276162">
        <ele>25.6123</ele>
        <time>2013-04-10T18:25:24Z</time>
      </trkpt>
      <trkpt lat="59.9744393" lon="17.7275654">
        <ele>26.0929</ele>
        <time>2013-04-10T18:25:25Z</time>
      </trkpt>
      <trkpt lat="59.9744376" lon="17.727513">
        <ele>26.0929</ele>
        <time>2013-04-10T18:25:26Z</time>
      </trkpt>
      <trkpt lat="59.9744354" lon="17.7274624">
        <ele>26.5736</ele>
        <time>2013-04-10T18:25:27Z</time>
      </trkpt>
      <trkpt lat="59.9744336" lon="17.727414">
        <ele>26.5736</ele>
        <time>2013-04-10T18:25:28Z</time>
      </trkpt>
      <trkpt lat="59.9744335" lon="17.7273697">
        <ele>26.5736</ele>
        <time>2013-04-10T18:25:29Z</time>
      </trkpt>
      <trkpt lat="59.974432" lon="17.7273214">
        <ele>27.0543</ele>
        <time>2013-04-10T18:25:30Z</time>
      </trkpt>
      <trkpt lat="59.9744305" lon="17.7272697">
        <ele>27.0543</ele>
        <time>2013-04-10T18:25:31Z</time>
      </trkpt>
      <trkpt lat="59.9744292" lon="17.7272194">
        <ele>27.0543</ele>
        <time>2013-04-10T18:25:32Z</time>
      </trkpt>
      <trkpt lat="59.9744278" lon="17.7271722">
        <ele>27.0543</ele>
        <time>2013-04-10T18:25:33Z</time>
      </trkpt>
      <trkpt lat="59.9744263" lon="17.7271251">
        <ele>27.0543</ele>
        <time>2013-04-10T18:25:34Z</time>
      </trkpt>
      <trkpt lat="59.9744232" lon="17.7270775">
        <ele>27.0543</ele>
        <time>2013-04-10T18:25:35Z</time>
      </trkpt>
      <trkpt lat="59.9744206" lon="17.7270261">
        <ele>27.0543</ele>
        <time>2013-04-10T18:25:36Z</time>
      </trkpt>
      <trkpt lat="59.9744207" lon="17.7269794">
        <ele>27.0543</ele>
        <time>2013-04-10T18:25:37Z</time>
      </trkpt>
      <trkpt lat="59.974419" lon="17.7269329">
        <ele>26.5736</ele>
        <time>2013-04-10T18:25:38Z</time>
      </trkpt>
      <trkpt lat="59.974416" lon="17.7268857">
        <ele>26.5736</ele>
        <time>2013-04-10T18:25:39Z</time>
      </trkpt>
      <trkpt lat="59.9744147" lon="17.7268402">
        <ele>26.5736</ele>
        <time>2013-04-10T18:25:40Z</time>
      </trkpt>
      <trkpt lat="59.9744124" lon="17.7267941">
        <ele>26.0929</ele>
        <time>2013-04-10T18:25:41Z</time>
      </trkpt>
      <trkpt lat="59.9744116" lon="17.7267463">
        <ele>26.5736</ele>
        <time>2013-04-10T18:25:42Z</time>
      </trkpt>
      <trkpt lat="59.9744098" lon="17.726701">
        <ele>26.0929</ele>
        <time>2013-04-10T18:25:43Z</time>
      </trkpt>
      <trkpt lat="59.9744072" lon="17.7266549">
        <ele>26.0929</ele>
        <time>2013-04-10T18:25:44Z</time>
      </trkpt>
      <trkpt lat="59.9744066" lon="17.7266122">
        <ele>26.0929</ele>
        <time>2013-04-10T18:25:45Z</time>
      </trkpt>
      <trkpt lat="59.9744051" lon="17.7265673">
        <ele>26.0929</ele>
        <time>2013-04-10T18:25:46Z</time>
      </trkpt>
      <trkpt lat="59.9744026" lon="17.7265246">
        <ele>26.0929</ele>
        <time>2013-04-10T18:25:47Z</time>
      </trkpt>
      <trkpt lat="59.9744018" lon="17.7264802">
        <ele>26.0929</ele>
        <time>2013-04-10T18:25:48Z</time>
      </trkpt>
      <trkpt lat="59.9744012" lon="17.7264336">
        <ele>26.0929</ele>
        <time>2013-04-10T18:25:49Z</time>
      </trkpt>
      <trkpt lat="59.9743981" lon="17.7263888">
        <ele>26.0929</ele>
        <time>2013-04-10T18:25:50Z</time>
      </trkpt>
      <trkpt lat="59.9743968" lon="17.7263435">
        <ele>26.0929</ele>
        <time>2013-04-10T18:25:51Z</time>
      </trkpt>
      <trkpt lat="59.9743953" lon="17.7262967">
        <ele>26.0929</ele>
        <time>2013-04-10T18:25:52Z</time>
      </trkpt>
      <trkpt lat="59.9743937" lon="17.7262534">
        <ele>26.0929</ele>
        <time>2013-04-10T18:25:53Z</time>
      </trkpt>
      <trkpt lat="59.974389" lon="17.7262061">
        <ele>26.0929</ele>
        <time>2013-04-10T18:25:54Z</time>
      </trkpt>
      <trkpt lat="59.9743839" lon="17.7261554">
        <ele>26.0929</ele>
        <time>2013-04-10T18:25:55Z</time>
      </trkpt>
      <trkpt lat="59.9743826" lon="17.7261083">
        <ele>26.0929</ele>
        <time>2013-04-10T18:25:56Z</time>
      </trkpt>
      <trkpt lat="59.9743797" lon="17.7260617">
        <ele>26.0929</ele>
        <time>2013-04-10T18:25:57Z</time>
      </trkpt>
      <trkpt lat="59.9743741" lon="17.7260117">
        <ele>26.5736</ele>
        <time>2013-04-10T18:25:58Z</time>
      </trkpt>
      <trkpt lat="59.9743724" lon="17.7259704">
        <ele>26.0929</ele>
        <time>2013-04-10T18:25:59Z</time>
      </trkpt>
      <trkpt lat="59.9743712" lon="17.7259327">
        <ele>26.0929</ele>
        <time>2013-04-10T18:26:00Z</time>
      </trkpt>
      <trkpt lat="59.9743679" lon="17.7258928">
        <ele>26.0929</ele>
        <time>2013-04-10T18:26:01Z</time>
      </trkpt>
      <trkpt lat="59.9743649" lon="17.7258498">
        <ele>26.0929</ele>
        <time>2013-04-10T18:26:02Z</time>
      </trkpt>
      <trkpt lat="59.9743615" lon="17.7258083">
        <ele>26.0929</ele>
        <time>2013-04-10T18:26:03Z</time>
      </trkpt>
      <trkpt lat="59.9743568" lon="17.7257643">
        <ele>26.0929</ele>
        <time>2013-04-10T18:26:04Z</time>
      </trkpt>
      <trkpt lat="59.9743543" lon="17.7257197">
        <ele>25.6123</ele>
        <time>2013-04-10T18:26:05Z</time>
      </trkpt>
      <trkpt lat="59.9743528" lon="17.7256747">
        <ele>25.6123</ele>
        <time>2013-04-10T18:26:06Z</time>
      </trkpt>
      <trkpt lat="59.9743482" lon="17.7256308">
        <ele>25.1317</ele>
        <time>2013-04-10T18:26:07Z</time>
      </trkpt>
      <trkpt lat="59.9743429" lon="17.7255898">
        <ele>25.1317</ele>
        <time>2013-04-10T18:26:08Z</time>
      </trkpt>
      <trkpt lat="59.9743393" lon="17.7255528">
        <ele>24.651</ele>
        <time>2013-04-10T18:26:09Z</time>
      </trkpt>
      <trkpt lat="59.9743359" lon="17.7255167">
        <ele>24.651</ele>
        <time>2013-04-10T18:26:10Z</time>
      </trkpt>
      <trkpt lat="59.9743302" lon="17.7254722">
        <ele>24.651</ele>
        <time>2013-04-10T18:26:11Z</time>
      </trkpt>
      <trkpt lat="59.9743241" lon="17.7254245">
        <ele>24.651</ele>
        <time>2013-04-10T18:26:12Z</time>
      </trkpt>
      <trkpt lat="59.9743199" lon="17.7253831">
        <ele>24.651</ele>
        <time>2013-04-10T18:26:13Z</time>
      </trkpt>
      <trkpt lat="59.974314" lon="17.7253375">
        <ele>24.651</ele>
        <time>2013-04-10T18:26:14Z</time>
      </trkpt>
      <trkpt lat="59.9743069" lon="17.7252866">
        <ele>25.1317</ele>
        <time>2013-04-10T18:26:15Z</time>
      </trkpt>
      <trkpt lat="59.9743002" lon="17.7252364">
        <ele>25.1317</ele>
        <time>2013-04-10T18:26:16Z</time>
      </trkpt>
      <trkpt lat="59.974294" lon="17.7251919">
        <ele>25.1317</ele>
        <time>2013-04-10T18:26:17Z</time>
      </trkpt>
      <trkpt lat="59.9742888" lon="17.7251449">
        <ele>25.1317</ele>
        <time>2013-04-10T18:26:18Z</time>
      </trkpt>
      <trkpt lat="59.9742849" lon="17.7250997">
        <ele>25.6123</ele>
        <time>2013-04-10T18:26:19Z</time>
      </trkpt>
      <trkpt lat="59.9742811" lon="17.7250601">
        <ele>25.1317</ele>
        <time>2013-04-10T18:26:20Z</time>
      </trkpt>
      <trkpt lat="59.9742753" lon="17.725019">
        <ele>25.1317</ele>
        <time>2013-04-10T18:26:21Z</time>
      </trkpt>
      <trkpt lat="59.9742683" lon="17.7249706">
        <ele>25.6123</ele>
        <time>2013-04-10T18:26:22Z</time>
      </trkpt>
      <trkpt lat="59.9742642" lon="17.7249272">
        <ele>25.1317</ele>
        <time>2013-04-10T18:26:23Z</time>
      </trkpt>
      <trkpt lat="59.974261" lon="17.7248894">
        <ele>25.1317</ele>
        <time>2013-04-10T18:26:24Z</time>
      </trkpt>
      <trkpt lat="59.9742543" lon="17.7248491">
        <ele>25.1317</ele>
        <time>2013-04-10T18:26:25Z</time>
      </trkpt>
      <trkpt lat="59.9742475" lon="17.7248048">
        <ele>25.1317</ele>
        <time>2013-04-10T18:26:26Z</time>
      </trkpt>
      <trkpt lat="59.9742415" lon="17.7247604">
        <ele>25.1317</ele>
        <time>2013-04-10T18:26:27Z</time>
      </trkpt>
      <trkpt lat="59.9742342" lon="17.7247195">
        <ele>25.1317</ele>
        <time>2013-04-10T18:26:28Z</time>
      </trkpt>
      <trkpt lat="59.9742261" lon="17.7246712">
        <ele>24.651</ele>
        <time>2013-04-10T18:26:29Z</time>
      </trkpt>
      <trkpt lat="59.9742191" lon="17.7246231">
        <ele>24.651</ele>
        <time>2013-04-10T18:26:30Z</time>
      </trkpt>
      <trkpt lat="59.9742128" lon="17.7245812">
        <ele>25.1317</ele>
        <time>2013-04-10T18:26:31Z</time>
      </trkpt>
      <trkpt lat="59.9742051" lon="17.7245401">
        <ele>25.1317</ele>
        <time>2013-04-10T18:26:32Z</time>
      </trkpt>
      <trkpt lat="59.9741958" lon="17.7244908">
        <ele>25.1317</ele>
        <time>2013-04-10T18:26:33Z</time>
      </trkpt>
      <trkpt lat="59.9741862" lon="17.7244425">
        <ele>25.1317</ele>
        <time>2013-04-10T18:26:34Z</time>
      </trkpt>
      <trkpt lat="59.9741765" lon="17.7243968">
        <ele>25.1317</ele>
        <time>2013-04-10T18:26:35Z</time>
      </trkpt>
      <trkpt lat="59.9741683" lon="17.7243465">
        <ele>25.1317</ele>
        <time>2013-04-10T18:26:36Z</time>
      </trkpt>
      <trkpt lat="59.9741616" lon="17.7242967">
        <ele>24.651</ele>
        <time>2013-04-10T18:26:37Z</time>
      </trkpt>
      <trkpt lat="59.9741552" lon="17.7242538">
        <ele>24.651</ele>
        <time>2013-04-10T18:26:38Z</time>
      </trkpt>
      <trkpt lat="59.9741474" lon="17.7242063">
        <ele>25.1317</ele>
        <time>2013-04-10T18:26:39Z</time>
      </trkpt>
      <trkpt lat="59.9741427" lon="17.7241636">
        <ele>25.1317</ele>
        <time>2013-04-10T18:26:40Z</time>
      </trkpt>
      <trkpt lat="59.9741362" lon="17.7241139">
        <ele>25.1317</ele>
        <time>2013-04-10T18:26:41Z</time>
      </trkpt>
      <trkpt lat="59.9741256" lon="17.7240638">
        <ele>25.1317</ele>
        <time>2013-04-10T18:26:42Z</time>
      </trkpt>
      <trkpt lat="59.974117" lon="17.7240192">
        <ele>24.651</ele>
        <time>2013-04-10T18:26:43Z</time>
      </trkpt>
      <trkpt lat="59.9741113" lon="17.7239737">
        <ele>24.1703</ele>
        <time>2013-04-10T18:26:44Z</time>
      </trkpt>
      <trkpt lat="59.974107" lon="17.72393">
        <ele>24.1703</ele>
        <time>2013-04-10T18:26:45Z</time>
      </trkpt>
      <trkpt lat="59.9741025" lon="17.7238845">
        <ele>24.1703</ele>
        <time>2013-04-10T18:26:46Z</time>
      </trkpt>
      <trkpt lat="59.9741003" lon="17.7238399">
        <ele>24.1703</ele>
        <time>2013-04-10T18:26:47Z</time>
      </trkpt>
      <trkpt lat="59.9740973" lon="17.7237948">
        <ele>24.1703</ele>
        <time>2013-04-10T18:26:48Z</time>
      </trkpt>
      <trkpt lat="59.9740904" lon="17.7237462">
        <ele>24.651</ele>
        <time>2013-04-10T18:26:49Z</time>
      </trkpt>
      <trkpt lat="59.9740831" lon="17.7236945">
        <ele>24.651</ele>
        <time>2013-04-10T18:26:50Z</time>
      </trkpt>
      <trkpt lat="59.9740782" lon="17.723647">
        <ele>24.651</ele>
        <time>2013-04-10T18:26:51Z</time>
      </trkpt>
      <trkpt lat="59.9740745" lon="17.7236071">
        <ele>24.651</ele>
        <time>2013-04-10T18:26:52Z</time>
      </trkpt>
      <trkpt lat="59.9740693" lon="17.7235658">
        <ele>24.1703</ele>
        <time>2013-04-10T18:26:53Z</time>
      </trkpt>
      <trkpt lat="59.9740637" lon="17.7235189">
        <ele>24.1703</ele>
        <time>2013-04-10T18:26:54Z</time>
      </trkpt>
      <trkpt lat="59.9740578" lon="17.723475">
        <ele>24.651</ele>
        <time>2013-04-10T18:26:55Z</time>
      </trkpt>
      <trkpt lat="59.97405" lon="17.7234313">
        <ele>24.651</ele>
        <time>2013-04-10T18:26:56Z</time>
      </trkpt>
      <trkpt lat="59.9740428" lon="17.7233815">
        <ele>25.1317</ele>
        <time>2013-04-10T18:26:57Z</time>
      </trkpt>
      <trkpt lat="59.9740365" lon="17.7233319">
        <ele>25.1317</ele>
        <time>2013-04-10T18:26:58Z</time>
      </trkpt>
      <trkpt lat="59.9740298" lon="17.7232868">
        <ele>25.6123</ele>
        <time>2013-04-10T18:26:59Z</time>
      </trkpt>
      <trkpt lat="59.9740225" lon="17.7232447">
        <ele>25.1317</ele>
        <time>2013-04-10T18:27:00Z</time>
      </trkpt>
      <trkpt lat="59.974015" lon="17.7232017">
        <ele>25.6123</ele>
        <time>2013-04-10T18:27:01Z</time>
      </trkpt>
      <trkpt lat="59.9740075" lon="17.7231592">
        <ele>25.6123</ele>
        <time>2013-04-10T18:27:02Z</time>
      </trkpt>
      <trkpt lat="59.9739997" lon="17.723116">
        <ele>25.1317</ele>
        <time>2013-04-10T18:27:03Z</time>
      </trkpt>
      <trkpt lat="59.9739925" lon="17.7230705">
        <ele>25.6123</ele>
        <time>2013-04-10T18:27:04Z</time>
      </trkpt>
      <trkpt lat="59.9739861" lon="17.7230342">
        <ele>25.6123</ele>
        <time>2013-04-10T18:27:05Z</time>
      </trkpt>
      <trkpt lat="59.9739772" lon="17.7229936">
        <ele>26.0929</ele>
        <time>2013-04-10T18:27:06Z</time>
      </trkpt>
      <trkpt lat="59.9739664" lon="17.7229457">
        <ele>26.0929</ele>
        <time>2013-04-10T18:27:07Z</time>
      </trkpt>
      <trkpt lat="59.9739569" lon="17.7229034">
        <ele>26.0929</ele>
        <time>2013-04-10T18:27:08Z</time>
      </trkpt>
      <trkpt lat="59.9739471" lon="17.7228604">
        <ele>26.0929</ele>
        <time>2013-04-10T18:27:09Z</time>
      </trkpt>
      <trkpt lat="59.9739372" lon="17.7228097">
        <ele>26.0929</ele>
        <time>2013-04-10T18:27:10Z</time>
      </trkpt>
      <trkpt lat="59.9739307" lon="17.7227687">
        <ele>26.0929</ele>
        <time>2013-04-10T18:27:11Z</time>
      </trkpt>
      <trkpt lat="59.9739239" lon="17.7227346">
        <ele>26.0929</ele>
        <time>2013-04-10T18:27:12Z</time>
      </trkpt>
      <trkpt lat="59.973913" lon="17.7226946">
        <ele>25.6123</ele>
        <time>2013-04-10T18:27:13Z</time>
      </trkpt>
      <trkpt lat="59.9739015" lon="17.722647">
        <ele>26.0929</ele>
        <time>2013-04-10T18:27:14Z</time>
      </trkpt>
      <trkpt lat="59.9738907" lon="17.7226053">
        <ele>26.0929</ele>
        <time>2013-04-10T18:27:15Z</time>
      </trkpt>
      <trkpt lat="59.973878" lon="17.7225645">
        <ele>26.5736</ele>
        <time>2013-04-10T18:27:16Z</time>
      </trkpt>
      <trkpt lat="59.9738652" lon="17.7225224">
        <ele>27.0543</ele>
        <time>2013-04-10T18:27:17Z</time>
      </trkpt>
      <trkpt lat="59.9738544" lon="17.722483">
        <ele>27.5349</ele>
        <time>2013-04-10T18:27:18Z</time>
      </trkpt>
      <trkpt lat="59.9738409" lon="17.7224366">
        <ele>28.0155</ele>
        <time>2013-04-10T18:27:19Z</time>
      </trkpt>
      <trkpt lat="59.9738271" lon="17.7223942">
        <ele>28.0155</ele>
        <time>2013-04-10T18:27:20Z</time>
      </trkpt>
      <trkpt lat="59.9738155" lon="17.7223523">
        <ele>28.4962</ele>
        <time>2013-04-10T18:27:21Z</time>
      </trkpt>
      <trkpt lat="59.9738046" lon="17.7223189">
        <ele>28.4962</ele>
        <time>2013-04-10T18:27:22Z</time>
      </trkpt>
      <trkpt lat="59.9737928" lon="17.7222857">
        <ele>28.9769</ele>
        <time>2013-04-10T18:27:23Z</time>
      </trkpt>
      <trkpt lat="59.9737789" lon="17.7222486">
        <ele>29.4575</ele>
        <time>2013-04-10T18:27:24Z</time>
      </trkpt>
      <trkpt lat="59.9737646" lon="17.7222035">
        <ele>29.4575</ele>
        <time>2013-04-10T18:27:25Z</time>
      </trkpt>
      <trkpt lat="59.9737511" lon="17.722162">
        <ele>29.9381</ele>
        <time>2013-04-10T18:27:26Z</time>
      </trkpt>
      <trkpt lat="59.9737372" lon="17.7221213">
        <ele>29.9381</ele>
        <time>2013-04-10T18:27:27Z</time>
      </trkpt>
      <trkpt lat="59.9737254" lon="17.7220762">
        <ele>30.4188</ele>
        <time>2013-04-10T18:27:28Z</time>
      </trkpt>
      <trkpt lat="59.9737124" lon="17.7220372">
        <ele>30.4188</ele>
        <time>2013-04-10T18:27:29Z</time>
      </trkpt>
      <trkpt lat="59.9736959" lon="17.721998">
        <ele>30.4188</ele>
        <time>2013-04-10T18:27:30Z</time>
      </trkpt>
      <trkpt lat="59.9736824" lon="17.7219554">
        <ele>30.8995</ele>
        <time>2013-04-10T18:27:31Z</time>
      </trkpt>
      <trkpt lat="59.9736698" lon="17.7219108">
        <ele>30.8995</ele>
        <time>2013-04-10T18:27:32Z</time>
      </trkpt>
      <trkpt lat="59.9736555" lon="17.7218689">
        <ele>30.8995</ele>
        <time>2013-04-10T18:27:33Z</time>
      </trkpt>
      <trkpt lat="59.97364" lon="17.7218347">
        <ele>31.3801</ele>
        <time>2013-04-10T18:27:34Z</time>
      </trkpt>
      <trkpt lat="59.9736265" lon="17.7217922">
        <ele>31.3801</ele>
        <time>2013-04-10T18:27:35Z</time>
      </trkpt>
      <trkpt lat="59.9736141" lon="17.7217513">
        <ele>31.3801</ele>
        <time>2013-04-10T18:27:36Z</time>
      </trkpt>
      <trkpt lat="59.9736" lon="17.7217214">
        <ele>31.3801</ele>
        <time>2013-04-10T18:27:37Z</time>
      </trkpt>
      <trkpt lat="59.973584" lon="17.7216864">
        <ele>31.3801</ele>
        <time>2013-04-10T18:27:38Z</time>
      </trkpt>
      <trkpt lat="59.9735695" lon="17.7216529">
        <ele>31.8607</ele>
        <time>2013-04-10T18:27:39Z</time>
      </trkpt>
      <trkpt lat="59.9735545" lon="17.7216181">
        <ele>31.8607</ele>
        <time>2013-04-10T18:27:40Z</time>
      </trkpt>
      <trkpt lat="59.9735379" lon="17.7215793">
        <ele>32.3416</ele>
        <time>2013-04-10T18:27:41Z</time>
      </trkpt>
      <trkpt lat="59.9735243" lon="17.7215456">
        <ele>32.8223</ele>
        <time>2013-04-10T18:27:42Z</time>
      </trkpt>
      <trkpt lat="59.9735134" lon="17.7215183">
        <ele>32.8223</ele>
        <time>2013-04-10T18:27:43Z</time>
      </trkpt>
      <trkpt lat="59.973499" lon="17.7214885">
        <ele>33.3029</ele>
        <time>2013-04-10T18:27:44Z</time>
      </trkpt>
      <trkpt lat="59.9734836" lon="17.7214536">
        <ele>33.7834</ele>
        <time>2013-04-10T18:27:45Z</time>
      </trkpt>
      <trkpt lat="59.973469" lon="17.7214239">
        <ele>34.2642</ele>
        <time>2013-04-10T18:27:46Z</time>
      </trkpt>
      <trkpt lat="59.9734553" lon="17.7213939">
        <ele>34.7449</ele>
        <time>2013-04-10T18:27:47Z</time>
      </trkpt>
      <trkpt lat="59.9734419" lon="17.721354">
        <ele>34.7449</ele>
        <time>2013-04-10T18:27:48Z</time>
      </trkpt>
      <trkpt lat="59.9734268" lon="17.7213187">
        <ele>35.2255</ele>
        <time>2013-04-10T18:27:49Z</time>
      </trkpt>
      <trkpt lat="59.9734074" lon="17.7212923">
        <ele>35.7061</ele>
        <time>2013-04-10T18:27:50Z</time>
      </trkpt>
      <trkpt lat="59.9733887" lon="17.7212645">
        <ele>35.7061</ele>
        <time>2013-04-10T18:27:51Z</time>
      </trkpt>
      <trkpt lat="59.9733742" lon="17.7212315">
        <ele>35.7061</ele>
        <time>2013-04-10T18:27:52Z</time>
      </trkpt>
      <trkpt lat="59.9733617" lon="17.7211991">
        <ele>35.7061</ele>
        <time>2013-04-10T18:27:53Z</time>
      </trkpt>
      <trkpt lat="59.9733462" lon="17.7211665">
        <ele>36.1868</ele>
        <time>2013-04-10T18:27:54Z</time>
      </trkpt>
      <trkpt lat="59.9733297" lon="17.7211276">
        <ele>36.1868</ele>
        <time>2013-04-10T18:27:55Z</time>
      </trkpt>
      <trkpt lat="59.9733135" lon="17.7210883">
        <ele>36.1868</ele>
        <time>2013-04-10T18:27:56Z</time>
      </trkpt>
      <trkpt lat="59.9732956" lon="17.7210588">
        <ele>36.6675</ele>
        <time>2013-04-10T18:27:57Z</time>
      </trkpt>
      <trkpt lat="59.9732778" lon="17.7210333">
        <ele>36.6675</ele>
        <time>2013-04-10T18:27:58Z</time>
      </trkpt>
      <trkpt lat="59.9732628" lon="17.7210018">
        <ele>36.6675</ele>
        <time>2013-04-10T18:27:59Z</time>
      </trkpt>
      <trkpt lat="59.97325" lon="17.720971">
        <ele>37.1481</ele>
        <time>2013-04-10T18:28:00Z</time>
      </trkpt>
      <trkpt lat="59.9732355" lon="17.7209463">
        <ele>37.1481</ele>
        <time>2013-04-10T18:28:01Z</time>
      </trkpt>
      <trkpt lat="59.9732179" lon="17.7209225">
        <ele>37.6287</ele>
        <time>2013-04-10T18:28:02Z</time>
      </trkpt>
      <trkpt lat="59.9731977" lon="17.720901">
        <ele>37.6287</ele>
        <time>2013-04-10T18:28:03Z</time>
      </trkpt>
      <trkpt lat="59.9731777" lon="17.7208762">
        <ele>37.6287</ele>
        <time>2013-04-10T18:28:04Z</time>
      </trkpt>
      <trkpt lat="59.9731603" lon="17.7208531">
        <ele>38.1094</ele>
        <time>2013-04-10T18:28:05Z</time>
      </trkpt>
      <trkpt lat="59.9731428" lon="17.7208298">
        <ele>37.6287</ele>
        <time>2013-04-10T18:28:06Z</time>
      </trkpt>
      <trkpt lat="59.9731222" lon="17.7207946">
        <ele>38.1094</ele>
        <time>2013-04-10T18:28:07Z</time>
      </trkpt>
      <trkpt lat="59.9731007" lon="17.720768">
        <ele>38.1094</ele>
        <time>2013-04-10T18:28:08Z</time>
      </trkpt>
      <trkpt lat="59.9730804" lon="17.7207475">
        <ele>37.6287</ele>
        <time>2013-04-10T18:28:09Z</time>
      </trkpt>
      <trkpt lat="59.973059" lon="17.7207132">
        <ele>37.6287</ele>
        <time>2013-04-10T18:28:10Z</time>
      </trkpt>
      <trkpt lat="59.9730388" lon="17.7206832">
        <ele>37.6287</ele>
        <time>2013-04-10T18:28:11Z</time>
      </trkpt>
      <trkpt lat="59.9730194" lon="17.7206628">
        <ele>37.6287</ele>
        <time>2013-04-10T18:28:12Z</time>
      </trkpt>
      <trkpt lat="59.9730022" lon="17.7206346">
        <ele>37.6287</ele>
        <time>2013-04-10T18:28:13Z</time>
      </trkpt>
      <trkpt lat="59.9729857" lon="17.7206076">
        <ele>37.6287</ele>
        <time>2013-04-10T18:28:14Z</time>
      </trkpt>
      <trkpt lat="59.9729682" lon="17.7205928">
        <ele>37.6287</ele>
        <time>2013-04-10T18:28:15Z</time>
      </trkpt>
      <trkpt lat="59.9729484" lon="17.7205763">
        <ele>38.1094</ele>
        <time>2013-04-10T18:28:16Z</time>
      </trkpt>
      <trkpt lat="59.9729298" lon="17.720556">
        <ele>38.1094</ele>
        <time>2013-04-10T18:28:17Z</time>
      </trkpt>
      <trkpt lat="59.9729106" lon="17.7205303">
        <ele>38.1094</ele>
        <time>2013-04-10T18:28:18Z</time>
      </trkpt>
      <trkpt lat="59.9728877" lon="17.7205085">
        <ele>38.1094</ele>
        <time>2013-04-10T18:28:19Z</time>
      </trkpt>
      <trkpt lat="59.9728672" lon="17.7204941">
        <ele>38.5901</ele>
        <time>2013-04-10T18:28:20Z</time>
      </trkpt>
      <trkpt lat="59.9728496" lon="17.7204776">
        <ele>39.0707</ele>
        <time>2013-04-10T18:28:21Z</time>
      </trkpt>
      <trkpt lat="59.9728298" lon="17.7204566">
        <ele>39.5513</ele>
        <time>2013-04-10T18:28:22Z</time>
      </trkpt>
      <trkpt lat="59.9728081" lon="17.7204357">
        <ele>39.5513</ele>
        <time>2013-04-10T18:28:23Z</time>
      </trkpt>
      <trkpt lat="59.9727886" lon="17.7204191">
        <ele>40.0321</ele>
        <time>2013-04-10T18:28:24Z</time>
      </trkpt>
      <trkpt lat="59.9727697" lon="17.720397">
        <ele>40.5128</ele>
        <time>2013-04-10T18:28:25Z</time>
      </trkpt>
      <trkpt lat="59.9727484" lon="17.7203735">
        <ele>40.5128</ele>
        <time>2013-04-10T18:28:26Z</time>
      </trkpt>
      <trkpt lat="59.9727232" lon="17.7203604">
        <ele>40.5128</ele>
        <time>2013-04-10T18:28:27Z</time>
      </trkpt>
      <trkpt lat="59.9726978" lon="17.7203485">
        <ele>40.5128</ele>
        <time>2013-04-10T18:28:28Z</time>
      </trkpt>
      <trkpt lat="59.9726747" lon="17.7203289">
        <ele>40.9934</ele>
        <time>2013-04-10T18:28:29Z</time>
      </trkpt>
      <trkpt lat="59.9726534" lon="17.7203053">
        <ele>40.9934</ele>
        <time>2013-04-10T18:28:30Z</time>
      </trkpt>
      <trkpt lat="59.9726317" lon="17.7202874">
        <ele>41.474</ele>
        <time>2013-04-10T18:28:31Z</time>
      </trkpt>
      <trkpt lat="59.9726091" lon="17.7202729">
        <ele>41.9547</ele>
        <time>2013-04-10T18:28:32Z</time>
      </trkpt>
      <trkpt lat="59.9725869" lon="17.7202574">
        <ele>42.4354</ele>
        <time>2013-04-10T18:28:33Z</time>
      </trkpt>
      <trkpt lat="59.9725655" lon="17.7202429">
        <ele>42.4354</ele>
        <time>2013-04-10T18:28:34Z</time>
      </trkpt>
      <trkpt lat="59.9725407" lon="17.7202268">
        <ele>42.4354</ele>
        <time>2013-04-10T18:28:35Z</time>
      </trkpt>
      <trkpt lat="59.9725149" lon="17.7202105">
        <ele>42.916</ele>
        <time>2013-04-10T18:28:36Z</time>
      </trkpt>
      <trkpt lat="59.9724924" lon="17.720194">
        <ele>42.916</ele>
        <time>2013-04-10T18:28:37Z</time>
      </trkpt>
      <trkpt lat="59.9724717" lon="17.720176">
        <ele>42.916</ele>
        <time>2013-04-10T18:28:38Z</time>
      </trkpt>
      <trkpt lat="59.9724511" lon="17.7201553">
        <ele>42.916</ele>
        <time>2013-04-10T18:28:39Z</time>
      </trkpt>
      <trkpt lat="59.9724322" lon="17.7201382">
        <ele>42.916</ele>
        <time>2013-04-10T18:28:40Z</time>
      </trkpt>
      <trkpt lat="59.9724139" lon="17.7201232">
        <ele>42.916</ele>
        <time>2013-04-10T18:28:41Z</time>
      </trkpt>
      <trkpt lat="59.972394" lon="17.7201045">
        <ele>42.916</ele>
        <time>2013-04-10T18:28:42Z</time>
      </trkpt>
      <trkpt lat="59.9723748" lon="17.7200834">
        <ele>42.916</ele>
        <time>2013-04-10T18:28:43Z</time>
      </trkpt>
      <trkpt lat="59.9723558" lon="17.7200629">
        <ele>42.916</ele>
        <time>2013-04-10T18:28:44Z</time>
      </trkpt>
      <trkpt lat="59.972335" lon="17.7200432">
        <ele>42.916</ele>
        <time>2013-04-10T18:28:45Z</time>
      </trkpt>
      <trkpt lat="59.9723121" lon="17.7200268">
        <ele>43.3966</ele>
        <time>2013-04-10T18:28:46Z</time>
      </trkpt>
      <trkpt lat="59.9722911" lon="17.7200165">
        <ele>43.3966</ele>
        <time>2013-04-10T18:28:47Z</time>
      </trkpt>
      <trkpt lat="59.9722711" lon="17.7200025">
        <ele>42.916</ele>
        <time>2013-04-10T18:28:48Z</time>
      </trkpt>
      <trkpt lat="59.9722511" lon="17.7199807">
        <ele>43.3966</ele>
        <time>2013-04-10T18:28:49Z</time>
      </trkpt>
      <trkpt lat="59.9722319" lon="17.7199636">
        <ele>43.3966</ele>
        <time>2013-04-10T18:28:50Z</time>
      </trkpt>
      <trkpt lat="59.9722107" lon="17.7199533">
        <ele>43.3966</ele>
        <time>2013-04-10T18:28:51Z</time>
      </trkpt>
      <trkpt lat="59.972188" lon="17.7199372">
        <ele>43.3966</ele>
        <time>2013-04-10T18:28:52Z</time>
      </trkpt>
      <trkpt lat="59.9721701" lon="17.7199103">
        <ele>43.3966</ele>
        <time>2013-04-10T18:28:53Z</time>
      </trkpt>
      <trkpt lat="59.9721491" lon="17.7198889">
        <ele>42.916</ele>
        <time>2013-04-10T18:28:54Z</time>
      </trkpt>
      <trkpt lat="59.9721221" lon="17.7198751">
        <ele>42.916</ele>
        <time>2013-04-10T18:28:55Z</time>
      </trkpt>
      <trkpt lat="59.9720985" lon="17.7198586">
        <ele>42.916</ele>
        <time>2013-04-10T18:28:56Z</time>
      </trkpt>
      <trkpt lat="59.9720792" lon="17.7198409">
        <ele>43.3966</ele>
        <time>2013-04-10T18:28:57Z</time>
      </trkpt>
      <trkpt lat="59.9720553" lon="17.7198205">
        <ele>43.3966</ele>
        <time>2013-04-10T18:28:58Z</time>
      </trkpt>
      <trkpt lat="59.9720296" lon="17.7197992">
        <ele>43.3966</ele>
        <time>2013-04-10T18:28:59Z</time>
      </trkpt>
      <trkpt lat="59.9720072" lon="17.7197804">
        <ele>43.8773</ele>
        <time>2013-04-10T18:29:00Z</time>
      </trkpt>
      <trkpt lat="59.9719832" lon="17.7197581">
        <ele>43.8773</ele>
        <time>2013-04-10T18:29:01Z</time>
      </trkpt>
      <trkpt lat="59.9719598" lon="17.7197357">
        <ele>43.8773</ele>
        <time>2013-04-10T18:29:02Z</time>
      </trkpt>
      <trkpt lat="59.9719382" lon="17.7197159">
        <ele>43.8773</ele>
        <time>2013-04-10T18:29:03Z</time>
      </trkpt>
      <trkpt lat="59.9719163" lon="17.7196987">
        <ele>43.8773</ele>
        <time>2013-04-10T18:29:04Z</time>
      </trkpt>
      <trkpt lat="59.9718927" lon="17.7196856">
        <ele>43.8773</ele>
        <time>2013-04-10T18:29:05Z</time>
      </trkpt>
      <trkpt lat="59.971871" lon="17.7196751">
        <ele>44.358</ele>
        <time>2013-04-10T18:29:06Z</time>
      </trkpt>
      <trkpt lat="59.971851" lon="17.7196607">
        <ele>44.8386</ele>
        <time>2013-04-10T18:29:07Z</time>
      </trkpt>
      <trkpt lat="59.9718301" lon="17.7196399">
        <ele>44.8386</ele>
        <time>2013-04-10T18:29:08Z</time>
      </trkpt>
      <trkpt lat="59.9718103" lon="17.7196205">
        <ele>44.8386</ele>
        <time>2013-04-10T18:29:09Z</time>
      </trkpt>
      <trkpt lat="59.9717894" lon="17.719611">
        <ele>45.3192</ele>
        <time>2013-04-10T18:29:10Z</time>
      </trkpt>
      <trkpt lat="59.9717674" lon="17.7196">
        <ele>45.7999</ele>
        <time>2013-04-10T18:29:11Z</time>
      </trkpt>
      <trkpt lat="59.9717477" lon="17.7195843">
        <ele>45.3192</ele>
        <time>2013-04-10T18:29:12Z</time>
      </trkpt>
      <trkpt lat="59.97173" lon="17.7195725">
        <ele>45.3192</ele>
        <time>2013-04-10T18:29:13Z</time>
      </trkpt>
      <trkpt lat="59.9717108" lon="17.7195586">
        <ele>45.3192</ele>
        <time>2013-04-10T18:29:14Z</time>
      </trkpt>
      <trkpt lat="59.9716915" lon="17.7195382">
        <ele>45.3192</ele>
        <time>2013-04-10T18:29:15Z</time>
      </trkpt>
      <trkpt lat="59.9716719" lon="17.7195206">
        <ele>45.7999</ele>
        <time>2013-04-10T18:29:16Z</time>
      </trkpt>
      <trkpt lat="59.9716513" lon="17.7195062">
        <ele>45.7999</ele>
        <time>2013-04-10T18:29:17Z</time>
      </trkpt>
      <trkpt lat="59.9716304" lon="17.7194882">
        <ele>45.7999</ele>
        <time>2013-04-10T18:29:18Z</time>
      </trkpt>
      <trkpt lat="59.9716099" lon="17.7194693">
        <ele>46.2806</ele>
        <time>2013-04-10T18:29:19Z</time>
      </trkpt>
      <trkpt lat="59.9715913" lon="17.7194512">
        <ele>45.7999</ele>
        <time>2013-04-10T18:29:20Z</time>
      </trkpt>
      <trkpt lat="59.9715706" lon="17.7194353">
        <ele>45.3192</ele>
        <time>2013-04-10T18:29:21Z</time>
      </trkpt>
      <trkpt lat="59.9715513" lon="17.7194198">
        <ele>45.7999</ele>
        <time>2013-04-10T18:29:22Z</time>
      </trkpt>
      <trkpt lat="59.9715321" lon="17.7194016">
        <ele>45.7999</ele>
        <time>2013-04-10T18:29:23Z</time>
      </trkpt>
      <trkpt lat="59.9715088" lon="17.7193813">
        <ele>45.7999</ele>
        <time>2013-04-10T18:29:24Z</time>
      </trkpt>
      <trkpt lat="59.971487" lon="17.7193634">
        <ele>45.7999</ele>
        <time>2013-04-10T18:29:25Z</time>
      </trkpt>
      <trkpt lat="59.9714662" lon="17.7193487">
        <ele>45.3192</ele>
        <time>2013-04-10T18:29:26Z</time>
      </trkpt>
      <trkpt lat="59.971447" lon="17.7193315">
        <ele>45.3192</ele>
        <time>2013-04-10T18:29:27Z</time>
      </trkpt>
      <trkpt lat="59.9714292" lon="17.7193124">
        <ele>45.3192</ele>
        <time>2013-04-10T18:29:28Z</time>
      </trkpt>
      <trkpt lat="59.97141" lon="17.7192966">
        <ele>45.3192</ele>
        <time>2013-04-10T18:29:29Z</time>
      </trkpt>
      <trkpt lat="59.97139" lon="17.7192787">
        <ele>45.3192</ele>
        <time>2013-04-10T18:29:30Z</time>
      </trkpt>
      <trkpt lat="59.97137" lon="17.7192608">
        <ele>45.3192</ele>
        <time>2013-04-10T18:29:31Z</time>
      </trkpt>
      <trkpt lat="59.9713492" lon="17.7192446">
        <ele>45.3192</ele>
        <time>2013-04-10T18:29:32Z</time>
      </trkpt>
      <trkpt lat="59.9713264" lon="17.7192263">
        <ele>45.3192</ele>
        <time>2013-04-10T18:29:33Z</time>
      </trkpt>
      <trkpt lat="59.9713052" lon="17.7192099">
        <ele>45.3192</ele>
        <time>2013-04-10T18:29:34Z</time>
      </trkpt>
      <trkpt lat="59.9712861" lon="17.7191928">
        <ele>45.7999</ele>
        <time>2013-04-10T18:29:35Z</time>
      </trkpt>
      <trkpt lat="59.9712644" lon="17.7191733">
        <ele>45.7999</ele>
        <time>2013-04-10T18:29:36Z</time>
      </trkpt>
      <trkpt lat="59.9712443" lon="17.7191553">
        <ele>45.7999</ele>
        <time>2013-04-10T18:29:37Z</time>
      </trkpt>
      <trkpt lat="59.9712239" lon="17.7191379">
        <ele>45.7999</ele>
        <time>2013-04-10T18:29:38Z</time>
      </trkpt>
      <trkpt lat="59.9712013" lon="17.7191181">
        <ele>45.3192</ele>
        <time>2013-04-10T18:29:39Z</time>
      </trkpt>
      <trkpt lat="59.9711794" lon="17.7191011">
        <ele>45.3192</ele>
        <time>2013-04-10T18:29:40Z</time>
      </trkpt>
      <trkpt lat="59.9711574" lon="17.7190852">
        <ele>45.3192</ele>
        <time>2013-04-10T18:29:41Z</time>
      </trkpt>
      <trkpt lat="59.9711355" lon="17.7190669">
        <ele>45.3192</ele>
        <time>2013-04-10T18:29:42Z</time>
      </trkpt>
      <trkpt lat="59.971116" lon="17.7190498">
        <ele>45.7999</ele>
        <time>2013-04-10T18:29:43Z</time>
      </trkpt>
      <trkpt lat="59.9710956" lon="17.7190328">
        <ele>45.3192</ele>
        <time>2013-04-10T18:29:44Z</time>
      </trkpt>
      <trkpt lat="59.9710743" lon="17.7190137">
        <ele>45.3192</ele>
        <time>2013-04-10T18:29:45Z</time>
      </trkpt>
      <trkpt lat="59.9710556" lon="17.718997">
        <ele>44.8386</ele>
        <time>2013-04-10T18:29:46Z</time>
      </trkpt>
      <trkpt lat="59.9710349" lon="17.7189795">
        <ele>44.8386</ele>
        <time>2013-04-10T18:29:47Z</time>
      </trkpt>
      <trkpt lat="59.971013" lon="17.7189592">
        <ele>45.3192</ele>
        <time>2013-04-10T18:29:48Z</time>
      </trkpt>
      <trkpt lat="59.9709923" lon="17.7189404">
        <ele>45.3192</ele>
        <time>2013-04-10T18:29:49Z</time>
      </trkpt>
      <trkpt lat="59.9709707" lon="17.7189214">
        <ele>45.3192</ele>
        <time>2013-04-10T18:29:50Z</time>
      </trkpt>
      <trkpt lat="59.970949" lon="17.7189018">
        <ele>45.3192</ele>
        <time>2013-04-10T18:29:51Z</time>
      </trkpt>
      <trkpt lat="59.9709269" lon="17.7188851">
        <ele>45.7999</ele>
        <time>2013-04-10T18:29:52Z</time>
      </trkpt>
      <trkpt lat="59.9709069" lon="17.7188665">
        <ele>45.7999</ele>
        <time>2013-04-10T18:29:53Z</time>
      </trkpt>
      <trkpt lat="59.9708868" lon="17.7188459">
        <ele>45.7999</ele>
        <time>2013-04-10T18:29:54Z</time>
      </trkpt>
      <trkpt lat="59.970865" lon="17.7188283">
        <ele>46.2806</ele>
        <time>2013-04-10T18:29:55Z</time>
      </trkpt>
      <trkpt lat="59.9708447" lon="17.718812">
        <ele>45.7999</ele>
        <time>2013-04-10T18:29:56Z</time>
      </trkpt>
      <trkpt lat="59.9708236" lon="17.7187922">
        <ele>45.7999</ele>
        <time>2013-04-10T18:29:57Z</time>
      </trkpt>
      <trkpt lat="59.9708023" lon="17.7187737">
        <ele>45.7999</ele>
        <time>2013-04-10T18:29:58Z</time>
      </trkpt>
      <trkpt lat="59.9707836" lon="17.7187587">
        <ele>45.3192</ele>
        <time>2013-04-10T18:29:59Z</time>
      </trkpt>
      <trkpt lat="59.9707646" lon="17.718742">
        <ele>45.3192</ele>
        <time>2013-04-10T18:30:00Z</time>
      </trkpt>
      <trkpt lat="59.9707458" lon="17.7187249">
        <ele>45.3192</ele>
        <time>2013-04-10T18:30:01Z</time>
      </trkpt>
      <trkpt lat="59.9707262" lon="17.7187095">
        <ele>45.3192</ele>
        <time>2013-04-10T18:30:02Z</time>
      </trkpt>
      <trkpt lat="59.9707062" lon="17.7186924">
        <ele>45.3192</ele>
        <time>2013-04-10T18:30:03Z</time>
      </trkpt>
      <trkpt lat="59.9706857" lon="17.7186748">
        <ele>45.3192</ele>
        <time>2013-04-10T18:30:04Z</time>
      </trkpt>
      <trkpt lat="59.970664" lon="17.7186588">
        <ele>45.3192</ele>
        <time>2013-04-10T18:30:05Z</time>
      </trkpt>
      <trkpt lat="59.9706407" lon="17.7186402">
        <ele>45.3192</ele>
        <time>2013-04-10T18:30:06Z</time>
      </trkpt>
      <trkpt lat="59.9706162" lon="17.7186194">
        <ele>45.3192</ele>
        <time>2013-04-10T18:30:07Z</time>
      </trkpt>
      <trkpt lat="59.970591" lon="17.7186018">
        <ele>45.7999</ele>
        <time>2013-04-10T18:30:08Z</time>
      </trkpt>
      <trkpt lat="59.9705661" lon="17.7185842">
        <ele>45.7999</ele>
        <time>2013-04-10T18:30:09Z</time>
      </trkpt>
      <trkpt lat="59.9705417" lon="17.7185666">
        <ele>46.2806</ele>
        <time>2013-04-10T18:30:10Z</time>
      </trkpt>
      <trkpt lat="59.9705159" lon="17.7185495">
        <ele>46.7612</ele>
        <time>2013-04-10T18:30:11Z</time>
      </trkpt>
      <trkpt lat="59.9704904" lon="17.7185339">
        <ele>46.7612</ele>
        <time>2013-04-10T18:30:12Z</time>
      </trkpt>
      <trkpt lat="59.9704685" lon="17.7185175">
        <ele>47.2418</ele>
        <time>2013-04-10T18:30:13Z</time>
      </trkpt>
      <trkpt lat="59.970447" lon="17.7184977">
        <ele>47.2418</ele>
        <time>2013-04-10T18:30:14Z</time>
      </trkpt>
      <trkpt lat="59.9704237" lon="17.7184793">
        <ele>47.2418</ele>
        <time>2013-04-10T18:30:15Z</time>
      </trkpt>
      <trkpt lat="59.9704003" lon="17.7184614">
        <ele>47.7225</ele>
        <time>2013-04-10T18:30:16Z</time>
      </trkpt>
      <trkpt lat="59.970378" lon="17.718441">
        <ele>48.2034</ele>
        <time>2013-04-10T18:30:17Z</time>
      </trkpt>
      <trkpt lat="59.9703574" lon="17.7184225">
        <ele>48.2034</ele>
        <time>2013-04-10T18:30:18Z</time>
      </trkpt>
      <trkpt lat="59.9703382" lon="17.7184081">
        <ele>48.2034</ele>
        <time>2013-04-10T18:30:19Z</time>
      </trkpt>
      <trkpt lat="59.9703177" lon="17.718391">
        <ele>48.2034</ele>
        <time>2013-04-10T18:30:20Z</time>
      </trkpt>
      <trkpt lat="59.970295" lon="17.71837">
        <ele>48.684</ele>
        <time>2013-04-10T18:30:21Z</time>
      </trkpt>
      <trkpt lat="59.9702717" lon="17.718349">
        <ele>48.684</ele>
        <time>2013-04-10T18:30:22Z</time>
      </trkpt>
      <trkpt lat="59.9702485" lon="17.7183294">
        <ele>49.1646</ele>
        <time>2013-04-10T18:30:23Z</time>
      </trkpt>
      <trkpt lat="59.9702252" lon="17.7183102">
        <ele>49.1646</ele>
        <time>2013-04-10T18:30:24Z</time>
      </trkpt>
      <trkpt lat="59.9702019" lon="17.7182899">
        <ele>48.684</ele>
        <time>2013-04-10T18:30:25Z</time>
      </trkpt>
      <trkpt lat="59.9701802" lon="17.7182701">
        <ele>49.1646</ele>
        <time>2013-04-10T18:30:26Z</time>
      </trkpt>
      <trkpt lat="59.9701584" lon="17.7182484">
        <ele>49.1646</ele>
        <time>2013-04-10T18:30:27Z</time>
      </trkpt>
      <trkpt lat="59.9701378" lon="17.7182248">
        <ele>48.684</ele>
        <time>2013-04-10T18:30:28Z</time>
      </trkpt>
      <trkpt lat="59.9701176" lon="17.718205">
        <ele>48.684</ele>
        <time>2013-04-10T18:30:29Z</time>
      </trkpt>
      <trkpt lat="59.9700968" lon="17.7181848">
        <ele>49.1646</ele>
        <time>2013-04-10T18:30:30Z</time>
      </trkpt>
      <trkpt lat="59.9700764" lon="17.7181629">
        <ele>49.1646</ele>
        <time>2013-04-10T18:30:31Z</time>
      </trkpt>
      <trkpt lat="59.9700564" lon="17.7181428">
        <ele>48.684</ele>
        <time>2013-04-10T18:30:32Z</time>
      </trkpt>
      <trkpt lat="59.9700367" lon="17.7181226">
        <ele>48.684</ele>
        <time>2013-04-10T18:30:33Z</time>
      </trkpt>
      <trkpt lat="59.9700185" lon="17.7181014">
        <ele>48.684</ele>
        <time>2013-04-10T18:30:34Z</time>
      </trkpt>
      <trkpt lat="59.97" lon="17.718076">
        <ele>48.2034</ele>
        <time>2013-04-10T18:30:35Z</time>
      </trkpt>
      <trkpt lat="59.9699805" lon="17.7180513">
        <ele>48.2034</ele>
        <time>2013-04-10T18:30:36Z</time>
      </trkpt>
      <trkpt lat="59.9699588" lon="17.718031">
        <ele>48.2034</ele>
        <time>2013-04-10T18:30:37Z</time>
      </trkpt>
      <trkpt lat="59.9699357" lon="17.7180085">
        <ele>47.7225</ele>
        <time>2013-04-10T18:30:38Z</time>
      </trkpt>
      <trkpt lat="59.969913" lon="17.7179815">
        <ele>47.7225</ele>
        <time>2013-04-10T18:30:39Z</time>
      </trkpt>
      <trkpt lat="59.9698907" lon="17.7179584">
        <ele>47.7225</ele>
        <time>2013-04-10T18:30:40Z</time>
      </trkpt>
      <trkpt lat="59.9698676" lon="17.7179362">
        <ele>47.2418</ele>
        <time>2013-04-10T18:30:41Z</time>
      </trkpt>
      <trkpt lat="59.9698443" lon="17.7179132">
        <ele>47.2418</ele>
        <time>2013-04-10T18:30:42Z</time>
      </trkpt>
      <trkpt lat="59.9698222" lon="17.7178937">
        <ele>47.2418</ele>
        <time>2013-04-10T18:30:43Z</time>
      </trkpt>
      <trkpt lat="59.9697995" lon="17.7178745">
        <ele>47.2418</ele>
        <time>2013-04-10T18:30:44Z</time>
      </trkpt>
      <trkpt lat="59.9697752" lon="17.7178528">
        <ele>47.2418</ele>
        <time>2013-04-10T18:30:45Z</time>
      </trkpt>
      <trkpt lat="59.9697512" lon="17.7178327">
        <ele>47.7225</ele>
        <time>2013-04-10T18:30:46Z</time>
      </trkpt>
      <trkpt lat="59.9697284" lon="17.717817">
        <ele>47.7225</ele>
        <time>2013-04-10T18:30:47Z</time>
      </trkpt>
      <trkpt lat="59.9697049" lon="17.7177987">
        <ele>48.2034</ele>
        <time>2013-04-10T18:30:48Z</time>
      </trkpt>
      <trkpt lat="59.9696816" lon="17.7177808">
        <ele>48.2034</ele>
        <time>2013-04-10T18:30:49Z</time>
      </trkpt>
      <trkpt lat="59.9696596" lon="17.7177643">
        <ele>48.2034</ele>
        <time>2013-04-10T18:30:50Z</time>
      </trkpt>
      <trkpt lat="59.9696363" lon="17.7177449">
        <ele>48.2034</ele>
        <time>2013-04-10T18:30:51Z</time>
      </trkpt>
      <trkpt lat="59.969614" lon="17.7177253">
        <ele>48.2034</ele>
        <time>2013-04-10T18:30:52Z</time>
      </trkpt>
      <trkpt lat="59.969593" lon="17.7177077">
        <ele>48.2034</ele>
        <time>2013-04-10T18:30:53Z</time>
      </trkpt>
      <trkpt lat="59.969569" lon="17.7176904">
        <ele>48.2034</ele>
        <time>2013-04-10T18:30:54Z</time>
      </trkpt>
      <trkpt lat="59.969544" lon="17.7176731">
        <ele>48.684</ele>
        <time>2013-04-10T18:30:55Z</time>
      </trkpt>
      <trkpt lat="59.9695195" lon="17.717659">
        <ele>48.684</ele>
        <time>2013-04-10T18:30:56Z</time>
      </trkpt>
      <trkpt lat="59.9694947" lon="17.7176465">
        <ele>48.684</ele>
        <time>2013-04-10T18:30:57Z</time>
      </trkpt>
      <trkpt lat="59.9694714" lon="17.7176308">
        <ele>48.684</ele>
        <time>2013-04-10T18:30:58Z</time>
      </trkpt>
      <trkpt lat="59.9694504" lon="17.7176133">
        <ele>48.684</ele>
        <time>2013-04-10T18:30:59Z</time>
      </trkpt>
      <trkpt lat="59.9694307" lon="17.7175984">
        <ele>49.1646</ele>
        <time>2013-04-10T18:31:00Z</time>
      </trkpt>
      <trkpt lat="59.9694068" lon="17.7175849">
        <ele>49.1646</ele>
        <time>2013-04-10T18:31:01Z</time>
      </trkpt>
      <trkpt lat="59.9693825" lon="17.7175721">
        <ele>49.6453</ele>
        <time>2013-04-10T18:31:02Z</time>
      </trkpt>
      <trkpt lat="59.9693595" lon="17.7175625">
        <ele>49.6453</ele>
        <time>2013-04-10T18:31:03Z</time>
      </trkpt>
      <trkpt lat="59.9693296" lon="17.7175584">
        <ele>50.126</ele>
        <time>2013-04-10T18:31:04Z</time>
      </trkpt>
      <trkpt lat="59.9693006" lon="17.7175508">
        <ele>50.126</ele>
        <time>2013-04-10T18:31:05Z</time>
      </trkpt>
      <trkpt lat="59.9692752" lon="17.7175409">
        <ele>50.126</ele>
        <time>2013-04-10T18:31:06Z</time>
      </trkpt>
      <trkpt lat="59.9692527" lon="17.7175273">
        <ele>50.126</ele>
        <time>2013-04-10T18:31:07Z</time>
      </trkpt>
      <trkpt lat="59.969229" lon="17.7175125">
        <ele>50.126</ele>
        <time>2013-04-10T18:31:08Z</time>
      </trkpt>
      <trkpt lat="59.9692059" lon="17.7175047">
        <ele>50.126</ele>
        <time>2013-04-10T18:31:09Z</time>
      </trkpt>
      <trkpt lat="59.9691839" lon="17.7174979">
        <ele>50.126</ele>
        <time>2013-04-10T18:31:10Z</time>
      </trkpt>
      <trkpt lat="59.9691611" lon="17.7174859">
        <ele>49.6453</ele>
        <time>2013-04-10T18:31:11Z</time>
      </trkpt>
      <trkpt lat="59.9691384" lon="17.7174741">
        <ele>49.1646</ele>
        <time>2013-04-10T18:31:12Z</time>
      </trkpt>
      <trkpt lat="59.9691165" lon="17.7174652">
        <ele>49.1646</ele>
        <time>2013-04-10T18:31:13Z</time>
      </trkpt>
      <trkpt lat="59.9690923" lon="17.717455">
        <ele>49.6453</ele>
        <time>2013-04-10T18:31:14Z</time>
      </trkpt>
      <trkpt lat="59.9690669" lon="17.7174449">
        <ele>49.6453</ele>
        <time>2013-04-10T18:31:15Z</time>
      </trkpt>
      <trkpt lat="59.9690431" lon="17.7174389">
        <ele>50.126</ele>
        <time>2013-04-10T18:31:16Z</time>
      </trkpt>
      <trkpt lat="59.9690193" lon="17.7174342">
        <ele>49.6453</ele>
        <time>2013-04-10T18:31:17Z</time>
      </trkpt>
      <trkpt lat="59.9689958" lon="17.7174288">
        <ele>49.1646</ele>
        <time>2013-04-10T18:31:18Z</time>
      </trkpt>
      <trkpt lat="59.9689697" lon="17.7174247">
        <ele>48.684</ele>
        <time>2013-04-10T18:31:19Z</time>
      </trkpt>
      <trkpt lat="59.9689431" lon="17.7174196">
        <ele>48.684</ele>
        <time>2013-04-10T18:31:20Z</time>
      </trkpt>
      <trkpt lat="59.9689212" lon="17.7174067">
        <ele>47.7225</ele>
        <time>2013-04-10T18:31:21Z</time>
      </trkpt>
      <trkpt lat="59.9689017" lon="17.7173932">
        <ele>47.2418</ele>
        <time>2013-04-10T18:31:22Z</time>
      </trkpt>
      <trkpt lat="59.9688836" lon="17.7173819">
        <ele>46.7612</ele>
        <time>2013-04-10T18:31:23Z</time>
      </trkpt>
      <trkpt lat="59.968863" lon="17.7173869">
        <ele>46.2806</ele>
        <time>2013-04-10T18:31:24Z</time>
      </trkpt>
      <trkpt lat="59.9688386" lon="17.7174052">
        <ele>45.3192</ele>
        <time>2013-04-10T18:31:25Z</time>
      </trkpt>
      <trkpt lat="59.9688186" lon="17.7174179">
        <ele>44.8386</ele>
        <time>2013-04-10T18:31:26Z</time>
      </trkpt>
      <trkpt lat="59.9687971" lon="17.7174263">
        <ele>44.358</ele>
        <time>2013-04-10T18:31:27Z</time>
      </trkpt>
      <trkpt lat="59.9687715" lon="17.7174284">
        <ele>44.358</ele>
        <time>2013-04-10T18:31:28Z</time>
      </trkpt>
      <trkpt lat="59.9687467" lon="17.7174281">
        <ele>43.8773</ele>
        <time>2013-04-10T18:31:29Z</time>
      </trkpt>
      <trkpt lat="59.9687251" lon="17.717427">
        <ele>43.3966</ele>
        <time>2013-04-10T18:31:30Z</time>
      </trkpt>
      <trkpt lat="59.9687012" lon="17.7174227">
        <ele>42.916</ele>
        <time>2013-04-10T18:31:31Z</time>
      </trkpt>
      <trkpt lat="59.9686764" lon="17.7174155">
        <ele>42.916</ele>
        <time>2013-04-10T18:31:32Z</time>
      </trkpt>
      <trkpt lat="59.9686562" lon="17.7174088">
        <ele>42.4354</ele>
        <time>2013-04-10T18:31:33Z</time>
      </trkpt>
      <trkpt lat="59.9686359" lon="17.7174084">
        <ele>42.4354</ele>
        <time>2013-04-10T18:31:34Z</time>
      </trkpt>
      <trkpt lat="59.9686146" lon="17.7174051">
        <ele>41.9547</ele>
        <time>2013-04-10T18:31:35Z</time>
      </trkpt>
      <trkpt lat="59.9685917" lon="17.717396">
        <ele>41.9547</ele>
        <time>2013-04-10T18:31:36Z</time>
      </trkpt>
      <trkpt lat="59.9685728" lon="17.7173949">
        <ele>41.9547</ele>
        <time>2013-04-10T18:31:37Z</time>
      </trkpt>
      <trkpt lat="59.9685558" lon="17.7174011">
        <ele>41.9547</ele>
        <time>2013-04-10T18:31:38Z</time>
      </trkpt>
      <trkpt lat="59.968537" lon="17.7173972">
        <ele>41.9547</ele>
        <time>2013-04-10T18:31:39Z</time>
      </trkpt>
      <trkpt lat="59.9685178" lon="17.7173886">
        <ele>41.9547</ele>
        <time>2013-04-10T18:31:40Z</time>
      </trkpt>
      <trkpt lat="59.9685006" lon="17.7173871">
        <ele>41.474</ele>
        <time>2013-04-10T18:31:41Z</time>
      </trkpt>
      <trkpt lat="59.9684804" lon="17.71739">
        <ele>40.9934</ele>
        <time>2013-04-10T18:31:42Z</time>
      </trkpt>
      <trkpt lat="59.9684566" lon="17.7173803">
        <ele>40.5128</ele>
        <time>2013-04-10T18:31:43Z</time>
      </trkpt>
      <trkpt lat="59.9684369" lon="17.7173665">
        <ele>40.0321</ele>
        <time>2013-04-10T18:31:44Z</time>
      </trkpt>
      <trkpt lat="59.9684188" lon="17.7173644">
        <ele>40.0321</ele>
        <time>2013-04-10T18:31:45Z</time>
      </trkpt>
      <trkpt lat="59.9683967" lon="17.7173626">
        <ele>40.0321</ele>
        <time>2013-04-10T18:31:46Z</time>
      </trkpt>
      <trkpt lat="59.9683764" lon="17.7173612">
        <ele>39.5513</ele>
        <time>2013-04-10T18:31:47Z</time>
      </trkpt>
      <trkpt lat="59.9683591" lon="17.7173597">
        <ele>39.5513</ele>
        <time>2013-04-10T18:31:48Z</time>
      </trkpt>
      <trkpt lat="59.9683389" lon="17.7173494">
        <ele>39.0707</ele>
        <time>2013-04-10T18:31:49Z</time>
      </trkpt>
      <trkpt lat="59.9683178" lon="17.7173352">
        <ele>39.0707</ele>
        <time>2013-04-10T18:31:50Z</time>
      </trkpt>
      <trkpt lat="59.9682981" lon="17.7173206">
        <ele>38.5901</ele>
        <time>2013-04-10T18:31:51Z</time>
      </trkpt>
      <trkpt lat="59.9682776" lon="17.7173052">
        <ele>38.1094</ele>
        <time>2013-04-10T18:31:52Z</time>
      </trkpt>
      <trkpt lat="59.9682583" lon="17.717295">
        <ele>38.1094</ele>
        <time>2013-04-10T18:31:53Z</time>
      </trkpt>
      <trkpt lat="59.9682397" lon="17.7172808">
        <ele>37.6287</ele>
        <time>2013-04-10T18:31:54Z</time>
      </trkpt>
      <trkpt lat="59.9682198" lon="17.7172617">
        <ele>37.6287</ele>
        <time>2013-04-10T18:31:55Z</time>
      </trkpt>
      <trkpt lat="59.9681999" lon="17.7172463">
        <ele>37.1481</ele>
        <time>2013-04-10T18:31:56Z</time>
      </trkpt>
      <trkpt lat="59.96818" lon="17.7172276">
        <ele>37.1481</ele>
        <time>2013-04-10T18:31:57Z</time>
      </trkpt>
      <trkpt lat="59.9681614" lon="17.7172021">
        <ele>36.6675</ele>
        <time>2013-04-10T18:31:58Z</time>
      </trkpt>
      <trkpt lat="59.9681432" lon="17.7171755">
        <ele>36.6675</ele>
        <time>2013-04-10T18:31:59Z</time>
      </trkpt>
      <trkpt lat="59.9681237" lon="17.7171509">
        <ele>36.6675</ele>
        <time>2013-04-10T18:32:00Z</time>
      </trkpt>
      <trkpt lat="59.9681034" lon="17.7171249">
        <ele>36.6675</ele>
        <time>2013-04-10T18:32:01Z</time>
      </trkpt>
      <trkpt lat="59.9680851" lon="17.7171049">
        <ele>36.6675</ele>
        <time>2013-04-10T18:32:02Z</time>
      </trkpt>
      <trkpt lat="59.9680675" lon="17.7170917">
        <ele>36.1868</ele>
        <time>2013-04-10T18:32:03Z</time>
      </trkpt>
      <trkpt lat="59.9680471" lon="17.717072">
        <ele>36.6675</ele>
        <time>2013-04-10T18:32:04Z</time>
      </trkpt>
      <trkpt lat="59.9680283" lon="17.7170477">
        <ele>36.6675</ele>
        <time>2013-04-10T18:32:05Z</time>
      </trkpt>
      <trkpt lat="59.9680112" lon="17.717025">
        <ele>36.1868</ele>
        <time>2013-04-10T18:32:06Z</time>
      </trkpt>
      <trkpt lat="59.9679924" lon="17.7170015">
        <ele>36.1868</ele>
        <time>2013-04-10T18:32:07Z</time>
      </trkpt>
      <trkpt lat="59.967972" lon="17.7169738">
        <ele>36.1868</ele>
        <time>2013-04-10T18:32:08Z</time>
      </trkpt>
      <trkpt lat="59.9679536" lon="17.716945">
        <ele>36.1868</ele>
        <time>2013-04-10T18:32:09Z</time>
      </trkpt>
      <trkpt lat="59.9679355" lon="17.7169186">
        <ele>36.1868</ele>
        <time>2013-04-10T18:32:10Z</time>
      </trkpt>
      <trkpt lat="59.967919" lon="17.7168977">
        <ele>36.1868</ele>
        <time>2013-04-10T18:32:11Z</time>
      </trkpt>
      <trkpt lat="59.9679019" lon="17.7168715">
        <ele>35.7061</ele>
        <time>2013-04-10T18:32:12Z</time>
      </trkpt>
      <trkpt lat="59.9678836" lon="17.7168398">
        <ele>35.7061</ele>
        <time>2013-04-10T18:32:13Z</time>
      </trkpt>
      <trkpt lat="59.9678657" lon="17.7168111">
        <ele>35.7061</ele>
        <time>2013-04-10T18:32:14Z</time>
      </trkpt>
      <trkpt lat="59.9678471" lon="17.7167829">
        <ele>35.2255</ele>
        <time>2013-04-10T18:32:15Z</time>
      </trkpt>
      <trkpt lat="59.9678274" lon="17.7167505">
        <ele>35.7061</ele>
        <time>2013-04-10T18:32:16Z</time>
      </trkpt>
      <trkpt lat="59.9678098" lon="17.7167172">
        <ele>35.2255</ele>
        <time>2013-04-10T18:32:17Z</time>
      </trkpt>
      <trkpt lat="59.9677926" lon="17.7166882">
        <ele>35.2255</ele>
        <time>2013-04-10T18:32:18Z</time>
      </trkpt>
      <trkpt lat="59.9677735" lon="17.7166561">
        <ele>35.2255</ele>
        <time>2013-04-10T18:32:19Z</time>
      </trkpt>
      <trkpt lat="59.9677558" lon="17.7166183">
        <ele>34.7449</ele>
        <time>2013-04-10T18:32:20Z</time>
      </trkpt>
      <trkpt lat="59.9677415" lon="17.716582">
        <ele>34.7449</ele>
        <time>2013-04-10T18:32:21Z</time>
      </trkpt>
      <trkpt lat="59.9677268" lon="17.716547">
        <ele>35.2255</ele>
        <time>2013-04-10T18:32:22Z</time>
      </trkpt>
      <trkpt lat="59.9677093" lon="17.7165064">
        <ele>35.2255</ele>
        <time>2013-04-10T18:32:23Z</time>
      </trkpt>
      <trkpt lat="59.9676927" lon="17.7164633">
        <ele>35.2255</ele>
        <time>2013-04-10T18:32:24Z</time>
      </trkpt>
      <trkpt lat="59.967679" lon="17.7164236">
        <ele>34.7449</ele>
        <time>2013-04-10T18:32:25Z</time>
      </trkpt>
      <trkpt lat="59.9676646" lon="17.7163816">
        <ele>35.2255</ele>
        <time>2013-04-10T18:32:26Z</time>
      </trkpt>
      <trkpt lat="59.9676519" lon="17.7163368">
        <ele>34.7449</ele>
        <time>2013-04-10T18:32:27Z</time>
      </trkpt>
      <trkpt lat="59.9676417" lon="17.7162936">
        <ele>34.7449</ele>
        <time>2013-04-10T18:32:28Z</time>
      </trkpt>
      <trkpt lat="59.9676301" lon="17.716252">
        <ele>34.2642</ele>
        <time>2013-04-10T18:32:29Z</time>
      </trkpt>
      <trkpt lat="59.9676161" lon="17.7162087">
        <ele>34.2642</ele>
        <time>2013-04-10T18:32:30Z</time>
      </trkpt>
      <trkpt lat="59.967604" lon="17.7161646">
        <ele>34.2642</ele>
        <time>2013-04-10T18:32:31Z</time>
      </trkpt>
      <trkpt lat="59.9675917" lon="17.716123">
        <ele>33.7834</ele>
        <time>2013-04-10T18:32:32Z</time>
      </trkpt>
      <trkpt lat="59.9675797" lon="17.716079">
        <ele>33.3029</ele>
        <time>2013-04-10T18:32:33Z</time>
      </trkpt>
      <trkpt lat="59.9675674" lon="17.7160356">
        <ele>32.8223</ele>
        <time>2013-04-10T18:32:34Z</time>
      </trkpt>
      <trkpt lat="59.9675549" lon="17.7159926">
        <ele>32.8223</ele>
        <time>2013-04-10T18:32:35Z</time>
      </trkpt>
      <trkpt lat="59.9675426" lon="17.7159527">
        <ele>32.3416</ele>
        <time>2013-04-10T18:32:36Z</time>
      </trkpt>
      <trkpt lat="59.9675295" lon="17.7159144">
        <ele>31.8607</ele>
        <time>2013-04-10T18:32:37Z</time>
      </trkpt>
      <trkpt lat="59.9675171" lon="17.7158714">
        <ele>31.3801</ele>
        <time>2013-04-10T18:32:38Z</time>
      </trkpt>
      <trkpt lat="59.9675066" lon="17.7158289">
        <ele>30.8995</ele>
        <time>2013-04-10T18:32:39Z</time>
      </trkpt>
      <trkpt lat="59.9674957" lon="17.715788">
        <ele>30.8995</ele>
        <time>2013-04-10T18:32:40Z</time>
      </trkpt>
      <trkpt lat="59.9674859" lon="17.7157463">
        <ele>30.4188</ele>
        <time>2013-04-10T18:32:41Z</time>
      </trkpt>
      <trkpt lat="59.9674785" lon="17.7157061">
        <ele>29.9381</ele>
        <time>2013-04-10T18:32:42Z</time>
      </trkpt>
      <trkpt lat="59.9674708" lon="17.7156699">
        <ele>29.4575</ele>
        <time>2013-04-10T18:32:43Z</time>
      </trkpt>
      <trkpt lat="59.9674601" lon="17.7156293">
        <ele>29.4575</ele>
        <time>2013-04-10T18:32:44Z</time>
      </trkpt>
      <trkpt lat="59.9674485" lon="17.7155888">
        <ele>29.4575</ele>
        <time>2013-04-10T18:32:45Z</time>
      </trkpt>
      <trkpt lat="59.9674386" lon="17.7155479">
        <ele>29.4575</ele>
        <time>2013-04-10T18:32:46Z</time>
      </trkpt>
      <trkpt lat="59.9674258" lon="17.7155078">
        <ele>28.9769</ele>
        <time>2013-04-10T18:32:47Z</time>
      </trkpt>
      <trkpt lat="59.9674187" lon="17.7154549">
        <ele>29.4575</ele>
        <time>2013-04-10T18:32:48Z</time>
      </trkpt>
      <trkpt lat="59.9674117" lon="17.7154041">
        <ele>29.4575</ele>
        <time>2013-04-10T18:32:49Z</time>
      </trkpt>
      <trkpt lat="59.9674053" lon="17.7153523">
        <ele>29.9381</ele>
        <time>2013-04-10T18:32:50Z</time>
      </trkpt>
      <trkpt lat="59.9673969" lon="17.7153065">
        <ele>29.9381</ele>
        <time>2013-04-10T18:32:51Z</time>
      </trkpt>
      <trkpt lat="59.9673876" lon="17.7152658">
        <ele>29.4575</ele>
        <time>2013-04-10T18:32:52Z</time>
      </trkpt>
      <trkpt lat="59.9673781" lon="17.7152211">
        <ele>28.9769</ele>
        <time>2013-04-10T18:32:53Z</time>
      </trkpt>
      <trkpt lat="59.9673745" lon="17.7151708">
        <ele>28.9769</ele>
        <time>2013-04-10T18:32:54Z</time>
      </trkpt>
      <trkpt lat="59.9673739" lon="17.7151259">
        <ele>28.4962</ele>
        <time>2013-04-10T18:32:55Z</time>
      </trkpt>
      <trkpt lat="59.9673692" lon="17.7150824">
        <ele>28.0155</ele>
        <time>2013-04-10T18:32:56Z</time>
      </trkpt>
      <trkpt lat="59.9673638" lon="17.7150519">
        <ele>27.0543</ele>
        <time>2013-04-10T18:32:57Z</time>
      </trkpt>
      <trkpt lat="59.9673553" lon="17.7150182">
        <ele>26.0929</ele>
        <time>2013-04-10T18:32:58Z</time>
      </trkpt>
      <trkpt lat="59.9673502" lon="17.7149706">
        <ele>26.5736</ele>
        <time>2013-04-10T18:32:59Z</time>
      </trkpt>
      <trkpt lat="59.967342" lon="17.7149198">
        <ele>26.5736</ele>
        <time>2013-04-10T18:33:00Z</time>
      </trkpt>
      <trkpt lat="59.9673326" lon="17.7148592">
        <ele>27.0543</ele>
        <time>2013-04-10T18:33:01Z</time>
      </trkpt>
      <trkpt lat="59.9673252" lon="17.7148064">
        <ele>28.0155</ele>
        <time>2013-04-10T18:33:02Z</time>
      </trkpt>
      <trkpt lat="59.9673157" lon="17.71475">
        <ele>28.4962</ele>
        <time>2013-04-10T18:33:03Z</time>
      </trkpt>
      <trkpt lat="59.9673123" lon="17.7146995">
        <ele>28.0155</ele>
        <time>2013-04-10T18:33:04Z</time>
      </trkpt>
      <trkpt lat="59.9673094" lon="17.7146525">
        <ele>28.4962</ele>
        <time>2013-04-10T18:33:05Z</time>
      </trkpt>
      <trkpt lat="59.9673084" lon="17.7146064">
        <ele>28.4962</ele>
        <time>2013-04-10T18:33:06Z</time>
      </trkpt>
      <trkpt lat="59.9673068" lon="17.714554">
        <ele>28.9769</ele>
        <time>2013-04-10T18:33:07Z</time>
      </trkpt>
      <trkpt lat="59.9672993" lon="17.7145046">
        <ele>29.4575</ele>
        <time>2013-04-10T18:33:08Z</time>
      </trkpt>
      <trkpt lat="59.9672908" lon="17.714465">
        <ele>29.9381</ele>
        <time>2013-04-10T18:33:09Z</time>
      </trkpt>
      <trkpt lat="59.9672815" lon="17.7144194">
        <ele>29.9381</ele>
        <time>2013-04-10T18:33:10Z</time>
      </trkpt>
      <trkpt lat="59.967272" lon="17.7143702">
        <ele>30.4188</ele>
        <time>2013-04-10T18:33:11Z</time>
      </trkpt>
      <trkpt lat="59.9672605" lon="17.7143197">
        <ele>30.8995</ele>
        <time>2013-04-10T18:33:12Z</time>
      </trkpt>
      <trkpt lat="59.9672461" lon="17.7142633">
        <ele>31.8607</ele>
        <time>2013-04-10T18:33:13Z</time>
      </trkpt>
      <trkpt lat="59.9672312" lon="17.7141977">
        <ele>32.3416</ele>
        <time>2013-04-10T18:33:14Z</time>
      </trkpt>
      <trkpt lat="59.9672197" lon="17.7141463">
        <ele>32.8223</ele>
        <time>2013-04-10T18:33:15Z</time>
      </trkpt>
      <trkpt lat="59.9672143" lon="17.7140924">
        <ele>33.3029</ele>
        <time>2013-04-10T18:33:16Z</time>
      </trkpt>
      <trkpt lat="59.9672095" lon="17.7140392">
        <ele>33.7834</ele>
        <time>2013-04-10T18:33:17Z</time>
      </trkpt>
      <trkpt lat="59.9672063" lon="17.7139909">
        <ele>34.2642</ele>
        <time>2013-04-10T18:33:18Z</time>
      </trkpt>
      <trkpt lat="59.9672021" lon="17.7139429">
        <ele>34.2642</ele>
        <time>2013-04-10T18:33:19Z</time>
      </trkpt>
      <trkpt lat="59.9671959" lon="17.7138899">
        <ele>34.7449</ele>
        <time>2013-04-10T18:33:20Z</time>
      </trkpt>
      <trkpt lat="59.9671906" lon="17.713844">
        <ele>34.7449</ele>
        <time>2013-04-10T18:33:21Z</time>
      </trkpt>
      <trkpt lat="59.9671836" lon="17.7137924">
        <ele>35.7061</ele>
        <time>2013-04-10T18:33:22Z</time>
      </trkpt>
      <trkpt lat="59.9671783" lon="17.7137489">
        <ele>36.1868</ele>
        <time>2013-04-10T18:33:23Z</time>
      </trkpt>
      <trkpt lat="59.967174" lon="17.7137055">
        <ele>36.6675</ele>
        <time>2013-04-10T18:33:24Z</time>
      </trkpt>
      <trkpt lat="59.9671669" lon="17.71366">
        <ele>36.6675</ele>
        <time>2013-04-10T18:33:25Z</time>
      </trkpt>
      <trkpt lat="59.9671643" lon="17.713614">
        <ele>36.6675</ele>
        <time>2013-04-10T18:33:26Z</time>
      </trkpt>
      <trkpt lat="59.9671633" lon="17.7135723">
        <ele>37.1481</ele>
        <time>2013-04-10T18:33:27Z</time>
      </trkpt>
      <trkpt lat="59.9671639" lon="17.7135466">
        <ele>37.1481</ele>
        <time>2013-04-10T18:33:28Z</time>
      </trkpt>
      <trkpt lat="59.9671679" lon="17.7135248">
        <ele>37.6287</ele>
        <time>2013-04-10T18:33:29Z</time>
      </trkpt>
      <trkpt lat="59.9671744" lon="17.7135367">
        <ele>37.6287</ele>
        <time>2013-04-10T18:33:30Z</time>
      </trkpt>
      <trkpt lat="59.9671833" lon="17.7135823">
        <ele>37.6287</ele>
        <time>2013-04-10T18:33:31Z</time>
      </trkpt>
      <trkpt lat="59.9671923" lon="17.7136339">
        <ele>37.6287</ele>
        <time>2013-04-10T18:33:32Z</time>
      </trkpt>
      <trkpt lat="59.9672007" lon="17.7136823">
        <ele>38.1094</ele>
        <time>2013-04-10T18:33:33Z</time>
      </trkpt>
      <trkpt lat="59.9672081" lon="17.7137346">
        <ele>38.1094</ele>
        <time>2013-04-10T18:33:34Z</time>
      </trkpt>
      <trkpt lat="59.9672172" lon="17.713791">
        <ele>38.5901</ele>
        <time>2013-04-10T18:33:35Z</time>
      </trkpt>
      <trkpt lat="59.9672285" lon="17.713844">
        <ele>39.0707</ele>
        <time>2013-04-10T18:33:36Z</time>
      </trkpt>
      <trkpt lat="59.9672411" lon="17.7138913">
        <ele>39.0707</ele>
        <time>2013-04-10T18:33:37Z</time>
      </trkpt>
      <trkpt lat="59.9672523" lon="17.7139428">
        <ele>39.0707</ele>
        <time>2013-04-10T18:33:38Z</time>
      </trkpt>
      <trkpt lat="59.9672622" lon="17.7139934">
        <ele>39.5513</ele>
        <time>2013-04-10T18:33:39Z</time>
      </trkpt>
      <trkpt lat="59.9672706" lon="17.7140402">
        <ele>40.0321</ele>
        <time>2013-04-10T18:33:40Z</time>
      </trkpt>
      <trkpt lat="59.9672793" lon="17.7140853">
        <ele>40.0321</ele>
        <time>2013-04-10T18:33:41Z</time>
      </trkpt>
      <trkpt lat="59.967288" lon="17.7141298">
        <ele>40.5128</ele>
        <time>2013-04-10T18:33:42Z</time>
      </trkpt>
      <trkpt lat="59.9672979" lon="17.7141754">
        <ele>40.5128</ele>
        <time>2013-04-10T18:33:43Z</time>
      </trkpt>
      <trkpt lat="59.9673086" lon="17.7142213">
        <ele>40.5128</ele>
        <time>2013-04-10T18:33:44Z</time>
      </trkpt>
      <trkpt lat="59.9673169" lon="17.7142639">
        <ele>40.5128</ele>
        <time>2013-04-10T18:33:45Z</time>
      </trkpt>
      <trkpt lat="59.9673239" lon="17.7143075">
        <ele>40.5128</ele>
        <time>2013-04-10T18:33:46Z</time>
      </trkpt>
      <trkpt lat="59.9673314" lon="17.7143567">
        <ele>40.9934</ele>
        <time>2013-04-10T18:33:47Z</time>
      </trkpt>
      <trkpt lat="59.9673398" lon="17.7144055">
        <ele>40.9934</ele>
        <time>2013-04-10T18:33:48Z</time>
      </trkpt>
      <trkpt lat="59.9673482" lon="17.7144489">
        <ele>40.9934</ele>
        <time>2013-04-10T18:33:49Z</time>
      </trkpt>
      <trkpt lat="59.9673548" lon="17.7144964">
        <ele>40.9934</ele>
        <time>2013-04-10T18:33:50Z</time>
      </trkpt>
      <trkpt lat="59.9673631" lon="17.7145461">
        <ele>40.9934</ele>
        <time>2013-04-10T18:33:51Z</time>
      </trkpt>
      <trkpt lat="59.9673713" lon="17.714594">
        <ele>41.474</ele>
        <time>2013-04-10T18:33:52Z</time>
      </trkpt>
      <trkpt lat="59.9673777" lon="17.714644">
        <ele>41.474</ele>
        <time>2013-04-10T18:33:53Z</time>
      </trkpt>
      <trkpt lat="59.9673839" lon="17.7146949">
        <ele>41.474</ele>
        <time>2013-04-10T18:33:54Z</time>
      </trkpt>
      <trkpt lat="59.9673895" lon="17.7147406">
        <ele>41.474</ele>
        <time>2013-04-10T18:33:55Z</time>
      </trkpt>
      <trkpt lat="59.9673959" lon="17.7147831">
        <ele>41.474</ele>
        <time>2013-04-10T18:33:56Z</time>
      </trkpt>
      <trkpt lat="59.9674031" lon="17.7148271">
        <ele>41.474</ele>
        <time>2013-04-10T18:33:57Z</time>
      </trkpt>
      <trkpt lat="59.9674112" lon="17.7148719">
        <ele>41.474</ele>
        <time>2013-04-10T18:33:58Z</time>
      </trkpt>
      <trkpt lat="59.9674171" lon="17.7149167">
        <ele>40.9934</ele>
        <time>2013-04-10T18:33:59Z</time>
      </trkpt>
      <trkpt lat="59.9674229" lon="17.7149605">
        <ele>41.474</ele>
        <time>2013-04-10T18:34:00Z</time>
      </trkpt>
      <trkpt lat="59.9674291" lon="17.7150076">
        <ele>40.9934</ele>
        <time>2013-04-10T18:34:01Z</time>
      </trkpt>
      <trkpt lat="59.9674371" lon="17.7150524">
        <ele>40.9934</ele>
        <time>2013-04-10T18:34:02Z</time>
      </trkpt>
      <trkpt lat="59.9674444" lon="17.7150918">
        <ele>40.9934</ele>
        <time>2013-04-10T18:34:03Z</time>
      </trkpt>
      <trkpt lat="59.9674482" lon="17.715126">
        <ele>40.5128</ele>
        <time>2013-04-10T18:34:04Z</time>
      </trkpt>
      <trkpt lat="59.9674509" lon="17.7151674">
        <ele>40.0321</ele>
        <time>2013-04-10T18:34:05Z</time>
      </trkpt>
      <trkpt lat="59.9674542" lon="17.7152103">
        <ele>39.5513</ele>
        <time>2013-04-10T18:34:06Z</time>
      </trkpt>
      <trkpt lat="59.9674544" lon="17.7152529">
        <ele>39.5513</ele>
        <time>2013-04-10T18:34:07Z</time>
      </trkpt>
      <trkpt lat="59.9674559" lon="17.7152965">
        <ele>39.5513</ele>
        <time>2013-04-10T18:34:08Z</time>
      </trkpt>
      <trkpt lat="59.9674579" lon="17.7153409">
        <ele>39.5513</ele>
        <time>2013-04-10T18:34:09Z</time>
      </trkpt>
      <trkpt lat="59.9674632" lon="17.7153837">
        <ele>39.5513</ele>
        <time>2013-04-10T18:34:10Z</time>
      </trkpt>
      <trkpt lat="59.9674703" lon="17.7154212">
        <ele>39.5513</ele>
        <time>2013-04-10T18:34:11Z</time>
      </trkpt>
      <trkpt lat="59.9674751" lon="17.7154506">
        <ele>39.5513</ele>
        <time>2013-04-10T18:34:12Z</time>
      </trkpt>
      <trkpt lat="59.9674803" lon="17.7154823">
        <ele>40.0321</ele>
        <time>2013-04-10T18:34:13Z</time>
      </trkpt>
      <trkpt lat="59.9674851" lon="17.7155253">
        <ele>40.0321</ele>
        <time>2013-04-10T18:34:14Z</time>
      </trkpt>
      <trkpt lat="59.9674952" lon="17.7155733">
        <ele>40.5128</ele>
        <time>2013-04-10T18:34:15Z</time>
      </trkpt>
      <trkpt lat="59.9675057" lon="17.7156238">
        <ele>40.5128</ele>
        <time>2013-04-10T18:34:16Z</time>
      </trkpt>
      <trkpt lat="59.967513" lon="17.7156756">
        <ele>40.5128</ele>
        <time>2013-04-10T18:34:17Z</time>
      </trkpt>
      <trkpt lat="59.9675189" lon="17.7157259">
        <ele>40.5128</ele>
        <time>2013-04-10T18:34:18Z</time>
      </trkpt>
      <trkpt lat="59.9675267" lon="17.7157717">
        <ele>40.0321</ele>
        <time>2013-04-10T18:34:19Z</time>
      </trkpt>
      <trkpt lat="59.9675342" lon="17.715815">
        <ele>39.5513</ele>
        <time>2013-04-10T18:34:20Z</time>
      </trkpt>
      <trkpt lat="59.9675417" lon="17.7158548">
        <ele>39.5513</ele>
        <time>2013-04-10T18:34:21Z</time>
      </trkpt>
      <trkpt lat="59.967551" lon="17.7158962">
        <ele>39.0707</ele>
        <time>2013-04-10T18:34:22Z</time>
      </trkpt>
      <trkpt lat="59.9675628" lon="17.7159393">
        <ele>39.0707</ele>
        <time>2013-04-10T18:34:23Z</time>
      </trkpt>
      <trkpt lat="59.9675735" lon="17.7159795">
        <ele>39.0707</ele>
        <time>2013-04-10T18:34:24Z</time>
      </trkpt>
      <trkpt lat="59.9675845" lon="17.7160174">
        <ele>39.0707</ele>
        <time>2013-04-10T18:34:25Z</time>
      </trkpt>
      <trkpt lat="59.9675956" lon="17.7160562">
        <ele>38.5901</ele>
        <time>2013-04-10T18:34:26Z</time>
      </trkpt>
      <trkpt lat="59.9676086" lon="17.7160936">
        <ele>38.5901</ele>
        <time>2013-04-10T18:34:27Z</time>
      </trkpt>
      <trkpt lat="59.9676216" lon="17.7161309">
        <ele>38.1094</ele>
        <time>2013-04-10T18:34:28Z</time>
      </trkpt>
      <trkpt lat="59.9676329" lon="17.7161688">
        <ele>38.1094</ele>
        <time>2013-04-10T18:34:29Z</time>
      </trkpt>
      <trkpt lat="59.9676454" lon="17.7162042">
        <ele>38.1094</ele>
        <time>2013-04-10T18:34:30Z</time>
      </trkpt>
      <trkpt lat="59.967657" lon="17.7162446">
        <ele>38.1094</ele>
        <time>2013-04-10T18:34:31Z</time>
      </trkpt>
      <trkpt lat="59.9676673" lon="17.7162811">
        <ele>38.1094</ele>
        <time>2013-04-10T18:34:32Z</time>
      </trkpt>
      <trkpt lat="59.9676818" lon="17.7163122">
        <ele>38.1094</ele>
        <time>2013-04-10T18:34:33Z</time>
      </trkpt>
      <trkpt lat="59.9676973" lon="17.7163489">
        <ele>38.1094</ele>
        <time>2013-04-10T18:34:34Z</time>
      </trkpt>
      <trkpt lat="59.9677099" lon="17.7163893">
        <ele>37.6287</ele>
        <time>2013-04-10T18:34:35Z</time>
      </trkpt>
      <trkpt lat="59.9677233" lon="17.7164234">
        <ele>37.6287</ele>
        <time>2013-04-10T18:34:36Z</time>
      </trkpt>
      <trkpt lat="59.9677392" lon="17.7164542">
        <ele>38.1094</ele>
        <time>2013-04-10T18:34:37Z</time>
      </trkpt>
      <trkpt lat="59.9677569" lon="17.7164883">
        <ele>38.1094</ele>
        <time>2013-04-10T18:34:38Z</time>
      </trkpt>
      <trkpt lat="59.9677717" lon="17.7165231">
        <ele>38.1094</ele>
        <time>2013-04-10T18:34:39Z</time>
      </trkpt>
      <trkpt lat="59.9677855" lon="17.7165537">
        <ele>38.1094</ele>
        <time>2013-04-10T18:34:40Z</time>
      </trkpt>
      <trkpt lat="59.9678031" lon="17.7165867">
        <ele>37.6287</ele>
        <time>2013-04-10T18:34:41Z</time>
      </trkpt>
      <trkpt lat="59.9678215" lon="17.7166168">
        <ele>37.6287</ele>
        <time>2013-04-10T18:34:42Z</time>
      </trkpt>
      <trkpt lat="59.9678382" lon="17.7166442">
        <ele>37.6287</ele>
        <time>2013-04-10T18:34:43Z</time>
      </trkpt>
      <trkpt lat="59.9678549" lon="17.7166779">
        <ele>37.1481</ele>
        <time>2013-04-10T18:34:44Z</time>
      </trkpt>
      <trkpt lat="59.9678689" lon="17.716713">
        <ele>36.6675</ele>
        <time>2013-04-10T18:34:45Z</time>
      </trkpt>
      <trkpt lat="59.9678797" lon="17.7167412">
        <ele>36.6675</ele>
        <time>2013-04-10T18:34:46Z</time>
      </trkpt>
      <trkpt lat="59.9678899" lon="17.7167686">
        <ele>36.1868</ele>
        <time>2013-04-10T18:34:47Z</time>
      </trkpt>
      <trkpt lat="59.9679048" lon="17.7167985">
        <ele>35.2255</ele>
        <time>2013-04-10T18:34:48Z</time>
      </trkpt>
      <trkpt lat="59.9679204" lon="17.7168261">
        <ele>34.7449</ele>
        <time>2013-04-10T18:34:49Z</time>
      </trkpt>
      <trkpt lat="59.9679344" lon="17.716854">
        <ele>34.2642</ele>
        <time>2013-04-10T18:34:50Z</time>
      </trkpt>
      <trkpt lat="59.967948" lon="17.7168899">
        <ele>33.3029</ele>
        <time>2013-04-10T18:34:51Z</time>
      </trkpt>
      <trkpt lat="59.9679594" lon="17.7169203">
        <ele>33.3029</ele>
        <time>2013-04-10T18:34:52Z</time>
      </trkpt>
      <trkpt lat="59.9679704" lon="17.7169424">
        <ele>32.3416</ele>
        <time>2013-04-10T18:34:53Z</time>
      </trkpt>
      <trkpt lat="59.967986" lon="17.7169633">
        <ele>32.3416</ele>
        <time>2013-04-10T18:34:54Z</time>
      </trkpt>
      <trkpt lat="59.9680024" lon="17.7169868">
        <ele>31.8607</ele>
        <time>2013-04-10T18:34:55Z</time>
      </trkpt>
      <trkpt lat="59.9680169" lon="17.7170069">
        <ele>31.8607</ele>
        <time>2013-04-10T18:34:56Z</time>
      </trkpt>
      <trkpt lat="59.9680326" lon="17.7170271">
        <ele>31.3801</ele>
        <time>2013-04-10T18:34:57Z</time>
      </trkpt>
      <trkpt lat="59.9680485" lon="17.7170555">
        <ele>30.8995</ele>
        <time>2013-04-10T18:34:58Z</time>
      </trkpt>
      <trkpt lat="59.9680641" lon="17.7170823">
        <ele>30.8995</ele>
        <time>2013-04-10T18:34:59Z</time>
      </trkpt>
      <trkpt lat="59.9680796" lon="17.7171017">
        <ele>30.4188</ele>
        <time>2013-04-10T18:35:00Z</time>
      </trkpt>
      <trkpt lat="59.9680976" lon="17.7171196">
        <ele>30.4188</ele>
        <time>2013-04-10T18:35:01Z</time>
      </trkpt>
      <trkpt lat="59.9681148" lon="17.717142">
        <ele>29.9381</ele>
        <time>2013-04-10T18:35:02Z</time>
      </trkpt>
      <trkpt lat="59.9681314" lon="17.7171641">
        <ele>29.9381</ele>
        <time>2013-04-10T18:35:03Z</time>
      </trkpt>
      <trkpt lat="59.968149" lon="17.7171815">
        <ele>29.4575</ele>
        <time>2013-04-10T18:35:04Z</time>
      </trkpt>
      <trkpt lat="59.968169" lon="17.7172006">
        <ele>29.4575</ele>
        <time>2013-04-10T18:35:05Z</time>
      </trkpt>
      <trkpt lat="59.9681882" lon="17.7172177">
        <ele>28.9769</ele>
        <time>2013-04-10T18:35:06Z</time>
      </trkpt>
      <trkpt lat="59.9682072" lon="17.7172315">
        <ele>28.9769</ele>
        <time>2013-04-10T18:35:07Z</time>
      </trkpt>
      <trkpt lat="59.9682276" lon="17.7172455">
        <ele>28.9769</ele>
        <time>2013-04-10T18:35:08Z</time>
      </trkpt>
      <trkpt lat="59.9682474" lon="17.7172618">
        <ele>28.9769</ele>
        <time>2013-04-10T18:35:09Z</time>
      </trkpt>
      <trkpt lat="59.9682664" lon="17.7172739">
        <ele>28.4962</ele>
        <time>2013-04-10T18:35:10Z</time>
      </trkpt>
      <trkpt lat="59.9682863" lon="17.717282">
        <ele>28.9769</ele>
        <time>2013-04-10T18:35:11Z</time>
      </trkpt>
      <trkpt lat="59.9683069" lon="17.7172955">
        <ele>28.9769</ele>
        <time>2013-04-10T18:35:12Z</time>
      </trkpt>
      <trkpt lat="59.9683265" lon="17.7173099">
        <ele>28.9769</ele>
        <time>2013-04-10T18:35:13Z</time>
      </trkpt>
      <trkpt lat="59.9683438" lon="17.7173209">
        <ele>29.4575</ele>
        <time>2013-04-10T18:35:14Z</time>
      </trkpt>
      <trkpt lat="59.9683614" lon="17.7173315">
        <ele>28.9769</ele>
        <time>2013-04-10T18:35:15Z</time>
      </trkpt>
      <trkpt lat="59.9683811" lon="17.7173433">
        <ele>29.4575</ele>
        <time>2013-04-10T18:35:16Z</time>
      </trkpt>
      <trkpt lat="59.9684016" lon="17.7173539">
        <ele>29.4575</ele>
        <time>2013-04-10T18:35:17Z</time>
      </trkpt>
      <trkpt lat="59.9684227" lon="17.7173648">
        <ele>29.4575</ele>
        <time>2013-04-10T18:35:18Z</time>
      </trkpt>
      <trkpt lat="59.9684431" lon="17.7173778">
        <ele>29.4575</ele>
        <time>2013-04-10T18:35:19Z</time>
      </trkpt>
      <trkpt lat="59.9684635" lon="17.7173897">
        <ele>29.4575</ele>
        <time>2013-04-10T18:35:20Z</time>
      </trkpt>
      <trkpt lat="59.968482" lon="17.7174003">
        <ele>29.4575</ele>
        <time>2013-04-10T18:35:21Z</time>
      </trkpt>
      <trkpt lat="59.9685002" lon="17.7174071">
        <ele>29.4575</ele>
        <time>2013-04-10T18:35:22Z</time>
      </trkpt>
      <trkpt lat="59.9685194" lon="17.717415">
        <ele>29.4575</ele>
        <time>2013-04-10T18:35:23Z</time>
      </trkpt>
      <trkpt lat="59.9685396" lon="17.7174249">
        <ele>29.4575</ele>
        <time>2013-04-10T18:35:24Z</time>
      </trkpt>
      <trkpt lat="59.9685577" lon="17.7174337">
        <ele>29.4575</ele>
        <time>2013-04-10T18:35:25Z</time>
      </trkpt>
      <trkpt lat="59.9685765" lon="17.7174404">
        <ele>29.4575</ele>
        <time>2013-04-10T18:35:26Z</time>
      </trkpt>
      <trkpt lat="59.9685979" lon="17.7174472">
        <ele>29.4575</ele>
        <time>2013-04-10T18:35:27Z</time>
      </trkpt>
      <trkpt lat="59.9686183" lon="17.717455">
        <ele>29.4575</ele>
        <time>2013-04-10T18:35:28Z</time>
      </trkpt>
      <trkpt lat="59.9686376" lon="17.7174611">
        <ele>29.4575</ele>
        <time>2013-04-10T18:35:29Z</time>
      </trkpt>
      <trkpt lat="59.9686567" lon="17.7174679">
        <ele>29.4575</ele>
        <time>2013-04-10T18:35:30Z</time>
      </trkpt>
      <trkpt lat="59.9686779" lon="17.7174739">
        <ele>29.4575</ele>
        <time>2013-04-10T18:35:31Z</time>
      </trkpt>
      <trkpt lat="59.9686997" lon="17.7174803">
        <ele>29.9381</ele>
        <time>2013-04-10T18:35:32Z</time>
      </trkpt>
      <trkpt lat="59.9687203" lon="17.7174843">
        <ele>29.9381</ele>
        <time>2013-04-10T18:35:33Z</time>
      </trkpt>
      <trkpt lat="59.9687389" lon="17.7174884">
        <ele>29.9381</ele>
        <time>2013-04-10T18:35:34Z</time>
      </trkpt>
      <trkpt lat="59.9687591" lon="17.7174951">
        <ele>30.4188</ele>
        <time>2013-04-10T18:35:35Z</time>
      </trkpt>
      <trkpt lat="59.9687795" lon="17.7174993">
        <ele>30.4188</ele>
        <time>2013-04-10T18:35:36Z</time>
      </trkpt>
      <trkpt lat="59.9688001" lon="17.7174943">
        <ele>30.4188</ele>
        <time>2013-04-10T18:35:37Z</time>
      </trkpt>
      <trkpt lat="59.968824" lon="17.7174849">
        <ele>30.8995</ele>
        <time>2013-04-10T18:35:38Z</time>
      </trkpt>
      <trkpt lat="59.9688479" lon="17.7174731">
        <ele>30.8995</ele>
        <time>2013-04-10T18:35:39Z</time>
      </trkpt>
      <trkpt lat="59.9688691" lon="17.7174569">
        <ele>31.3801</ele>
        <time>2013-04-10T18:35:40Z</time>
      </trkpt>
      <trkpt lat="59.9688883" lon="17.7174381">
        <ele>31.3801</ele>
        <time>2013-04-10T18:35:41Z</time>
      </trkpt>
      <trkpt lat="59.9689084" lon="17.7174174">
        <ele>31.8607</ele>
        <time>2013-04-10T18:35:42Z</time>
      </trkpt>
      <trkpt lat="59.9689292" lon="17.7174005">
        <ele>31.8607</ele>
        <time>2013-04-10T18:35:43Z</time>
      </trkpt>
      <trkpt lat="59.9689494" lon="17.7173865">
        <ele>31.8607</ele>
        <time>2013-04-10T18:35:44Z</time>
      </trkpt>
      <trkpt lat="59.9689681" lon="17.7173758">
        <ele>31.8607</ele>
        <time>2013-04-10T18:35:45Z</time>
      </trkpt>
      <trkpt lat="59.9689891" lon="17.7173639">
        <ele>31.8607</ele>
        <time>2013-04-10T18:35:46Z</time>
      </trkpt>
      <trkpt lat="59.9690104" lon="17.7173553">
        <ele>31.8607</ele>
        <time>2013-04-10T18:35:47Z</time>
      </trkpt>
      <trkpt lat="59.9690311" lon="17.7173509">
        <ele>31.8607</ele>
        <time>2013-04-10T18:35:48Z</time>
      </trkpt>
      <trkpt lat="59.9690499" lon="17.7173493">
        <ele>31.8607</ele>
        <time>2013-04-10T18:35:49Z</time>
      </trkpt>
      <trkpt lat="59.9690701" lon="17.7173488">
        <ele>31.8607</ele>
        <time>2013-04-10T18:35:50Z</time>
      </trkpt>
      <trkpt lat="59.9690933" lon="17.7173517">
        <ele>31.8607</ele>
        <time>2013-04-10T18:35:51Z</time>
      </trkpt>
      <trkpt lat="59.9691155" lon="17.7173551">
        <ele>32.3416</ele>
        <time>2013-04-10T18:35:52Z</time>
      </trkpt>
      <trkpt lat="59.9691368" lon="17.7173595">
        <ele>31.8607</ele>
        <time>2013-04-10T18:35:53Z</time>
      </trkpt>
      <trkpt lat="59.9691602" lon="17.7173674">
        <ele>32.3416</ele>
        <time>2013-04-10T18:35:54Z</time>
      </trkpt>
      <trkpt lat="59.9691836" lon="17.7173768">
        <ele>32.3416</ele>
        <time>2013-04-10T18:35:55Z</time>
      </trkpt>
      <trkpt lat="59.9692056" lon="17.7173835">
        <ele>32.3416</ele>
        <time>2013-04-10T18:35:56Z</time>
      </trkpt>
      <trkpt lat="59.9692291" lon="17.71739">
        <ele>32.3416</ele>
        <time>2013-04-10T18:35:57Z</time>
      </trkpt>
      <trkpt lat="59.969255" lon="17.7174006">
        <ele>32.8223</ele>
        <time>2013-04-10T18:35:58Z</time>
      </trkpt>
      <trkpt lat="59.9692788" lon="17.7174141">
        <ele>33.3029</ele>
        <time>2013-04-10T18:35:59Z</time>
      </trkpt>
      <trkpt lat="59.9693005" lon="17.7174223">
        <ele>32.8223</ele>
        <time>2013-04-10T18:36:00Z</time>
      </trkpt>
      <trkpt lat="59.9693249" lon="17.7174311">
        <ele>33.3029</ele>
        <time>2013-04-10T18:36:01Z</time>
      </trkpt>
      <trkpt lat="59.9693503" lon="17.7174403">
        <ele>32.8223</ele>
        <time>2013-04-10T18:36:02Z</time>
      </trkpt>
      <trkpt lat="59.9693734" lon="17.717447">
        <ele>32.8223</ele>
        <time>2013-04-10T18:36:03Z</time>
      </trkpt>
      <trkpt lat="59.9693927" lon="17.717458">
        <ele>32.8223</ele>
        <time>2013-04-10T18:36:04Z</time>
      </trkpt>
      <trkpt lat="59.9694128" lon="17.7174694">
        <ele>32.8223</ele>
        <time>2013-04-10T18:36:05Z</time>
      </trkpt>
      <trkpt lat="59.9694328" lon="17.7174819">
        <ele>32.3416</ele>
        <time>2013-04-10T18:36:06Z</time>
      </trkpt>
      <trkpt lat="59.9694516" lon="17.7174918">
        <ele>32.3416</ele>
        <time>2013-04-10T18:36:07Z</time>
      </trkpt>
      <trkpt lat="59.9694716" lon="17.7174987">
        <ele>32.3416</ele>
        <time>2013-04-10T18:36:08Z</time>
      </trkpt>
      <trkpt lat="59.9694927" lon="17.7175103">
        <ele>32.3416</ele>
        <time>2013-04-10T18:36:09Z</time>
      </trkpt>
      <trkpt lat="59.9695131" lon="17.7175238">
        <ele>32.8223</ele>
        <time>2013-04-10T18:36:10Z</time>
      </trkpt>
      <trkpt lat="59.9695326" lon="17.7175353">
        <ele>32.8223</ele>
        <time>2013-04-10T18:36:11Z</time>
      </trkpt>
      <trkpt lat="59.9695512" lon="17.7175454">
        <ele>32.8223</ele>
        <time>2013-04-10T18:36:12Z</time>
      </trkpt>
      <trkpt lat="59.969571" lon="17.7175586">
        <ele>32.8223</ele>
        <time>2013-04-10T18:36:13Z</time>
      </trkpt>
      <trkpt lat="59.9695913" lon="17.717573">
        <ele>32.8223</ele>
        <time>2013-04-10T18:36:14Z</time>
      </trkpt>
      <trkpt lat="59.9696102" lon="17.7175834">
        <ele>32.8223</ele>
        <time>2013-04-10T18:36:15Z</time>
      </trkpt>
      <trkpt lat="59.9696286" lon="17.7175927">
        <ele>32.3416</ele>
        <time>2013-04-10T18:36:16Z</time>
      </trkpt>
      <trkpt lat="59.9696492" lon="17.7176067">
        <ele>32.3416</ele>
        <time>2013-04-10T18:36:17Z</time>
      </trkpt>
      <trkpt lat="59.9696718" lon="17.7176215">
        <ele>32.3416</ele>
        <time>2013-04-10T18:36:18Z</time>
      </trkpt>
      <trkpt lat="59.9696922" lon="17.7176336">
        <ele>32.3416</ele>
        <time>2013-04-10T18:36:19Z</time>
      </trkpt>
      <trkpt lat="59.9697119" lon="17.7176481">
        <ele>32.3416</ele>
        <time>2013-04-10T18:36:20Z</time>
      </trkpt>
      <trkpt lat="59.9697346" lon="17.7176653">
        <ele>32.3416</ele>
        <time>2013-04-10T18:36:21Z</time>
      </trkpt>
      <trkpt lat="59.9697564" lon="17.7176793">
        <ele>32.3416</ele>
        <time>2013-04-10T18:36:22Z</time>
      </trkpt>
      <trkpt lat="59.9697766" lon="17.7176932">
        <ele>31.8607</ele>
        <time>2013-04-10T18:36:23Z</time>
      </trkpt>
      <trkpt lat="59.9697967" lon="17.7177097">
        <ele>31.8607</ele>
        <time>2013-04-10T18:36:24Z</time>
      </trkpt>
      <trkpt lat="59.9698185" lon="17.7177268">
        <ele>32.3416</ele>
        <time>2013-04-10T18:36:25Z</time>
      </trkpt>
      <trkpt lat="59.9698398" lon="17.7177415">
        <ele>31.8607</ele>
        <time>2013-04-10T18:36:26Z</time>
      </trkpt>
      <trkpt lat="59.969861" lon="17.7177581">
        <ele>31.8607</ele>
        <time>2013-04-10T18:36:27Z</time>
      </trkpt>
      <trkpt lat="59.9698826" lon="17.7177761">
        <ele>31.8607</ele>
        <time>2013-04-10T18:36:28Z</time>
      </trkpt>
      <trkpt lat="59.9699038" lon="17.7177921">
        <ele>31.8607</ele>
        <time>2013-04-10T18:36:29Z</time>
      </trkpt>
      <trkpt lat="59.9699246" lon="17.7178082">
        <ele>31.3801</ele>
        <time>2013-04-10T18:36:30Z</time>
      </trkpt>
      <trkpt lat="59.9699455" lon="17.7178274">
        <ele>31.3801</ele>
        <time>2013-04-10T18:36:31Z</time>
      </trkpt>
      <trkpt lat="59.9699617" lon="17.717845">
        <ele>32.3416</ele>
        <time>2013-04-10T18:36:32Z</time>
      </trkpt>
      <trkpt lat="59.9699786" lon="17.717861">
        <ele>32.3416</ele>
        <time>2013-04-10T18:36:33Z</time>
      </trkpt>
      <trkpt lat="59.9699988" lon="17.7178808">
        <ele>32.8223</ele>
        <time>2013-04-10T18:36:34Z</time>
      </trkpt>
      <trkpt lat="59.9700202" lon="17.7178997">
        <ele>32.8223</ele>
        <time>2013-04-10T18:36:35Z</time>
      </trkpt>
      <trkpt lat="59.9700413" lon="17.717915">
        <ele>32.8223</ele>
        <time>2013-04-10T18:36:36Z</time>
      </trkpt>
      <trkpt lat="59.970062" lon="17.7179315">
        <ele>32.8223</ele>
        <time>2013-04-10T18:36:37Z</time>
      </trkpt>
      <trkpt lat="59.9700822" lon="17.7179507">
        <ele>32.8223</ele>
        <time>2013-04-10T18:36:38Z</time>
      </trkpt>
      <trkpt lat="59.9701023" lon="17.7179672">
        <ele>32.8223</ele>
        <time>2013-04-10T18:36:39Z</time>
      </trkpt>
      <trkpt lat="59.9701227" lon="17.7179815">
        <ele>32.8223</ele>
        <time>2013-04-10T18:36:40Z</time>
      </trkpt>
      <trkpt lat="59.9701426" lon="17.7179994">
        <ele>32.8223</ele>
        <time>2013-04-10T18:36:41Z</time>
      </trkpt>
      <trkpt lat="59.9701623" lon="17.7180189">
        <ele>32.8223</ele>
        <time>2013-04-10T18:36:42Z</time>
      </trkpt>
      <trkpt lat="59.9701823" lon="17.7180355">
        <ele>32.8223</ele>
        <time>2013-04-10T18:36:43Z</time>
      </trkpt>
      <trkpt lat="59.9702019" lon="17.718052">
        <ele>32.8223</ele>
        <time>2013-04-10T18:36:44Z</time>
      </trkpt>
      <trkpt lat="59.9702207" lon="17.7180718">
        <ele>33.3029</ele>
        <time>2013-04-10T18:36:45Z</time>
      </trkpt>
      <trkpt lat="59.9702398" lon="17.7180906">
        <ele>33.3029</ele>
        <time>2013-04-10T18:36:46Z</time>
      </trkpt>
      <trkpt lat="59.9702599" lon="17.7181077">
        <ele>33.7834</ele>
        <time>2013-04-10T18:36:47Z</time>
      </trkpt>
      <trkpt lat="59.9702796" lon="17.7181269">
        <ele>33.7834</ele>
        <time>2013-04-10T18:36:48Z</time>
      </trkpt>
      <trkpt lat="59.9702998" lon="17.7181454">
        <ele>33.7834</ele>
        <time>2013-04-10T18:36:49Z</time>
      </trkpt>
      <trkpt lat="59.97032" lon="17.7181605">
        <ele>33.7834</ele>
        <time>2013-04-10T18:36:50Z</time>
      </trkpt>
      <trkpt lat="59.9703402" lon="17.7181761">
        <ele>33.3029</ele>
        <time>2013-04-10T18:36:51Z</time>
      </trkpt>
      <trkpt lat="59.9703599" lon="17.7181947">
        <ele>33.3029</ele>
        <time>2013-04-10T18:36:52Z</time>
      </trkpt>
      <trkpt lat="59.9703789" lon="17.7182117">
        <ele>33.3029</ele>
        <time>2013-04-10T18:36:53Z</time>
      </trkpt>
      <trkpt lat="59.9703981" lon="17.7182269">
        <ele>33.3029</ele>
        <time>2013-04-10T18:36:54Z</time>
      </trkpt>
      <trkpt lat="59.9704169" lon="17.7182448">
        <ele>33.3029</ele>
        <time>2013-04-10T18:36:55Z</time>
      </trkpt>
      <trkpt lat="59.9704366" lon="17.718263">
        <ele>33.3029</ele>
        <time>2013-04-10T18:36:56Z</time>
      </trkpt>
      <trkpt lat="59.9704562" lon="17.7182786">
        <ele>33.3029</ele>
        <time>2013-04-10T18:36:57Z</time>
      </trkpt>
      <trkpt lat="59.9704769" lon="17.7182962">
        <ele>33.3029</ele>
        <time>2013-04-10T18:36:58Z</time>
      </trkpt>
      <trkpt lat="59.9704954" lon="17.7183174">
        <ele>33.7834</ele>
        <time>2013-04-10T18:36:59Z</time>
      </trkpt>
      <trkpt lat="59.9705122" lon="17.7183361">
        <ele>34.2642</ele>
        <time>2013-04-10T18:37:00Z</time>
      </trkpt>
      <trkpt lat="59.9705314" lon="17.7183537">
        <ele>34.7449</ele>
        <time>2013-04-10T18:37:01Z</time>
      </trkpt>
      <trkpt lat="59.9705536" lon="17.7183748">
        <ele>34.7449</ele>
        <time>2013-04-10T18:37:02Z</time>
      </trkpt>
      <trkpt lat="59.9705754" lon="17.7183955">
        <ele>35.2255</ele>
        <time>2013-04-10T18:37:03Z</time>
      </trkpt>
      <trkpt lat="59.9705956" lon="17.7184105">
        <ele>34.7449</ele>
        <time>2013-04-10T18:37:04Z</time>
      </trkpt>
      <trkpt lat="59.9706204" lon="17.718425">
        <ele>35.2255</ele>
        <time>2013-04-10T18:37:05Z</time>
      </trkpt>
      <trkpt lat="59.9706453" lon="17.7184429">
        <ele>35.2255</ele>
        <time>2013-04-10T18:37:06Z</time>
      </trkpt>
      <trkpt lat="59.9706702" lon="17.7184587">
        <ele>35.2255</ele>
        <time>2013-04-10T18:37:07Z</time>
      </trkpt>
      <trkpt lat="59.9706938" lon="17.7184717">
        <ele>35.2255</ele>
        <time>2013-04-10T18:37:08Z</time>
      </trkpt>
      <trkpt lat="59.9707173" lon="17.7184879">
        <ele>35.7061</ele>
        <time>2013-04-10T18:37:09Z</time>
      </trkpt>
      <trkpt lat="59.9707418" lon="17.7185029">
        <ele>35.7061</ele>
        <time>2013-04-10T18:37:10Z</time>
      </trkpt>
      <trkpt lat="59.9707643" lon="17.7185184">
        <ele>36.1868</ele>
        <time>2013-04-10T18:37:11Z</time>
      </trkpt>
      <trkpt lat="59.9707868" lon="17.7185366">
        <ele>36.1868</ele>
        <time>2013-04-10T18:37:12Z</time>
      </trkpt>
      <trkpt lat="59.9708096" lon="17.7185541">
        <ele>36.1868</ele>
        <time>2013-04-10T18:37:13Z</time>
      </trkpt>
      <trkpt lat="59.9708311" lon="17.7185703">
        <ele>35.7061</ele>
        <time>2013-04-10T18:37:14Z</time>
      </trkpt>
      <trkpt lat="59.9708509" lon="17.7185883">
        <ele>35.2255</ele>
        <time>2013-04-10T18:37:15Z</time>
      </trkpt>
      <trkpt lat="59.97087" lon="17.7186068">
        <ele>35.2255</ele>
        <time>2013-04-10T18:37:16Z</time>
      </trkpt>
      <trkpt lat="59.9708889" lon="17.7186225">
        <ele>34.7449</ele>
        <time>2013-04-10T18:37:17Z</time>
      </trkpt>
      <trkpt lat="59.9709095" lon="17.7186413">
        <ele>34.7449</ele>
        <time>2013-04-10T18:37:18Z</time>
      </trkpt>
      <trkpt lat="59.9709309" lon="17.7186625">
        <ele>34.7449</ele>
        <time>2013-04-10T18:37:19Z</time>
      </trkpt>
      <trkpt lat="59.9709523" lon="17.7186811">
        <ele>35.2255</ele>
        <time>2013-04-10T18:37:20Z</time>
      </trkpt>
      <trkpt lat="59.970973" lon="17.7186983">
        <ele>34.7449</ele>
        <time>2013-04-10T18:37:21Z</time>
      </trkpt>
      <trkpt lat="59.9709955" lon="17.718719">
        <ele>35.2255</ele>
        <time>2013-04-10T18:37:22Z</time>
      </trkpt>
      <trkpt lat="59.9710177" lon="17.7187368">
        <ele>34.7449</ele>
        <time>2013-04-10T18:37:23Z</time>
      </trkpt>
      <trkpt lat="59.9710398" lon="17.7187526">
        <ele>34.2642</ele>
        <time>2013-04-10T18:37:24Z</time>
      </trkpt>
      <trkpt lat="59.9710634" lon="17.7187738">
        <ele>34.7449</ele>
        <time>2013-04-10T18:37:25Z</time>
      </trkpt>
      <trkpt lat="59.9710847" lon="17.718794">
        <ele>34.7449</ele>
        <time>2013-04-10T18:37:26Z</time>
      </trkpt>
      <trkpt lat="59.9711053" lon="17.7188106">
        <ele>34.7449</ele>
        <time>2013-04-10T18:37:27Z</time>
      </trkpt>
      <trkpt lat="59.9711286" lon="17.7188297">
        <ele>34.7449</ele>
        <time>2013-04-10T18:37:28Z</time>
      </trkpt>
      <trkpt lat="59.9711534" lon="17.7188523">
        <ele>35.2255</ele>
        <time>2013-04-10T18:37:29Z</time>
      </trkpt>
      <trkpt lat="59.9711752" lon="17.7188736">
        <ele>35.7061</ele>
        <time>2013-04-10T18:37:30Z</time>
      </trkpt>
      <trkpt lat="59.9711974" lon="17.7188953">
        <ele>36.1868</ele>
        <time>2013-04-10T18:37:31Z</time>
      </trkpt>
      <trkpt lat="59.9712199" lon="17.7189197">
        <ele>36.6675</ele>
        <time>2013-04-10T18:37:32Z</time>
      </trkpt>
      <trkpt lat="59.9712415" lon="17.7189419">
        <ele>36.6675</ele>
        <time>2013-04-10T18:37:33Z</time>
      </trkpt>
      <trkpt lat="59.9712623" lon="17.7189618">
        <ele>36.6675</ele>
        <time>2013-04-10T18:37:34Z</time>
      </trkpt>
      <trkpt lat="59.9712845" lon="17.718985">
        <ele>37.1481</ele>
        <time>2013-04-10T18:37:35Z</time>
      </trkpt>
      <trkpt lat="59.9713051" lon="17.7190058">
        <ele>37.1481</ele>
        <time>2013-04-10T18:37:36Z</time>
      </trkpt>
      <trkpt lat="59.9713237" lon="17.7190224">
        <ele>37.1481</ele>
        <time>2013-04-10T18:37:37Z</time>
      </trkpt>
      <trkpt lat="59.9713406" lon="17.7190391">
        <ele>37.1481</ele>
        <time>2013-04-10T18:37:38Z</time>
      </trkpt>
      <trkpt lat="59.9713598" lon="17.7190581">
        <ele>37.6287</ele>
        <time>2013-04-10T18:37:39Z</time>
      </trkpt>
      <trkpt lat="59.9713799" lon="17.7190763">
        <ele>37.6287</ele>
        <time>2013-04-10T18:37:40Z</time>
      </trkpt>
      <trkpt lat="59.9714001" lon="17.7190928">
        <ele>37.6287</ele>
        <time>2013-04-10T18:37:41Z</time>
      </trkpt>
      <trkpt lat="59.9714187" lon="17.7191104">
        <ele>37.6287</ele>
        <time>2013-04-10T18:37:42Z</time>
      </trkpt>
      <trkpt lat="59.9714384" lon="17.7191313">
        <ele>38.1094</ele>
        <time>2013-04-10T18:37:43Z</time>
      </trkpt>
      <trkpt lat="59.9714576" lon="17.7191503">
        <ele>38.1094</ele>
        <time>2013-04-10T18:37:44Z</time>
      </trkpt>
      <trkpt lat="59.9714757" lon="17.7191667">
        <ele>38.1094</ele>
        <time>2013-04-10T18:37:45Z</time>
      </trkpt>
      <trkpt lat="59.9714944" lon="17.7191855">
        <ele>37.6287</ele>
        <time>2013-04-10T18:37:46Z</time>
      </trkpt>
      <trkpt lat="59.9715135" lon="17.7192031">
        <ele>37.6287</ele>
        <time>2013-04-10T18:37:47Z</time>
      </trkpt>
      <trkpt lat="59.9715305" lon="17.7192166">
        <ele>37.1481</ele>
        <time>2013-04-10T18:37:48Z</time>
      </trkpt>
      <trkpt lat="59.9715502" lon="17.7192316">
        <ele>37.1481</ele>
        <time>2013-04-10T18:37:49Z</time>
      </trkpt>
      <trkpt lat="59.9715747" lon="17.7192524">
        <ele>37.1481</ele>
        <time>2013-04-10T18:37:50Z</time>
      </trkpt>
      <trkpt lat="59.971597" lon="17.7192715">
        <ele>37.6287</ele>
        <time>2013-04-10T18:37:51Z</time>
      </trkpt>
      <trkpt lat="59.9716176" lon="17.7192883">
        <ele>37.1481</ele>
        <time>2013-04-10T18:37:52Z</time>
      </trkpt>
      <trkpt lat="59.9716389" lon="17.7193077">
        <ele>37.6287</ele>
        <time>2013-04-10T18:37:53Z</time>
      </trkpt>
      <trkpt lat="59.9716597" lon="17.7193273">
        <ele>37.6287</ele>
        <time>2013-04-10T18:37:54Z</time>
      </trkpt>
      <trkpt lat="59.9716796" lon="17.7193444">
        <ele>37.6287</ele>
        <time>2013-04-10T18:37:55Z</time>
      </trkpt>
      <trkpt lat="59.971701" lon="17.719362">
        <ele>37.6287</ele>
        <time>2013-04-10T18:37:56Z</time>
      </trkpt>
      <trkpt lat="59.9717213" lon="17.7193808">
        <ele>37.6287</ele>
        <time>2013-04-10T18:37:57Z</time>
      </trkpt>
      <trkpt lat="59.9717414" lon="17.7193979">
        <ele>37.6287</ele>
        <time>2013-04-10T18:37:58Z</time>
      </trkpt>
      <trkpt lat="59.9717621" lon="17.7194144">
        <ele>37.6287</ele>
        <time>2013-04-10T18:37:59Z</time>
      </trkpt>
      <trkpt lat="59.9717833" lon="17.7194337">
        <ele>38.1094</ele>
        <time>2013-04-10T18:38:00Z</time>
      </trkpt>
      <trkpt lat="59.9718026" lon="17.7194524">
        <ele>38.1094</ele>
        <time>2013-04-10T18:38:01Z</time>
      </trkpt>
      <trkpt lat="59.9718228" lon="17.7194679">
        <ele>38.1094</ele>
        <time>2013-04-10T18:38:02Z</time>
      </trkpt>
      <trkpt lat="59.9718446" lon="17.7194853">
        <ele>37.6287</ele>
        <time>2013-04-10T18:38:03Z</time>
      </trkpt>
      <trkpt lat="59.9718666" lon="17.7195038">
        <ele>38.1094</ele>
        <time>2013-04-10T18:38:04Z</time>
      </trkpt>
      <trkpt lat="59.971886" lon="17.71952">
        <ele>37.6287</ele>
        <time>2013-04-10T18:38:05Z</time>
      </trkpt>
      <trkpt lat="59.9719071" lon="17.7195384">
        <ele>37.6287</ele>
        <time>2013-04-10T18:38:06Z</time>
      </trkpt>
      <trkpt lat="59.9719279" lon="17.7195605">
        <ele>38.1094</ele>
        <time>2013-04-10T18:38:07Z</time>
      </trkpt>
      <trkpt lat="59.971947" lon="17.7195791">
        <ele>38.1094</ele>
        <time>2013-04-10T18:38:08Z</time>
      </trkpt>
      <trkpt lat="59.9719669" lon="17.719596">
        <ele>37.6287</ele>
        <time>2013-04-10T18:38:09Z</time>
      </trkpt>
      <trkpt lat="59.9719871" lon="17.7196172">
        <ele>37.6287</ele>
        <time>2013-04-10T18:38:10Z</time>
      </trkpt>
      <trkpt lat="59.9720067" lon="17.7196358">
        <ele>37.1481</ele>
        <time>2013-04-10T18:38:11Z</time>
      </trkpt>
      <trkpt lat="59.9720264" lon="17.7196518">
        <ele>37.1481</ele>
        <time>2013-04-10T18:38:12Z</time>
      </trkpt>
      <trkpt lat="59.9720468" lon="17.719671">
        <ele>37.1481</ele>
        <time>2013-04-10T18:38:13Z</time>
      </trkpt>
      <trkpt lat="59.9720667" lon="17.7196901">
        <ele>37.1481</ele>
        <time>2013-04-10T18:38:14Z</time>
      </trkpt>
      <trkpt lat="59.972088" lon="17.7197078">
        <ele>37.1481</ele>
        <time>2013-04-10T18:38:15Z</time>
      </trkpt>
      <trkpt lat="59.9721095" lon="17.719728">
        <ele>37.1481</ele>
        <time>2013-04-10T18:38:16Z</time>
      </trkpt>
      <trkpt lat="59.9721309" lon="17.7197486">
        <ele>37.1481</ele>
        <time>2013-04-10T18:38:17Z</time>
      </trkpt>
      <trkpt lat="59.972151" lon="17.7197657">
        <ele>37.1481</ele>
        <time>2013-04-10T18:38:18Z</time>
      </trkpt>
      <trkpt lat="59.9721727" lon="17.7197839">
        <ele>37.1481</ele>
        <time>2013-04-10T18:38:19Z</time>
      </trkpt>
      <trkpt lat="59.9721937" lon="17.7198046">
        <ele>37.1481</ele>
        <time>2013-04-10T18:38:20Z</time>
      </trkpt>
      <trkpt lat="59.9722134" lon="17.7198229">
        <ele>37.1481</ele>
        <time>2013-04-10T18:38:21Z</time>
      </trkpt>
      <trkpt lat="59.972233" lon="17.7198393">
        <ele>37.1481</ele>
        <time>2013-04-10T18:38:22Z</time>
      </trkpt>
      <trkpt lat="59.9722541" lon="17.7198583">
        <ele>36.6675</ele>
        <time>2013-04-10T18:38:23Z</time>
      </trkpt>
      <trkpt lat="59.9722749" lon="17.7198777">
        <ele>36.6675</ele>
        <time>2013-04-10T18:38:24Z</time>
      </trkpt>
      <trkpt lat="59.9722945" lon="17.7198956">
        <ele>36.6675</ele>
        <time>2013-04-10T18:38:25Z</time>
      </trkpt>
      <trkpt lat="59.9723138" lon="17.719916">
        <ele>36.6675</ele>
        <time>2013-04-10T18:38:26Z</time>
      </trkpt>
      <trkpt lat="59.9723343" lon="17.7199391">
        <ele>36.6675</ele>
        <time>2013-04-10T18:38:27Z</time>
      </trkpt>
      <trkpt lat="59.9723542" lon="17.7199569">
        <ele>36.6675</ele>
        <time>2013-04-10T18:38:28Z</time>
      </trkpt>
      <trkpt lat="59.9723735" lon="17.7199745">
        <ele>36.6675</ele>
        <time>2013-04-10T18:38:29Z</time>
      </trkpt>
      <trkpt lat="59.9723899" lon="17.7199942">
        <ele>36.6675</ele>
        <time>2013-04-10T18:38:30Z</time>
      </trkpt>
      <trkpt lat="59.9724056" lon="17.7200123">
        <ele>37.1481</ele>
        <time>2013-04-10T18:38:31Z</time>
      </trkpt>
      <trkpt lat="59.9724238" lon="17.7200289">
        <ele>37.1481</ele>
        <time>2013-04-10T18:38:32Z</time>
      </trkpt>
      <trkpt lat="59.9724448" lon="17.7200491">
        <ele>37.1481</ele>
        <time>2013-04-10T18:38:33Z</time>
      </trkpt>
      <trkpt lat="59.9724649" lon="17.7200679">
        <ele>37.1481</ele>
        <time>2013-04-10T18:38:34Z</time>
      </trkpt>
      <trkpt lat="59.9724842" lon="17.7200843">
        <ele>37.1481</ele>
        <time>2013-04-10T18:38:35Z</time>
      </trkpt>
      <trkpt lat="59.9725058" lon="17.7201054">
        <ele>37.1481</ele>
        <time>2013-04-10T18:38:36Z</time>
      </trkpt>
      <trkpt lat="59.9725255" lon="17.7201264">
        <ele>37.6287</ele>
        <time>2013-04-10T18:38:37Z</time>
      </trkpt>
      <trkpt lat="59.9725439" lon="17.720144">
        <ele>38.1094</ele>
        <time>2013-04-10T18:38:38Z</time>
      </trkpt>
      <trkpt lat="59.9725649" lon="17.7201641">
        <ele>38.1094</ele>
        <time>2013-04-10T18:38:39Z</time>
      </trkpt>
      <trkpt lat="59.9725864" lon="17.7201851">
        <ele>38.5901</ele>
        <time>2013-04-10T18:38:40Z</time>
      </trkpt>
      <trkpt lat="59.9726068" lon="17.7202028">
        <ele>39.0707</ele>
        <time>2013-04-10T18:38:41Z</time>
      </trkpt>
      <trkpt lat="59.9726277" lon="17.7202227">
        <ele>39.0707</ele>
        <time>2013-04-10T18:38:42Z</time>
      </trkpt>
      <trkpt lat="59.9726485" lon="17.720244">
        <ele>39.0707</ele>
        <time>2013-04-10T18:38:43Z</time>
      </trkpt>
      <trkpt lat="59.9726686" lon="17.7202624">
        <ele>39.5513</ele>
        <time>2013-04-10T18:38:44Z</time>
      </trkpt>
      <trkpt lat="59.9726885" lon="17.7202812">
        <ele>39.5513</ele>
        <time>2013-04-10T18:38:45Z</time>
      </trkpt>
      <trkpt lat="59.9727097" lon="17.7203024">
        <ele>40.0321</ele>
        <time>2013-04-10T18:38:46Z</time>
      </trkpt>
      <trkpt lat="59.9727303" lon="17.7203226">
        <ele>40.0321</ele>
        <time>2013-04-10T18:38:47Z</time>
      </trkpt>
      <trkpt lat="59.9727498" lon="17.7203401">
        <ele>40.5128</ele>
        <time>2013-04-10T18:38:48Z</time>
      </trkpt>
      <trkpt lat="59.97277" lon="17.7203599">
        <ele>40.0321</ele>
        <time>2013-04-10T18:38:49Z</time>
      </trkpt>
      <trkpt lat="59.9727905" lon="17.7203822">
        <ele>40.5128</ele>
        <time>2013-04-10T18:38:50Z</time>
      </trkpt>
      <trkpt lat="59.9728096" lon="17.7204013">
        <ele>40.0321</ele>
        <time>2013-04-10T18:38:51Z</time>
      </trkpt>
      <trkpt lat="59.9728303" lon="17.7204229">
        <ele>40.0321</ele>
        <time>2013-04-10T18:38:52Z</time>
      </trkpt>
      <trkpt lat="59.9728508" lon="17.7204473">
        <ele>40.0321</ele>
        <time>2013-04-10T18:38:53Z</time>
      </trkpt>
      <trkpt lat="59.9728703" lon="17.7204685">
        <ele>40.0321</ele>
        <time>2013-04-10T18:38:54Z</time>
      </trkpt>
      <trkpt lat="59.9728908" lon="17.7204913">
        <ele>40.5128</ele>
        <time>2013-04-10T18:38:55Z</time>
      </trkpt>
      <trkpt lat="59.9729107" lon="17.7205159">
        <ele>40.0321</ele>
        <time>2013-04-10T18:38:56Z</time>
      </trkpt>
      <trkpt lat="59.9729314" lon="17.7205381">
        <ele>40.0321</ele>
        <time>2013-04-10T18:38:57Z</time>
      </trkpt>
      <trkpt lat="59.9729515" lon="17.7205608">
        <ele>40.0321</ele>
        <time>2013-04-10T18:38:58Z</time>
      </trkpt>
      <trkpt lat="59.9729717" lon="17.7205868">
        <ele>39.5513</ele>
        <time>2013-04-10T18:38:59Z</time>
      </trkpt>
      <trkpt lat="59.9729904" lon="17.720611">
        <ele>39.5513</ele>
        <time>2013-04-10T18:39:00Z</time>
      </trkpt>
      <trkpt lat="59.9730084" lon="17.7206327">
        <ele>39.5513</ele>
        <time>2013-04-10T18:39:01Z</time>
      </trkpt>
      <trkpt lat="59.9730278" lon="17.7206581">
        <ele>39.5513</ele>
        <time>2013-04-10T18:39:02Z</time>
      </trkpt>
      <trkpt lat="59.9730471" lon="17.7206827">
        <ele>39.5513</ele>
        <time>2013-04-10T18:39:03Z</time>
      </trkpt>
      <trkpt lat="59.9730656" lon="17.7207049">
        <ele>39.5513</ele>
        <time>2013-04-10T18:39:04Z</time>
      </trkpt>
      <trkpt lat="59.9730841" lon="17.7207307">
        <ele>39.5513</ele>
        <time>2013-04-10T18:39:05Z</time>
      </trkpt>
      <trkpt lat="59.9731018" lon="17.7207577">
        <ele>39.0707</ele>
        <time>2013-04-10T18:39:06Z</time>
      </trkpt>
      <trkpt lat="59.9731197" lon="17.720782">
        <ele>39.0707</ele>
        <time>2013-04-10T18:39:07Z</time>
      </trkpt>
      <trkpt lat="59.9731374" lon="17.7208096">
        <ele>39.0707</ele>
        <time>2013-04-10T18:39:08Z</time>
      </trkpt>
      <trkpt lat="59.9731551" lon="17.7208391">
        <ele>39.0707</ele>
        <time>2013-04-10T18:39:09Z</time>
      </trkpt>
      <trkpt lat="59.9731717" lon="17.720864">
        <ele>39.0707</ele>
        <time>2013-04-10T18:39:10Z</time>
      </trkpt>
      <trkpt lat="59.9731881" lon="17.7208881">
        <ele>38.5901</ele>
        <time>2013-04-10T18:39:11Z</time>
      </trkpt>
      <trkpt lat="59.9732063" lon="17.7209159">
        <ele>38.5901</ele>
        <time>2013-04-10T18:39:12Z</time>
      </trkpt>
      <trkpt lat="59.9732229" lon="17.7209422">
        <ele>38.5901</ele>
        <time>2013-04-10T18:39:13Z</time>
      </trkpt>
      <trkpt lat="59.9732399" lon="17.720967">
        <ele>38.5901</ele>
        <time>2013-04-10T18:39:14Z</time>
      </trkpt>
      <trkpt lat="59.9732578" lon="17.7209958">
        <ele>38.5901</ele>
        <time>2013-04-10T18:39:15Z</time>
      </trkpt>
      <trkpt lat="59.9732761" lon="17.7210252">
        <ele>39.0707</ele>
        <time>2013-04-10T18:39:16Z</time>
      </trkpt>
      <trkpt lat="59.9732937" lon="17.7210583">
        <ele>39.5513</ele>
        <time>2013-04-10T18:39:17Z</time>
      </trkpt>
      <trkpt lat="59.9733113" lon="17.721093">
        <ele>39.5513</ele>
        <time>2013-04-10T18:39:18Z</time>
      </trkpt>
      <trkpt lat="59.9733295" lon="17.7211274">
        <ele>39.5513</ele>
        <time>2013-04-10T18:39:19Z</time>
      </trkpt>
      <trkpt lat="59.9733468" lon="17.7211586">
        <ele>40.0321</ele>
        <time>2013-04-10T18:39:20Z</time>
      </trkpt>
      <trkpt lat="59.9733644" lon="17.7211893">
        <ele>40.0321</ele>
        <time>2013-04-10T18:39:21Z</time>
      </trkpt>
      <trkpt lat="59.9733809" lon="17.7212224">
        <ele>40.0321</ele>
        <time>2013-04-10T18:39:22Z</time>
      </trkpt>
      <trkpt lat="59.9733963" lon="17.7212522">
        <ele>40.5128</ele>
        <time>2013-04-10T18:39:23Z</time>
      </trkpt>
      <trkpt lat="59.9734126" lon="17.7212782">
        <ele>40.9934</ele>
        <time>2013-04-10T18:39:24Z</time>
      </trkpt>
      <trkpt lat="59.973429" lon="17.721309">
        <ele>41.474</ele>
        <time>2013-04-10T18:39:25Z</time>
      </trkpt>
      <trkpt lat="59.9734457" lon="17.7213431">
        <ele>41.9547</ele>
        <time>2013-04-10T18:39:26Z</time>
      </trkpt>
      <trkpt lat="59.9734642" lon="17.7213737">
        <ele>42.4354</ele>
        <time>2013-04-10T18:39:27Z</time>
      </trkpt>
      <trkpt lat="59.9734799" lon="17.7214066">
        <ele>42.916</ele>
        <time>2013-04-10T18:39:28Z</time>
      </trkpt>
      <trkpt lat="59.9734948" lon="17.7214408">
        <ele>42.916</ele>
        <time>2013-04-10T18:39:29Z</time>
      </trkpt>
      <trkpt lat="59.9735111" lon="17.7214737">
        <ele>43.3966</ele>
        <time>2013-04-10T18:39:30Z</time>
      </trkpt>
      <trkpt lat="59.9735266" lon="17.7215109">
        <ele>43.3966</ele>
        <time>2013-04-10T18:39:31Z</time>
      </trkpt>
      <trkpt lat="59.9735414" lon="17.721548">
        <ele>43.8773</ele>
        <time>2013-04-10T18:39:32Z</time>
      </trkpt>
      <trkpt lat="59.9735556" lon="17.721582">
        <ele>43.8773</ele>
        <time>2013-04-10T18:39:33Z</time>
      </trkpt>
      <trkpt lat="59.973572" lon="17.7216196">
        <ele>44.358</ele>
        <time>2013-04-10T18:39:34Z</time>
      </trkpt>
      <trkpt lat="59.9735865" lon="17.7216548">
        <ele>44.358</ele>
        <time>2013-04-10T18:39:35Z</time>
      </trkpt>
      <trkpt lat="59.9736011" lon="17.7216867">
        <ele>44.358</ele>
        <time>2013-04-10T18:39:36Z</time>
      </trkpt>
      <trkpt lat="59.9736188" lon="17.7217198">
        <ele>44.358</ele>
        <time>2013-04-10T18:39:37Z</time>
      </trkpt>
      <trkpt lat="59.9736335" lon="17.7217545">
        <ele>44.358</ele>
        <time>2013-04-10T18:39:38Z</time>
      </trkpt>
      <trkpt lat="59.9736468" lon="17.721788">
        <ele>44.358</ele>
        <time>2013-04-10T18:39:39Z</time>
      </trkpt>
      <trkpt lat="59.9736612" lon="17.7218222">
        <ele>44.358</ele>
        <time>2013-04-10T18:39:40Z</time>
      </trkpt>
      <trkpt lat="59.9736748" lon="17.7218601">
        <ele>44.8386</ele>
        <time>2013-04-10T18:39:41Z</time>
      </trkpt>
      <trkpt lat="59.973688" lon="17.7218954">
        <ele>44.8386</ele>
        <time>2013-04-10T18:39:42Z</time>
      </trkpt>
      <trkpt lat="59.9737007" lon="17.7219285">
        <ele>44.8386</ele>
        <time>2013-04-10T18:39:43Z</time>
      </trkpt>
      <trkpt lat="59.9737125" lon="17.7219642">
        <ele>44.358</ele>
        <time>2013-04-10T18:39:44Z</time>
      </trkpt>
      <trkpt lat="59.973725" lon="17.7220008">
        <ele>44.8386</ele>
        <time>2013-04-10T18:39:45Z</time>
      </trkpt>
      <trkpt lat="59.9737399" lon="17.7220335">
        <ele>44.8386</ele>
        <time>2013-04-10T18:39:46Z</time>
      </trkpt>
      <trkpt lat="59.9737533" lon="17.7220697">
        <ele>44.8386</ele>
        <time>2013-04-10T18:39:47Z</time>
      </trkpt>
      <trkpt lat="59.9737651" lon="17.722109">
        <ele>44.8386</ele>
        <time>2013-04-10T18:39:48Z</time>
      </trkpt>
      <trkpt lat="59.9737768" lon="17.7221429">
        <ele>45.3192</ele>
        <time>2013-04-10T18:39:49Z</time>
      </trkpt>
      <trkpt lat="59.9737889" lon="17.7221775">
        <ele>44.8386</ele>
        <time>2013-04-10T18:39:50Z</time>
      </trkpt>
      <trkpt lat="59.9738016" lon="17.7222154">
        <ele>44.8386</ele>
        <time>2013-04-10T18:39:51Z</time>
      </trkpt>
      <trkpt lat="59.9738139" lon="17.7222507">
        <ele>45.3192</ele>
        <time>2013-04-10T18:39:52Z</time>
      </trkpt>
      <trkpt lat="59.9738244" lon="17.7222869">
        <ele>45.3192</ele>
        <time>2013-04-10T18:39:53Z</time>
      </trkpt>
      <trkpt lat="59.9738346" lon="17.7223263">
        <ele>45.3192</ele>
        <time>2013-04-10T18:39:54Z</time>
      </trkpt>
      <trkpt lat="59.9738464" lon="17.7223641">
        <ele>45.7999</ele>
        <time>2013-04-10T18:39:55Z</time>
      </trkpt>
      <trkpt lat="59.9738586" lon="17.7224036">
        <ele>46.2806</ele>
        <time>2013-04-10T18:39:56Z</time>
      </trkpt>
      <trkpt lat="59.9738693" lon="17.7224463">
        <ele>46.2806</ele>
        <time>2013-04-10T18:39:57Z</time>
      </trkpt>
      <trkpt lat="59.9738793" lon="17.7224854">
        <ele>46.7612</ele>
        <time>2013-04-10T18:39:58Z</time>
      </trkpt>
      <trkpt lat="59.9738899" lon="17.7225269">
        <ele>47.2418</ele>
        <time>2013-04-10T18:39:59Z</time>
      </trkpt>
      <trkpt lat="59.9739015" lon="17.7225714">
        <ele>46.7612</ele>
        <time>2013-04-10T18:40:00Z</time>
      </trkpt>
      <trkpt lat="59.973914" lon="17.7226142">
        <ele>46.7612</ele>
        <time>2013-04-10T18:40:01Z</time>
      </trkpt>
      <trkpt lat="59.9739259" lon="17.7226543">
        <ele>46.7612</ele>
        <time>2013-04-10T18:40:02Z</time>
      </trkpt>
      <trkpt lat="59.9739348" lon="17.722692">
        <ele>46.7612</ele>
        <time>2013-04-10T18:40:03Z</time>
      </trkpt>
      <trkpt lat="59.9739435" lon="17.7227299">
        <ele>47.2418</ele>
        <time>2013-04-10T18:40:04Z</time>
      </trkpt>
      <trkpt lat="59.9739517" lon="17.7227691">
        <ele>47.7225</ele>
        <time>2013-04-10T18:40:05Z</time>
      </trkpt>
      <trkpt lat="59.9739578" lon="17.722809">
        <ele>48.2034</ele>
        <time>2013-04-10T18:40:06Z</time>
      </trkpt>
      <trkpt lat="59.9739636" lon="17.7228468">
        <ele>48.2034</ele>
        <time>2013-04-10T18:40:07Z</time>
      </trkpt>
      <trkpt lat="59.9739715" lon="17.722886">
        <ele>48.684</ele>
        <time>2013-04-10T18:40:08Z</time>
      </trkpt>
      <trkpt lat="59.9739813" lon="17.7229303">
        <ele>48.2034</ele>
        <time>2013-04-10T18:40:09Z</time>
      </trkpt>
      <trkpt lat="59.9739904" lon="17.7229759">
        <ele>48.2034</ele>
        <time>2013-04-10T18:40:10Z</time>
      </trkpt>
      <trkpt lat="59.9740005" lon="17.7230203">
        <ele>48.2034</ele>
        <time>2013-04-10T18:40:11Z</time>
      </trkpt>
      <trkpt lat="59.9740106" lon="17.7230655">
        <ele>48.2034</ele>
        <time>2013-04-10T18:40:12Z</time>
      </trkpt>
      <trkpt lat="59.9740202" lon="17.7231049">
        <ele>47.7225</ele>
        <time>2013-04-10T18:40:13Z</time>
      </trkpt>
      <trkpt lat="59.9740295" lon="17.7231435">
        <ele>48.2034</ele>
        <time>2013-04-10T18:40:14Z</time>
      </trkpt>
      <trkpt lat="59.9740345" lon="17.7231804">
        <ele>48.2034</ele>
        <time>2013-04-10T18:40:15Z</time>
      </trkpt>
      <trkpt lat="59.9740403" lon="17.7232241">
        <ele>48.684</ele>
        <time>2013-04-10T18:40:16Z</time>
      </trkpt>
      <trkpt lat="59.97405" lon="17.7232782">
        <ele>48.684</ele>
        <time>2013-04-10T18:40:17Z</time>
      </trkpt>
      <trkpt lat="59.9740579" lon="17.7233308">
        <ele>49.1646</ele>
        <time>2013-04-10T18:40:18Z</time>
      </trkpt>
      <trkpt lat="59.9740663" lon="17.7233789">
        <ele>49.6453</ele>
        <time>2013-04-10T18:40:19Z</time>
      </trkpt>
      <trkpt lat="59.9740754" lon="17.7234287">
        <ele>49.6453</ele>
        <time>2013-04-10T18:40:20Z</time>
      </trkpt>
      <trkpt lat="59.9740844" lon="17.7234795">
        <ele>49.6453</ele>
        <time>2013-04-10T18:40:21Z</time>
      </trkpt>
      <trkpt lat="59.9740938" lon="17.7235256">
        <ele>49.6453</ele>
        <time>2013-04-10T18:40:22Z</time>
      </trkpt>
      <trkpt lat="59.9741016" lon="17.723574">
        <ele>49.6453</ele>
        <time>2013-04-10T18:40:23Z</time>
      </trkpt>
      <trkpt lat="59.9741081" lon="17.7236202">
        <ele>49.6453</ele>
        <time>2013-04-10T18:40:24Z</time>
      </trkpt>
      <trkpt lat="59.9741174" lon="17.7236675">
        <ele>49.6453</ele>
        <time>2013-04-10T18:40:25Z</time>
      </trkpt>
      <trkpt lat="59.9741256" lon="17.7237162">
        <ele>49.6453</ele>
        <time>2013-04-10T18:40:26Z</time>
      </trkpt>
      <trkpt lat="59.9741339" lon="17.7237639">
        <ele>49.6453</ele>
        <time>2013-04-10T18:40:27Z</time>
      </trkpt>
      <trkpt lat="59.9741406" lon="17.7238107">
        <ele>49.6453</ele>
        <time>2013-04-10T18:40:28Z</time>
      </trkpt>
      <trkpt lat="59.9741471" lon="17.7238575">
        <ele>49.6453</ele>
        <time>2013-04-10T18:40:29Z</time>
      </trkpt>
      <trkpt lat="59.9741532" lon="17.7238995">
        <ele>49.1646</ele>
        <time>2013-04-10T18:40:30Z</time>
      </trkpt>
      <trkpt lat="59.97416" lon="17.7239459">
        <ele>49.1646</ele>
        <time>2013-04-10T18:40:31Z</time>
      </trkpt>
      <trkpt lat="59.9741668" lon="17.7239969">
        <ele>49.1646</ele>
        <time>2013-04-10T18:40:32Z</time>
      </trkpt>
      <trkpt lat="59.9741744" lon="17.7240428">
        <ele>49.1646</ele>
        <time>2013-04-10T18:40:33Z</time>
      </trkpt>
      <trkpt lat="59.9741829" lon="17.72409">
        <ele>49.1646</ele>
        <time>2013-04-10T18:40:34Z</time>
      </trkpt>
      <trkpt lat="59.9741905" lon="17.7241397">
        <ele>49.1646</ele>
        <time>2013-04-10T18:40:35Z</time>
      </trkpt>
      <trkpt lat="59.9741974" lon="17.7241814">
        <ele>49.1646</ele>
        <time>2013-04-10T18:40:36Z</time>
      </trkpt>
      <trkpt lat="59.9742066" lon="17.7242248">
        <ele>49.1646</ele>
        <time>2013-04-10T18:40:37Z</time>
      </trkpt>
      <trkpt lat="59.9742135" lon="17.7242723">
        <ele>49.1646</ele>
        <time>2013-04-10T18:40:38Z</time>
      </trkpt>
      <trkpt lat="59.9742204" lon="17.724316">
        <ele>49.1646</ele>
        <time>2013-04-10T18:40:39Z</time>
      </trkpt>
      <trkpt lat="59.9742292" lon="17.7243599">
        <ele>49.1646</ele>
        <time>2013-04-10T18:40:40Z</time>
      </trkpt>
      <trkpt lat="59.9742367" lon="17.7244071">
        <ele>49.6453</ele>
        <time>2013-04-10T18:40:41Z</time>
      </trkpt>
      <trkpt lat="59.9742433" lon="17.7244492">
        <ele>49.1646</ele>
        <time>2013-04-10T18:40:42Z</time>
      </trkpt>
      <trkpt lat="59.9742515" lon="17.7244927">
        <ele>49.1646</ele>
        <time>2013-04-10T18:40:43Z</time>
      </trkpt>
      <trkpt lat="59.9742585" lon="17.7245408">
        <ele>49.6453</ele>
        <time>2013-04-10T18:40:44Z</time>
      </trkpt>
      <trkpt lat="59.9742655" lon="17.7245885">
        <ele>49.6453</ele>
        <time>2013-04-10T18:40:45Z</time>
      </trkpt>
      <trkpt lat="59.9742728" lon="17.724637">
        <ele>49.6453</ele>
        <time>2013-04-10T18:40:46Z</time>
      </trkpt>
      <trkpt lat="59.9742792" lon="17.7246856">
        <ele>49.6453</ele>
        <time>2013-04-10T18:40:47Z</time>
      </trkpt>
      <trkpt lat="59.9742862" lon="17.7247291">
        <ele>49.6453</ele>
        <time>2013-04-10T18:40:48Z</time>
      </trkpt>
      <trkpt lat="59.9742942" lon="17.7247719">
        <ele>49.6453</ele>
        <time>2013-04-10T18:40:49Z</time>
      </trkpt>
      <trkpt lat="59.9743019" lon="17.7248191">
        <ele>49.6453</ele>
        <time>2013-04-10T18:40:50Z</time>
      </trkpt>
      <trkpt lat="59.9743082" lon="17.7248636">
        <ele>49.6453</ele>
        <time>2013-04-10T18:40:51Z</time>
      </trkpt>
      <trkpt lat="59.9743154" lon="17.7249069">
        <ele>49.6453</ele>
        <time>2013-04-10T18:40:52Z</time>
      </trkpt>
      <trkpt lat="59.9743216" lon="17.7249509">
        <ele>49.6453</ele>
        <time>2013-04-10T18:40:53Z</time>
      </trkpt>
      <trkpt lat="59.9743283" lon="17.724994">
        <ele>49.6453</ele>
        <time>2013-04-10T18:40:54Z</time>
      </trkpt>
      <trkpt lat="59.974337" lon="17.7250385">
        <ele>49.6453</ele>
        <time>2013-04-10T18:40:55Z</time>
      </trkpt>
      <trkpt lat="59.9743435" lon="17.7250861">
        <ele>49.6453</ele>
        <time>2013-04-10T18:40:56Z</time>
      </trkpt>
      <trkpt lat="59.9743516" lon="17.7251364">
        <ele>50.126</ele>
        <time>2013-04-10T18:40:57Z</time>
      </trkpt>
      <trkpt lat="59.9743595" lon="17.7251861">
        <ele>50.126</ele>
        <time>2013-04-10T18:40:58Z</time>
      </trkpt>
      <trkpt lat="59.974367" lon="17.7252378">
        <ele>50.6066</ele>
        <time>2013-04-10T18:40:59Z</time>
      </trkpt>
      <trkpt lat="59.974375" lon="17.7252894">
        <ele>51.0872</ele>
        <time>2013-04-10T18:41:00Z</time>
      </trkpt>
      <trkpt lat="59.9743828" lon="17.7253348">
        <ele>51.0872</ele>
        <time>2013-04-10T18:41:01Z</time>
      </trkpt>
      <trkpt lat="59.9743868" lon="17.7253711">
        <ele>50.6066</ele>
        <time>2013-04-10T18:41:02Z</time>
      </trkpt>
      <trkpt lat="59.9743901" lon="17.7254098">
        <ele>51.0872</ele>
        <time>2013-04-10T18:41:03Z</time>
      </trkpt>
      <trkpt lat="59.9743957" lon="17.7254538">
        <ele>51.0872</ele>
        <time>2013-04-10T18:41:04Z</time>
      </trkpt>
      <trkpt lat="59.9744" lon="17.7254973">
        <ele>51.0872</ele>
        <time>2013-04-10T18:41:05Z</time>
      </trkpt>
      <trkpt lat="59.9744029" lon="17.7255426">
        <ele>51.0872</ele>
        <time>2013-04-10T18:41:06Z</time>
      </trkpt>
      <trkpt lat="59.9744061" lon="17.7255839">
        <ele>50.6066</ele>
        <time>2013-04-10T18:41:07Z</time>
      </trkpt>
      <trkpt lat="59.9744096" lon="17.7256196">
        <ele>50.6066</ele>
        <time>2013-04-10T18:41:08Z</time>
      </trkpt>
      <trkpt lat="59.9744121" lon="17.7256587">
        <ele>50.6066</ele>
        <time>2013-04-10T18:41:09Z</time>
      </trkpt>
      <trkpt lat="59.9744158" lon="17.7257006">
        <ele>50.6066</ele>
        <time>2013-04-10T18:41:10Z</time>
      </trkpt>
      <trkpt lat="59.9744219" lon="17.7257401">
        <ele>50.126</ele>
        <time>2013-04-10T18:41:11Z</time>
      </trkpt>
      <trkpt lat="59.9744263" lon="17.7257787">
        <ele>50.126</ele>
        <time>2013-04-10T18:41:12Z</time>
      </trkpt>
      <trkpt lat="59.9744283" lon="17.7258161">
        <ele>49.6453</ele>
        <time>2013-04-10T18:41:13Z</time>
      </trkpt>
      <trkpt lat="59.9744349" lon="17.7258553">
        <ele>49.6453</ele>
        <time>2013-04-10T18:41:14Z</time>
      </trkpt>
      <trkpt lat="59.9744403" lon="17.7258938">
        <ele>49.6453</ele>
        <time>2013-04-10T18:41:15Z</time>
      </trkpt>
      <trkpt lat="59.9744421" lon="17.7259291">
        <ele>49.1646</ele>
        <time>2013-04-10T18:41:16Z</time>
      </trkpt>
      <trkpt lat="59.9744454" lon="17.7259635">
        <ele>48.684</ele>
        <time>2013-04-10T18:41:17Z</time>
      </trkpt>
      <trkpt lat="59.9744491" lon="17.7259967">
        <ele>48.2034</ele>
        <time>2013-04-10T18:41:18Z</time>
      </trkpt>
      <trkpt lat="59.9744527" lon="17.7260348">
        <ele>48.2034</ele>
        <time>2013-04-10T18:41:19Z</time>
      </trkpt>
      <trkpt lat="59.9744577" lon="17.7260792">
        <ele>47.7225</ele>
        <time>2013-04-10T18:41:20Z</time>
      </trkpt>
      <trkpt lat="59.9744629" lon="17.7261217">
        <ele>47.2418</ele>
        <time>2013-04-10T18:41:21Z</time>
      </trkpt>
      <trkpt lat="59.9744685" lon="17.7261637">
        <ele>47.2418</ele>
        <time>2013-04-10T18:41:22Z</time>
      </trkpt>
      <trkpt lat="59.9744722" lon="17.7262071">
        <ele>46.7612</ele>
        <time>2013-04-10T18:41:23Z</time>
      </trkpt>
      <trkpt lat="59.9744739" lon="17.7262522">
        <ele>47.2418</ele>
        <time>2013-04-10T18:41:24Z</time>
      </trkpt>
      <trkpt lat="59.974475" lon="17.7262927">
        <ele>46.7612</ele>
        <time>2013-04-10T18:41:25Z</time>
      </trkpt>
      <trkpt lat="59.9744745" lon="17.7263279">
        <ele>46.2806</ele>
        <time>2013-04-10T18:41:26Z</time>
      </trkpt>
      <trkpt lat="59.974473" lon="17.7263647">
        <ele>45.7999</ele>
        <time>2013-04-10T18:41:27Z</time>
      </trkpt>
      <trkpt lat="59.9744698" lon="17.7264034">
        <ele>45.7999</ele>
        <time>2013-04-10T18:41:28Z</time>
      </trkpt>
      <trkpt lat="59.9744734" lon="17.7264429">
        <ele>45.3192</ele>
        <time>2013-04-10T18:41:29Z</time>
      </trkpt>
      <trkpt lat="59.974476" lon="17.7264822">
        <ele>44.8386</ele>
        <time>2013-04-10T18:41:30Z</time>
      </trkpt>
      <trkpt lat="59.9744758" lon="17.7265235">
        <ele>44.8386</ele>
        <time>2013-04-10T18:41:31Z</time>
      </trkpt>
      <trkpt lat="59.9744781" lon="17.7265665">
        <ele>44.358</ele>
        <time>2013-04-10T18:41:32Z</time>
      </trkpt>
      <trkpt lat="59.9744815" lon="17.7266078">
        <ele>43.8773</ele>
        <time>2013-04-10T18:41:33Z</time>
      </trkpt>
      <trkpt lat="59.9744825" lon="17.7266482">
        <ele>43.8773</ele>
        <time>2013-04-10T18:41:34Z</time>
      </trkpt>
      <trkpt lat="59.9744853" lon="17.7266903">
        <ele>43.8773</ele>
        <time>2013-04-10T18:41:35Z</time>
      </trkpt>
      <trkpt lat="59.9744877" lon="17.7267293">
        <ele>43.8773</ele>
        <time>2013-04-10T18:41:36Z</time>
      </trkpt>
      <trkpt lat="59.9744863" lon="17.7267665">
        <ele>43.3966</ele>
        <time>2013-04-10T18:41:37Z</time>
      </trkpt>
      <trkpt lat="59.9744797" lon="17.7267952">
        <ele>43.3966</ele>
        <time>2013-04-10T18:41:38Z</time>
      </trkpt>
      <trkpt lat="59.9744775" lon="17.7268339">
        <ele>42.916</ele>
        <time>2013-04-10T18:41:39Z</time>
      </trkpt>
      <trkpt lat="59.9744744" lon="17.7268697">
        <ele>42.4354</ele>
        <time>2013-04-10T18:41:40Z</time>
      </trkpt>
      <trkpt lat="59.9744707" lon="17.7269014">
        <ele>42.4354</ele>
        <time>2013-04-10T18:41:41Z</time>
      </trkpt>
      <trkpt lat="59.9744694" lon="17.7269359">
        <ele>41.9547</ele>
        <time>2013-04-10T18:41:42Z</time>
      </trkpt>
      <trkpt lat="59.9744666" lon="17.7269695">
        <ele>41.474</ele>
        <time>2013-04-10T18:41:43Z</time>
      </trkpt>
      <trkpt lat="59.9744689" lon="17.7270059">
        <ele>41.474</ele>
        <time>2013-04-10T18:41:44Z</time>
      </trkpt>
      <trkpt lat="59.9744708" lon="17.7270432">
        <ele>40.9934</ele>
        <time>2013-04-10T18:41:45Z</time>
      </trkpt>
      <trkpt lat="59.9744711" lon="17.7270895">
        <ele>41.474</ele>
        <time>2013-04-10T18:41:46Z</time>
      </trkpt>
      <trkpt lat="59.9744728" lon="17.7271384">
        <ele>40.9934</ele>
        <time>2013-04-10T18:41:47Z</time>
      </trkpt>
      <trkpt lat="59.974475" lon="17.7271874">
        <ele>40.9934</ele>
        <time>2013-04-10T18:41:48Z</time>
      </trkpt>
      <trkpt lat="59.9744769" lon="17.7272335">
        <ele>40.9934</ele>
        <time>2013-04-10T18:41:49Z</time>
      </trkpt>
      <trkpt lat="59.9744785" lon="17.72728">
        <ele>41.474</ele>
        <time>2013-04-10T18:41:50Z</time>
      </trkpt>
      <trkpt lat="59.974481" lon="17.7273271">
        <ele>41.474</ele>
        <time>2013-04-10T18:41:51Z</time>
      </trkpt>
      <trkpt lat="59.9744821" lon="17.7273753">
        <ele>40.9934</ele>
        <time>2013-04-10T18:41:52Z</time>
      </trkpt>
      <trkpt lat="59.9744843" lon="17.727423">
        <ele>40.9934</ele>
        <time>2013-04-10T18:41:53Z</time>
      </trkpt>
      <trkpt lat="59.9744885" lon="17.7274665">
        <ele>40.9934</ele>
        <time>2013-04-10T18:41:54Z</time>
      </trkpt>
      <trkpt lat="59.974488" lon="17.7275111">
        <ele>40.5128</ele>
        <time>2013-04-10T18:41:55Z</time>
      </trkpt>
      <trkpt lat="59.9744858" lon="17.7275573">
        <ele>40.5128</ele>
        <time>2013-04-10T18:41:56Z</time>
      </trkpt>
      <trkpt lat="59.9744865" lon="17.7275989">
        <ele>40.5128</ele>
        <time>2013-04-10T18:41:57Z</time>
      </trkpt>
      <trkpt lat="59.9744895" lon="17.7276425">
        <ele>40.0321</ele>
        <time>2013-04-10T18:41:58Z</time>
      </trkpt>
      <trkpt lat="59.9744905" lon="17.7276903">
        <ele>40.0321</ele>
        <time>2013-04-10T18:41:59Z</time>
      </trkpt>
      <trkpt lat="59.9744908" lon="17.7277374">
        <ele>40.0321</ele>
        <time>2013-04-10T18:42:00Z</time>
      </trkpt>
      <trkpt lat="59.9744941" lon="17.7277794">
        <ele>40.0321</ele>
        <time>2013-04-10T18:42:01Z</time>
      </trkpt>
      <trkpt lat="59.9744989" lon="17.727823">
        <ele>40.0321</ele>
        <time>2013-04-10T18:42:02Z</time>
      </trkpt>
      <trkpt lat="59.9745002" lon="17.7278706">
        <ele>40.0321</ele>
        <time>2013-04-10T18:42:03Z</time>
      </trkpt>
      <trkpt lat="59.9744974" lon="17.7279121">
        <ele>39.5513</ele>
        <time>2013-04-10T18:42:04Z</time>
      </trkpt>
      <trkpt lat="59.9744972" lon="17.727956">
        <ele>39.5513</ele>
        <time>2013-04-10T18:42:05Z</time>
      </trkpt>
      <trkpt lat="59.9744978" lon="17.7280059">
        <ele>39.5513</ele>
        <time>2013-04-10T18:42:06Z</time>
      </trkpt>
      <trkpt lat="59.9745009" lon="17.7280548">
        <ele>40.0321</ele>
        <time>2013-04-10T18:42:07Z</time>
      </trkpt>
      <trkpt lat="59.9745056" lon="17.7281036">
        <ele>40.0321</ele>
        <time>2013-04-10T18:42:08Z</time>
      </trkpt>
      <trkpt lat="59.9745085" lon="17.7281503">
        <ele>40.0321</ele>
        <time>2013-04-10T18:42:09Z</time>
      </trkpt>
      <trkpt lat="59.9745113" lon="17.7281925">
        <ele>40.5128</ele>
        <time>2013-04-10T18:42:10Z</time>
      </trkpt>
      <trkpt lat="59.9745141" lon="17.7282356">
        <ele>40.5128</ele>
        <time>2013-04-10T18:42:11Z</time>
      </trkpt>
      <trkpt lat="59.9745142" lon="17.7282824">
        <ele>40.5128</ele>
        <time>2013-04-10T18:42:12Z</time>
      </trkpt>
      <trkpt lat="59.9745162" lon="17.7283321">
        <ele>40.5128</ele>
        <time>2013-04-10T18:42:13Z</time>
      </trkpt>
      <trkpt lat="59.9745206" lon="17.7283797">
        <ele>40.5128</ele>
        <time>2013-04-10T18:42:14Z</time>
      </trkpt>
      <trkpt lat="59.9745217" lon="17.7284282">
        <ele>40.5128</ele>
        <time>2013-04-10T18:42:15Z</time>
      </trkpt>
      <trkpt lat="59.9745217" lon="17.7284796">
        <ele>40.5128</ele>
        <time>2013-04-10T18:42:16Z</time>
      </trkpt>
      <trkpt lat="59.9745248" lon="17.7285296">
        <ele>40.5128</ele>
        <time>2013-04-10T18:42:17Z</time>
      </trkpt>
      <trkpt lat="59.9745256" lon="17.7285797">
        <ele>40.9934</ele>
        <time>2013-04-10T18:42:18Z</time>
      </trkpt>
      <trkpt lat="59.9745241" lon="17.728634">
        <ele>40.5128</ele>
        <time>2013-04-10T18:42:19Z</time>
      </trkpt>
      <trkpt lat="59.9745245" lon="17.7286889">
        <ele>40.9934</ele>
        <time>2013-04-10T18:42:20Z</time>
      </trkpt>
      <trkpt lat="59.9745256" lon="17.7287412">
        <ele>40.9934</ele>
        <time>2013-04-10T18:42:21Z</time>
      </trkpt>
      <trkpt lat="59.9745262" lon="17.7287942">
        <ele>40.9934</ele>
        <time>2013-04-10T18:42:22Z</time>
      </trkpt>
      <trkpt lat="59.9745283" lon="17.7288454">
        <ele>40.5128</ele>
        <time>2013-04-10T18:42:23Z</time>
      </trkpt>
      <trkpt lat="59.9745313" lon="17.7288924">
        <ele>40.5128</ele>
        <time>2013-04-10T18:42:24Z</time>
      </trkpt>
      <trkpt lat="59.974537" lon="17.7289419">
        <ele>40.5128</ele>
        <time>2013-04-10T18:42:25Z</time>
      </trkpt>
      <trkpt lat="59.9745417" lon="17.7289939">
        <ele>40.5128</ele>
        <time>2013-04-10T18:42:26Z</time>
      </trkpt>
      <trkpt lat="59.9745442" lon="17.7290471">
        <ele>40.5128</ele>
        <time>2013-04-10T18:42:27Z</time>
      </trkpt>
      <trkpt lat="59.9745455" lon="17.7290988">
        <ele>40.9934</ele>
        <time>2013-04-10T18:42:28Z</time>
      </trkpt>
      <trkpt lat="59.974548" lon="17.7291474">
        <ele>40.9934</ele>
        <time>2013-04-10T18:42:29Z</time>
      </trkpt>
      <trkpt lat="59.9745505" lon="17.7291946">
        <ele>40.9934</ele>
        <time>2013-04-10T18:42:30Z</time>
      </trkpt>
      <trkpt lat="59.9745501" lon="17.7292443">
        <ele>40.9934</ele>
        <time>2013-04-10T18:42:31Z</time>
      </trkpt>
      <trkpt lat="59.9745512" lon="17.7292909">
        <ele>40.9934</ele>
        <time>2013-04-10T18:42:32Z</time>
      </trkpt>
      <trkpt lat="59.9745521" lon="17.729335">
        <ele>40.5128</ele>
        <time>2013-04-10T18:42:33Z</time>
      </trkpt>
      <trkpt lat="59.9745511" lon="17.7293824">
        <ele>40.5128</ele>
        <time>2013-04-10T18:42:34Z</time>
      </trkpt>
      <trkpt lat="59.9745501" lon="17.7294301">
        <ele>40.9934</ele>
        <time>2013-04-10T18:42:35Z</time>
      </trkpt>
      <trkpt lat="59.974549" lon="17.7294748">
        <ele>40.9934</ele>
        <time>2013-04-10T18:42:36Z</time>
      </trkpt>
      <trkpt lat="59.9745468" lon="17.7295193">
        <ele>40.5128</ele>
        <time>2013-04-10T18:42:37Z</time>
      </trkpt>
      <trkpt lat="59.9745448" lon="17.7295624">
        <ele>40.5128</ele>
        <time>2013-04-10T18:42:38Z</time>
      </trkpt>
      <trkpt lat="59.9745439" lon="17.7296044">
        <ele>40.5128</ele>
        <time>2013-04-10T18:42:39Z</time>
      </trkpt>
      <trkpt lat="59.9745418" lon="17.7296476">
        <ele>40.9934</ele>
        <time>2013-04-10T18:42:40Z</time>
      </trkpt>
      <trkpt lat="59.9745359" lon="17.7296937">
        <ele>40.9934</ele>
        <time>2013-04-10T18:42:41Z</time>
      </trkpt>
      <trkpt lat="59.9745309" lon="17.729739">
        <ele>41.474</ele>
        <time>2013-04-10T18:42:42Z</time>
      </trkpt>
      <trkpt lat="59.9745293" lon="17.729782">
        <ele>41.474</ele>
        <time>2013-04-10T18:42:43Z</time>
      </trkpt>
      <trkpt lat="59.9745278" lon="17.7298276">
        <ele>41.474</ele>
        <time>2013-04-10T18:42:44Z</time>
      </trkpt>
      <trkpt lat="59.9745253" lon="17.729874">
        <ele>41.9547</ele>
        <time>2013-04-10T18:42:45Z</time>
      </trkpt>
      <trkpt lat="59.9745227" lon="17.7299191">
        <ele>41.9547</ele>
        <time>2013-04-10T18:42:46Z</time>
      </trkpt>
      <trkpt lat="59.9745194" lon="17.7299624">
        <ele>41.9547</ele>
        <time>2013-04-10T18:42:47Z</time>
      </trkpt>
      <trkpt lat="59.9745144" lon="17.7300087">
        <ele>41.9547</ele>
        <time>2013-04-10T18:42:48Z</time>
      </trkpt>
      <trkpt lat="59.9745096" lon="17.7300536">
        <ele>42.4354</ele>
        <time>2013-04-10T18:42:49Z</time>
      </trkpt>
      <trkpt lat="59.9745059" lon="17.7300948">
        <ele>42.4354</ele>
        <time>2013-04-10T18:42:50Z</time>
      </trkpt>
      <trkpt lat="59.974502" lon="17.7301384">
        <ele>42.4354</ele>
        <time>2013-04-10T18:42:51Z</time>
      </trkpt>
      <trkpt lat="59.9744974" lon="17.7301849">
        <ele>42.4354</ele>
        <time>2013-04-10T18:42:52Z</time>
      </trkpt>
      <trkpt lat="59.9744926" lon="17.7302312">
        <ele>42.4354</ele>
        <time>2013-04-10T18:42:53Z</time>
      </trkpt>
      <trkpt lat="59.9744879" lon="17.7302736">
        <ele>41.9547</ele>
        <time>2013-04-10T18:42:54Z</time>
      </trkpt>
      <trkpt lat="59.9744829" lon="17.730317">
        <ele>41.9547</ele>
        <time>2013-04-10T18:42:55Z</time>
      </trkpt>
      <trkpt lat="59.9744781" lon="17.7303618">
        <ele>41.9547</ele>
        <time>2013-04-10T18:42:56Z</time>
      </trkpt>
      <trkpt lat="59.9744758" lon="17.7304074">
        <ele>41.9547</ele>
        <time>2013-04-10T18:42:57Z</time>
      </trkpt>
      <trkpt lat="59.9744748" lon="17.7304548">
        <ele>42.4354</ele>
        <time>2013-04-10T18:42:58Z</time>
      </trkpt>
      <trkpt lat="59.9744719" lon="17.7305027">
        <ele>42.4354</ele>
        <time>2013-04-10T18:42:59Z</time>
      </trkpt>
      <trkpt lat="59.9744666" lon="17.7305479">
        <ele>42.4354</ele>
        <time>2013-04-10T18:43:00Z</time>
      </trkpt>
      <trkpt lat="59.9744618" lon="17.7305891">
        <ele>41.9547</ele>
        <time>2013-04-10T18:43:01Z</time>
      </trkpt>
      <trkpt lat="59.9744559" lon="17.730633">
        <ele>41.9547</ele>
        <time>2013-04-10T18:43:02Z</time>
      </trkpt>
      <trkpt lat="59.9744517" lon="17.7306775">
        <ele>41.9547</ele>
        <time>2013-04-10T18:43:03Z</time>
      </trkpt>
      <trkpt lat="59.9744509" lon="17.7307228">
        <ele>41.474</ele>
        <time>2013-04-10T18:43:04Z</time>
      </trkpt>
      <trkpt lat="59.974448" lon="17.7307699">
        <ele>41.474</ele>
        <time>2013-04-10T18:43:05Z</time>
      </trkpt>
      <trkpt lat="59.9744429" lon="17.7308191">
        <ele>40.9934</ele>
        <time>2013-04-10T18:43:06Z</time>
      </trkpt>
      <trkpt lat="59.9744397" lon="17.7308682">
        <ele>40.9934</ele>
        <time>2013-04-10T18:43:07Z</time>
      </trkpt>
      <trkpt lat="59.9744372" lon="17.7309185">
        <ele>40.9934</ele>
        <time>2013-04-10T18:43:08Z</time>
      </trkpt>
      <trkpt lat="59.9744342" lon="17.7309691">
        <ele>40.9934</ele>
        <time>2013-04-10T18:43:09Z</time>
      </trkpt>
      <trkpt lat="59.9744334" lon="17.7310164">
        <ele>40.9934</ele>
        <time>2013-04-10T18:43:10Z</time>
      </trkpt>
      <trkpt lat="59.9744347" lon="17.7310635">
        <ele>41.474</ele>
        <time>2013-04-10T18:43:11Z</time>
      </trkpt>
      <trkpt lat="59.9744336" lon="17.7311159">
        <ele>41.474</ele>
        <time>2013-04-10T18:43:12Z</time>
      </trkpt>
      <trkpt lat="59.9744303" lon="17.7311639">
        <ele>41.474</ele>
        <time>2013-04-10T18:43:13Z</time>
      </trkpt>
    </trkseg>
  </trk>
</gpx>